[[{"header":{"parameterUnit":"m.s-1","parameterCategory":1,"la1":30.6,"la2":28.766,"lo1":-90.7593,"lo2":-88.6598,"dx":0.0162,"dy":0.0183,"nx":116,"ny":114,"refTime":"2023-02-11T06:00:00:Z","depth":0,"parameterNumber":2,"parameterNumberName":"U-component_of_WINDS"},"data":[0.0,0.0,0.0,0.0,0.0,0.0,0.0,0.0,0.0,0.0,0.0,0.0,0.0,0.0,0.0,0.0,0.0,0.0,0.0,0.0,0.0,0.0,0.0,0.0,0.0,0.0,0.0,0.0,0.0,0.0,0.0,0.0,0.0,0.0,0.0,0.0,0.0,0.0,0.0,0.0,0.0,0.0,0.0,0.0,0.0,0.0,0.0,0.0,0.0,0.0,0.0,0.0,0.0,0.0,0.0,0.0,0.0,0.0,0.0,0.0,0.0,0.0,0.0,0.0,0.0,0.0,0.0,0.0,0.0,0.0,0.0,0.0,0.0,0.0,0.0,0.0,0.0,0.0,0.0,0.0,0.0,0.0,0.0,0.0,0.0,0.0,0.0,0.0,0.0,0.0,0.0,0.0,0.0,0.0,0.0,0.0,0.0,0.0,0.0,0.0,0.0,0.0,0.0,0.0,0.0,0.0,0.0,0.0,0.0,0.0,0.0,0.0,0.0,0.0,0.0,0.0,0.0,0.0,0.0,0.0,0.0,0.0,0.0,0.0,0.0,0.0,0.0,0.0,0.0,0.0,0.0,0.0,0.0,0.0,0.0,0.0,0.0,0.0,0.0,0.0,0.0,0.0,0.0,0.0,0.0,0.0,0.0,0.0,0.0,0.0,0.0,0.0,0.0,0.0,0.0,0.0,0.0,0.0,0.0,0.0,0.0,0.0,0.0,0.0,0.0,0.0,0.0,0.0,0.0,0.0,0.0,0.0,0.0,0.0,0.0,0.0,0.0,0.0,0.0,0.0,0.0,0.0,0.0,0.0,0.0,0.0,0.0,0.0,0.0,0.0,0.0,0.0,0.0,0.0,0.0,0.0,0.0,0.0,0.0,0.0,0.0,0.0,0.0,0.0,0.0,0.0,0.0,0.0,0.0,0.0,0.0,0.0,0.0,0.0,0.0,0.0,0.0,0.0,0.0,0.0,0.0,0.0,0.0,0.0,0.0,0.0,0.0,0.0,0.0,0.0,0.0,0.0,0.0,0.0,0.0,0.0,0.0,0.0,0.0,0.0,0.0,0.0,0.0,0.0,0.0,0.0,0.0,0.0,0.0,0.0,0.0,0.0,0.0,0.0,0.0,0.0,0.0,0.0,0.0,0.0,0.0,0.0,0.0,0.0,0.0,0.0,0.0,0.0,0.0,0.0,0.0,0.0,0.0,0.0,0.0,0.0,0.0,0.0,0.0,0.0,0.0,0.0,0.0,0.0,0.0,0.0,0.0,0.0,0.0,0.0,0.0,0.0,0.0,0.0,0.0,0.0,0.0,0.0,0.0,0.0,0.0,0.0,0.0,0.0,0.0,0.0,0.0,0.0,0.0,0.0,0.0,0.0,0.0,0.0,0.0,0.0,0.0,0.0,0.0,0.0,0.0,0.0,0.0,0.0,0.0,0.0,0.0,0.0,0.0,0.0,0.0,0.0,0.0,0.0,0.0,0.0,0.0,0.0,0.0,0.0,0.0,0.0,0.0,0.0,0.0,0.0,0.0,0.0,0.0,0.0,0.0,0.0,0.0,0.0,0.0,0.0,0.0,0.0,0.0,0.0,0.0,0.0,0.0,0.0,0.0,0.0,0.0,0.0,0.0,0.0,0.0,0.0,0.0,0.0,0.0,0.0,0.0,0.0,0.0,0.0,0.0,0.0,0.0,0.0,0.0,0.0,0.0,0.0,0.0,0.0,0.0,0.0,0.0,0.0,0.0,0.0,0.0,0.0,0.0,0.0,0.0,0.0,0.0,0.0,0.0,0.0,0.0,0.0,0.0,0.0,0.0,0.0,0.0,0.0,0.0,0.0,0.0,0.0,0.0,0.0,0.0,0.0,0.0,0.0,0.0,0.0,0.0,0.0,0.0,0.0,0.0,0.0,0.0,0.0,0.0,0.0,0.0,0.0,0.0,0.0,0.0,0.0,0.0,0.0,0.0,0.0,0.0,0.0,0.0,0.0,0.0,0.0,0.0,0.0,0.0,0.0,0.0,0.0,0.0,0.0,0.0,0.0,0.0,0.0,0.0,0.0,0.0,0.0,0.0,0.0,0.0,0.0,0.0,0.0,0.0,0.0,0.0,0.0,0.0,0.0,0.0,0.0,0.0,0.0,0.0,0.0,0.0,0.0,0.0,0.0,0.0,0.0,0.0,0.0,0.0,0.0,0.0,0.0,0.0,0.0,0.0,0.0,0.0,0.0,0.0,0.0,0.0,0.0,0.0,0.0,0.0,0.0,0.0,0.0,0.0,0.0,0.0,0.0,0.0,0.0,0.0,0.0,0.0,0.0,0.0,0.0,0.0,0.0,0.0,0.0,0.0,0.0,0.0,0.0,0.0,0.0,0.0,0.0,0.0,0.0,0.0,0.0,0.0,0.0,0.0,0.0,0.0,0.0,0.0,0.0,0.0,0.0,0.0,0.0,0.0,0.0,0.0,0.0,0.0,0.0,0.0,0.0,0.0,0.0,0.0,0.0,0.0,0.0,0.0,0.0,0.0,0.0,0.0,0.0,0.0,0.0,0.0,0.0,0.0,0.0,0.0,0.0,0.0,0.0,0.0,0.0,0.0,0.0,0.0,0.0,0.0,0.0,0.0,0.0,0.0,0.0,0.0,0.0,0.0,0.0,0.0,0.0,0.0,0.0,0.0,0.0,0.0,0.0,0.0,0.0,0.0,0.0,0.0,0.0,0.0,0.0,0.0,0.0,0.0,0.0,0.0,0.0,0.0,0.0,0.0,0.0,0.0,0.0,0.0,0.0,0.0,0.0,0.0,0.0,0.0,0.0,0.0,0.0,0.0,0.0,0.0,0.0,0.0,0.0,0.0,0.0,0.0,0.0,0.0,0.0,0.0,0.0,0.0,0.0,0.0,0.0,0.0,0.0,0.0,0.0,0.0,0.0,0.0,0.0,0.0,0.0,0.0,0.0,0.0,0.0,0.0,0.0,0.0,0.0,0.0,0.0,0.0,0.0,0.0,0.0,0.0,0.0,0.0,0.0,0.0,0.0,0.0,0.0,0.0,0.0,0.0,0.0,0.0,0.0,0.0,0.0,0.0,0.0,0.0,0.0,0.0,0.0,0.0,0.0,0.0,0.0,0.0,0.0,0.0,0.0,0.0,0.0,0.0,0.0,0.0,0.0,0.0,0.0,0.0,0.0,0.0,0.0,0.0,0.0,0.0,0.0,0.0,0.0,0.0,0.0,0.0,0.0,0.0,0.0,0.0,0.0,0.0,0.0,0.0,0.0,0.0,0.0,0.0,0.0,0.0,0.0,0.0,0.0,0.0,0.0,0.0,0.0,0.0,0.0,0.0,0.0,0.0,0.0,0.0,0.0,0.0,0.0,0.0,0.0,0.0,0.0,0.0,0.0,0.0,0.0,0.0,0.0,0.0,0.0,0.0,0.0,0.0,0.0,0.0,0.0,0.0,0.0,0.0,0.0,0.0,0.0,0.0,0.0,0.0,0.0,0.0,0.0,0.0,0.0,0.0,0.0,0.0,0.0,0.0,0.0,0.0,0.0,0.0,0.0,0.0,0.0,0.0,0.0,0.0,0.0,0.0,0.0,0.0,0.0,0.0,0.0,0.0,0.0,0.0,0.0,0.0,0.0,0.0,0.0,0.0,0.0,0.0,0.0,0.0,0.0,0.0,0.0,0.0,0.0,0.0,0.0,0.0,0.0,0.0,0.0,0.0,0.0,0.0,0.0,0.0,0.0,0.0,0.0,0.0,0.0,0.0,0.0,0.0,0.0,0.0,0.0,0.0,0.0,0.0,0.0,0.0,0.0,0.0,0.0,0.0,0.0,0.0,0.0,0.0,0.0,0.0,0.0,0.0,0.0,0.0,0.0,0.0,0.0,0.0,0.0,0.0,0.0,0.0,0.0,0.0,0.0,0.0,0.0,0.0,0.0,0.0,0.0,0.0,0.0,0.0,0.0,0.0,0.0,0.0,0.0,0.0,0.0,0.0,0.0,0.0,0.0,0.0,0.0,0.0,0.0,0.0,0.0,0.0,0.0,0.0,0.0,0.0,0.0,0.0,0.0,0.0,0.0,0.0,0.0,0.0,0.0,0.0,0.0,0.0,0.0,0.0,0.0,0.0,0.0,0.0,0.0,0.0,0.0,0.0,0.0,0.0,0.0,0.0,0.0,0.0,0.0,0.0,0.0,0.0,0.0,0.0,0.0,0.0,0.0,0.0,0.0,0.0,0.0,0.0,0.0,0.0,0.0,0.0,0.0,0.0,0.0,0.0,0.0,0.0,0.0,0.0,0.0,0.0,0.0,0.0,0.0,0.0,0.0,0.0,0.0,0.0,0.0,0.0,0.0,0.0,0.0,0.0,0.0,0.0,0.0,0.0,0.0,0.0,0.0,0.0,0.0,0.0,0.0,0.0,0.0,0.0,0.0,0.0,0.0,0.0,0.0,0.0,0.0,0.0,0.0,0.0,0.0,0.0,0.0,0.0,0.0,0.0,0.0,0.0,0.0,0.0,0.0,0.0,0.0,0.0,0.0,0.0,0.0,0.0,0.0,0.0,0.0,0.0,0.0,0.0,0.0,0.0,0.0,0.0,0.0,0.0,0.0,0.0,0.0,0.0,0.0,0.0,0.0,0.0,0.0,0.0,0.0,0.0,0.0,0.0,0.0,0.0,0.0,0.0,0.0,0.0,0.0,0.0,0.0,0.0,0.0,0.0,0.0,0.0,0.0,0.0,0.0,0.0,0.0,0.0,0.0,0.0,0.0,0.0,0.0,0.0,0.0,0.0,0.0,0.0,0.0,0.0,0.0,0.0,0.0,0.0,0.0,0.0,0.0,0.0,0.0,0.0,0.0,0.0,0.0,0.0,0.0,0.0,0.0,0.0,0.0,0.0,0.0,0.0,0.0,0.0,0.0,0.0,0.0,0.0,0.0,0.0,0.0,0.0,0.0,0.0,0.0,0.0,0.0,0.0,0.0,0.0,0.0,0.0,0.0,0.0,0.0,0.0,0.0,0.0,0.0,0.0,0.0,0.0,0.0,0.0,0.0,0.0,0.0,0.0,0.0,0.0,0.0,0.0,0.0,0.0,0.0,0.0,0.0,0.0,0.0,0.0,0.0,0.0,0.0,0.0,0.0,0.0,0.0,0.0,0.0,0.0,0.0,0.0,0.0,0.0,0.0,0.0,0.0,0.0,0.0,0.0,0.0,0.0,0.0,0.0,0.0,0.0,0.0,0.0,0.0,0.0,0.0,0.0,0.0,0.0,0.0,0.0,0.0,0.0,0.0,0.0,0.0,0.0,0.0,0.0,0.0,0.0,0.0,0.0,0.0,0.0,0.0,0.0,0.0,0.0,0.0,0.0,0.0,0.0,0.0,0.0,0.0,0.0,0.0,0.0,0.0,0.0,0.0,0.0,0.0,0.0,0.0,0.0,0.0,0.0,0.0,0.0,0.0,0.0,0.0,0.0,0.0,0.0,0.0,0.0,0.0,0.0,0.0,0.0,0.0,0.0,0.0,0.0,0.0,0.0,0.0,0.0,0.0,0.0,0.0,0.0,0.0,0.0,0.0,0.0,0.0,0.0,0.0,0.0,0.0,0.0,0.0,0.0,0.0,0.0,0.0,0.0,0.0,0.0,0.0,0.0,0.0,0.0,0.0,0.0,0.0,0.0,0.0,0.0,0.0,0.0,0.0,0.0,0.0,0.0,0.0,0.0,0.0,0.0,0.0,0.0,0.0,0.0,0.0,0.0,0.0,0.0,0.0,0.0,0.0,0.0,0.0,0.0,0.0,0.0,0.0,0.0,0.0,0.0,0.0,0.0,0.0,0.0,0.0,0.0,0.0,0.0,0.0,0.0,0.0,0.0,0.0,0.0,0.0,0.0,0.0,0.0,0.0,0.0,0.0,0.0,0.0,0.0,0.0,0.0,0.0,0.0,0.0,0.0,0.0,0.0,0.0,0.0,0.0,0.0,0.0,0.0,0.0,0.0,0.0,0.0,0.0,0.0,0.0,0.0,0.0,0.0,0.0,0.0,0.0,0.0,0.0,0.0,0.0,0.0,0.0,0.0,0.0,0.0,0.0,0.0,0.0,0.0,0.0,4.4566,4.3736,0.0,0.0,0.0,0.0,0.0,0.0,0.0,0.0,0.0,0.0,0.0,0.0,0.0,0.0,0.0,0.0,0.0,0.0,0.0,0.0,0.0,0.0,0.0,0.0,0.0,0.0,0.0,0.0,0.0,0.0,0.0,0.0,0.0,0.0,0.0,0.0,0.0,0.0,0.0,0.0,0.0,0.0,0.0,0.0,0.0,0.0,0.0,0.0,0.0,0.0,0.0,0.0,0.0,0.0,0.0,0.0,0.0,0.0,0.0,0.0,0.0,0.0,0.0,0.0,0.0,0.0,0.0,0.0,0.0,0.0,0.0,0.0,0.0,0.0,0.0,0.0,0.0,0.0,0.0,0.0,0.0,0.0,0.0,0.0,0.0,0.0,0.0,0.0,0.0,0.0,0.0,0.0,0.0,0.0,0.0,0.0,0.0,0.0,0.0,0.0,0.0,0.0,0.0,0.0,0.0,0.0,0.0,0.0,0.0,0.0,0.0,0.0,0.0,0.0,4.4501,4.3178,0.0,0.0,0.0,0.0,0.0,0.0,0.0,0.0,0.0,0.0,0.0,0.0,0.0,0.0,0.0,0.0,0.0,0.0,0.0,0.0,0.0,0.0,0.0,0.0,0.0,0.0,0.0,0.0,0.0,0.0,0.0,0.0,0.0,0.0,0.0,0.0,0.0,0.0,0.0,0.0,0.0,0.0,0.0,0.0,0.0,0.0,0.0,0.0,0.0,0.0,0.0,0.0,0.0,0.0,0.0,0.0,0.0,0.0,0.0,0.0,0.0,0.0,0.0,0.0,0.0,0.0,0.0,0.0,0.0,0.0,0.0,0.0,0.0,0.0,0.0,0.0,0.0,0.0,0.0,0.0,0.0,0.0,0.0,0.0,0.0,0.0,0.0,0.0,0.0,0.0,0.0,0.0,0.0,0.0,0.0,0.0,0.0,0.0,0.0,0.0,0.0,0.0,0.0,0.0,0.0,0.0,0.0,0.0,4.7327,4.6693,4.6381,4.4776,4.4266,4.4595,4.386,4.2099,3.9465,3.9053,0.0,0.0,0.0,0.0,0.0,0.0,0.0,0.0,0.0,0.0,0.0,0.0,0.0,0.0,0.0,0.0,0.0,0.0,0.0,0.0,0.0,0.0,0.0,0.0,0.0,0.0,0.0,0.0,0.0,0.0,0.0,0.0,0.0,0.0,0.0,0.0,0.0,0.0,4.7184,4.7184,4.7184,4.7081,4.6428,0.0,0.0,0.0,0.0,0.0,0.0,0.0,0.0,0.0,0.0,0.0,0.0,0.0,0.0,0.0,0.0,0.0,0.0,0.0,0.0,0.0,0.0,0.0,0.0,0.0,0.0,0.0,0.0,0.0,0.0,0.0,0.0,0.0,0.0,0.0,0.0,0.0,0.0,0.0,0.0,0.0,0.0,0.0,4.9662,4.9662,0.0,0.0,0.0,0.0,0.0,0.0,0.0,0.0,0.0,0.0,0.0,0.0,0.0,5.1116,5.0232,4.9257,4.8616,4.8281,4.7247,4.7118,4.7585,4.5975,4.4408,4.2899,4.1902,0.0,4.1338,3.9294,0.0,0.0,0.0,0.0,0.0,0.0,0.0,0.0,0.0,0.0,0.0,0.0,0.0,0.0,0.0,0.0,0.0,0.0,0.0,0.0,0.0,0.0,0.0,0.0,0.0,0.0,0.0,0.0,0.0,0.0,0.0,0.0,0.0,0.0,0.0,0.0,4.7081,4.7391,4.7726,4.7726,4.7726,4.7726,4.7854,4.7279,4.6455,4.6808,0.0,0.0,0.0,0.0,0.0,0.0,0.0,0.0,0.0,0.0,0.0,0.0,0.0,0.0,0.0,0.0,0.0,0.0,0.0,0.0,0.0,0.0,0.0,0.0,0.0,0.0,0.0,0.0,0.0,0.0,0.0,0.0,0.0,0.0,0.0,0.0,0.0,0.0,0.0,4.9584,4.9897,4.9897,4.9897,4.9897,0.0,0.0,0.0,0.0,0.0,0.0,0.0,0.0,0.0,5.1256,5.1149,5.0921,5.0535,4.9107,4.8435,4.8267,4.7352,4.6652,4.6374,4.4743,4.3108,4.1746,4.026,3.9836,3.991,3.8994,3.8592,3.8761,0.0,0.0,0.0,0.0,3.5994,3.5672,0.0,0.0,0.0,0.0,0.0,0.0,0.0,0.0,0.0,0.0,0.0,0.0,0.0,0.0,0.0,4.208,0.0,0.0,0.0,0.0,0.0,0.0,0.0,0.0,0.0,0.0,0.0,4.7288,4.7391,4.7726,4.8134,4.8274,4.8359,4.8387,4.9005,4.8402,4.712,4.7749,4.7996,0.0,0.0,0.0,0.0,0.0,0.0,0.0,0.0,0.0,0.0,0.0,0.0,0.0,0.0,0.0,0.0,0.0,0.0,0.0,0.0,0.0,0.0,0.0,0.0,0.0,0.0,0.0,0.0,0.0,0.0,0.0,0.0,0.0,0.0,0.0,0.0,0.0,0.0,5.0237,5.0315,5.0315,5.0315,5.0315,0.0,0.0,0.0,0.0,0.0,0.0,5.157,5.1753,5.1831,5.1831,5.1357,5.0857,5.0594,4.9092,4.8396,4.8122,4.7468,4.6442,4.5265,4.3763,4.2292,4.0958,3.9254,3.864,3.864,3.864,3.864,3.8481,3.8145,3.7986,3.7649,3.5511,3.4701,3.4197,0.0,0.0,0.0,0.0,0.0,0.0,0.0,0.0,0.0,0.0,0.0,0.0,0.0,0.0,4.1533,4.2184,4.2262,4.2498,0.0,0.0,0.0,0.0,0.0,0.0,0.0,0.0,0.0,4.7288,4.7829,4.8032,4.8134,4.8724,4.8977,4.9033,4.9623,4.9567,4.893,4.9546,4.9588,4.9003,0.0,0.0,0.0,0.0,0.0,0.0,0.0,0.0,0.0,0.0,0.0,0.0,0.0,0.0,0.0,0.0,0.0,0.0,0.0,0.0,0.0,0.0,0.0,0.0,0.0,0.0,0.0,0.0,0.0,0.0,0.0,0.0,0.0,0.0,0.0,0.0,0.0,0.0,0.0,5.1518,5.1518,0.0,0.0,0.0,0.0,5.1544,5.1544,5.157,5.1596,5.2145,5.2459,5.2459,5.1946,5.1147,5.021,4.8988,4.8192,4.7597,4.7597,4.6961,4.5744,4.4226,4.2576,4.0958,3.9254,3.864,3.864,3.864,3.864,3.8481,3.6815,3.6155,3.5672,3.2247,3.112,3.0788,0.0,0.0,0.0,0.0,0.0,0.0,0.0,0.0,0.0,0.0,0.0,0.0,0.0,4.1939,4.2431,4.2642,4.3356,4.3885,4.4097,0.0,0.0,0.0,0.0,0.0,0.0,0.0,4.7288,4.7829,4.8425,4.8724,4.8724,4.9342,4.9623,4.9651,5.0269,5.0438,5.0241,5.0466,5.0444,5.0286,5.0216,4.9908,0.0,0.0,0.0,0.0,0.0,0.0,0.0,0.0,0.0,0.0,0.0,0.0,0.0,0.0,0.0,0.0,0.0,0.0,0.0,0.0,0.0,0.0,0.0,0.0,0.0,0.0,0.0,0.0,0.0,0.0,0.0,0.0,0.0,0.0,0.0,0.0,0.0,5.1596,5.1596,0.0,5.1596,5.1596,5.1596,5.1596,5.1962,5.2171,5.2171,5.2746,5.3086,5.3086,5.1848,5.1049,5.0641,4.9202,4.8349,4.8125,4.8125,4.6837,4.4398,4.3794,4.1982,3.9411,3.8798,3.864,3.864,3.864,3.864,3.8481,3.7986,3.6992,3.5672,3.3397,3.1768,3.0622,0.0,0.0,0.0,0.0,0.0,0.0,0.0,0.0,0.0,0.0,0.0,4.1402,4.1585,4.2229,4.2801,4.3198,4.4146,4.4704,4.4679,0.0,0.0,0.0,0.0,0.0,0.0,4.7081,4.7707,4.8443,4.8836,4.9145,4.937,4.9988,5.0269,5.0297,5.0916,5.1169,5.1169,5.1169,5.1169,5.1225,5.0961,5.0683,5.0235,0.0,0.0,0.0,0.0,0.0,0.0,0.0,0.0,0.0,0.0,0.0,0.0,0.0,0.0,0.0,0.0,0.0,0.0,0.0,0.0,0.0,0.0,0.0,0.0,0.0,0.0,0.0,0.0,0.0,0.0,0.0,0.0,0.0,0.0,5.1596,5.1596,5.1596,5.1596,5.1675,5.1884,5.191,5.1988,5.2197,5.2589,5.2798,5.2798,5.3347,5.3531,5.3139,5.1865,5.1068,5.0628,4.9201,4.84,4.8377,4.7772,4.6085,4.3491,4.2902,4.1229,3.864,3.864,3.864,3.864,3.864,3.864,3.8481,3.7986,3.6672,3.4863,3.3233,3.1437,2.9802,0.0,0.0,0.0,0.0,0.0,0.0,0.0,0.0,0.0,0.0,4.1324,4.1559,4.2108,4.2186,4.2657,4.3781,4.4388,4.4758,4.4696,4.5261,0.0,0.0,0.0,0.0,4.7288,4.7315,4.793,4.9033,4.9089,4.9398,4.9988,5.0607,5.0916,5.0916,5.1534,5.1787,5.1787,5.1787,5.1787,5.1787,5.1128,5.0906,5.0795,0.0,0.0,0.0,0.0,0.0,0.0,0.0,0.0,0.0,0.0,0.0,0.0,0.0,0.0,0.0,0.0,0.0,0.0,0.0,0.0,0.0,0.0,0.0,0.0,0.0,0.0,0.0,0.0,0.0,0.0,0.0,0.0,0.0,5.1596,5.1622,5.1622,5.1622,5.1648,5.1884,5.2459,5.2537,5.2772,5.3347,5.3426,5.3426,5.3426,5.3922,5.3682,5.259,5.2004,5.1163,5.0056,4.8957,4.84,4.8232,4.6699,4.502,4.3339,4.1848,4.0178,3.864,3.864,3.864,3.864,3.864,3.864,3.8322,3.6654,3.4863,3.3233,3.1437,2.9635,2.8136,0.0,0.0,0.0,0.0,0.0,0.0,0.0,0.0,0.0,0.0,4.1664,4.2004,4.2134,4.2892,4.352,4.3833,4.4785,4.5209,4.4722,0.0,0.0,0.0,0.0,0.0,4.7288,4.8144,4.8658,4.9033,4.9932,5.0466,5.0635,5.1253,5.1534,5.1534,5.1731,5.1787,5.1787,5.1787,5.1787,5.1787,5.1568,5.1348,5.0906,0.0,0.0,0.0,0.0,0.0,0.0,0.0,0.0,0.0,0.0,0.0,0.0,0.0,0.0,0.0,0.0,0.0,0.0,0.0,0.0,0.0,0.0,0.0,0.0,0.0,0.0,0.0,0.0,0.0,0.0,0.0,5.1715,5.2093,5.1648,5.1962,5.225,5.225,5.2642,5.2955,5.3138,5.3138,5.3217,5.34,5.3766,5.3975,5.3975,5.3701,5.3445,5.3148,5.1509,5.034,5.0056,4.8957,4.7772,4.6551,4.6085,4.4419,4.1693,4.1249,4.0178,3.864,3.864,3.864,3.864,3.864,3.7827,3.6654,3.6155,3.4863,3.3233,3.1437,2.9635,2.8136,0.0,0.0,0.0,0.0,0.0,0.0,0.0,0.0,0.0,0.0,4.1951,4.2343,4.284,4.3467,4.3964,4.4199,4.5076,4.5368,4.4722,0.0,0.0,0.0,0.0,4.7529,4.7985,4.8658,4.9286,4.982,5.0522,5.1,5.1253,5.1618,5.1787,5.1787,5.1787,5.1787,5.1787,5.1787,5.1787,5.1787,5.1787,5.1568,5.1238,5.1017,5.0683,5.0348,5.0123,5.001,4.9897,4.9556,0.0,0.0,0.0,0.0,0.0,0.0,0.0,0.0,0.0,0.0,0.0,0.0,0.0,0.0,0.0,0.0,0.0,0.0,0.0,0.0,0.0,0.0,0.0,0.0,5.231,5.2746,5.2406,5.2642,5.2877,5.2877,5.3191,5.3478,5.3713,5.3739,5.3844,5.4079,5.4393,5.4576,5.4576,5.3766,5.324,5.2692,5.1022,4.9914,4.9365,4.8667,4.7603,4.5915,4.517,4.3511,4.1113,4.0334,3.9569,3.864,3.864,3.864,3.864,3.864,3.7649,0.0,0.0,0.0,0.0,0.0,2.9132,2.8136,0.0,0.0,0.0,0.0,0.0,0.0,0.0,0.0,0.0,0.0,0.0,4.2735,4.3755,4.4044,4.428,4.467,4.5261,4.5475,0.0,0.0,0.0,4.7288,4.7474,4.7958,4.9033,4.9174,4.9792,5.0859,5.0944,5.1253,5.1787,5.1787,5.1787,5.1787,5.1787,5.1787,5.1787,5.1787,5.1787,5.1787,5.1787,5.1787,5.1787,5.1238,5.1017,5.0906,5.0348,5.0235,5.0235,5.0204,0.0,0.0,0.0,0.0,0.0,0.0,0.0,0.0,0.0,0.0,0.0,0.0,0.0,0.0,0.0,0.0,0.0,0.0,0.0,0.0,0.0,0.0,0.0,0.0,5.3138,5.3504,5.3583,5.3583,5.3556,5.3504,5.3556,5.3766,5.4262,5.4314,5.4524,5.5072,5.5099,5.5099,5.5099,5.3971,0.0,0.0,0.0,4.9365,4.84,4.84,4.7457,4.5617,4.4247,4.2596,4.0802,3.9254,3.864,3.864,3.864,3.864,3.864,3.864,3.749,3.5672,3.5511,3.3397,3.0289,2.881,2.8136,2.8136,0.0,0.0,0.0,0.0,0.0,0.0,0.0,0.0,0.0,4.2134,4.2971,4.3624,4.3859,4.4731,4.5155,4.4722,4.5688,4.6218,0.0,0.0,4.7081,4.7288,4.8172,4.8817,4.9033,5.0016,5.0635,5.0859,5.1365,5.1674,5.1787,5.1787,5.1787,5.1787,5.1787,5.1787,5.1787,5.1787,5.1787,5.1787,5.1787,5.1787,5.1787,5.1677,5.1677,5.1568,5.1458,5.1458,5.1432,5.1458,5.1398,5.1481,5.1544,5.1475,0.0,0.0,0.0,0.0,0.0,0.0,0.0,0.0,0.0,0.0,0.0,0.0,0.0,0.0,0.0,0.0,0.0,0.0,0.0,5.3583,5.3975,5.421,5.4707,5.4759,5.4602,5.4105,5.4471,5.4811,5.4916,5.4942,5.4968,5.5099,5.5099,5.5099,5.5099,5.3128,5.1861,5.1722,4.9795,4.8667,4.84,4.84,4.6869,4.3945,4.3642,0.0,3.9114,3.8798,3.864,3.864,3.864,3.864,3.864,3.864,3.6672,3.3724,3.2412,3.0455,2.8642,2.8305,2.8136,2.8136,0.0,0.0,0.0,0.0,0.0,0.0,0.0,0.0,0.0,0.0,4.352,4.399,4.4278,4.4781,4.5046,4.4722,4.5475,0.0,0.0,4.6977,4.7529,4.8144,4.8658,4.9342,4.996,5.055,5.1028,5.1337,5.1646,5.1787,5.1787,5.1787,5.1787,5.1787,5.1787,5.1787,5.1787,5.1787,5.1787,5.1787,5.1787,5.1983,5.2208,5.1899,5.1983,5.2236,5.2236,5.2461,5.277,5.2743,5.2741,5.2797,5.2761,5.2641,5.2233,0.0,0.0,0.0,0.0,0.0,0.0,0.0,0.0,0.0,0.0,0.0,0.0,0.0,0.0,5.0042,5.1511,0.0,5.2853,5.3974,5.4445,5.4759,5.5072,5.5099,5.4994,5.468,5.4916,5.5099,5.5099,5.5099,5.5099,5.5099,5.5099,5.4805,5.4241,5.2554,5.1443,5.0906,4.9221,4.84,4.84,4.7626,4.5937,4.3491,4.2749,4.0938,3.864,3.864,3.864,3.864,3.864,3.864,3.8481,3.6672,3.5025,3.3069,3.0455,2.8978,2.8136,2.8136,2.8136,2.8136,0.0,0.0,0.0,0.0,0.0,0.0,0.0,0.0,0.0,0.0,4.3964,4.4225,4.467,4.483,4.483,0.0,0.0,0.0,0.0,4.7191,4.8013,4.893,4.9258,4.9848,5.0859,5.0972,5.1281,5.1787,5.1787,5.1787,5.1787,5.1787,5.1787,5.1787,5.1787,5.1787,5.1787,5.1927,5.1955,5.1983,5.2096,5.2461,5.2826,5.2349,5.2461,5.2883,5.2883,5.3108,5.3584,5.381,5.3838,5.3752,5.3865,5.3549,5.3055,5.2696,5.2259,0.0,0.0,0.0,0.0,0.0,0.0,0.0,0.0,5.0461,5.0487,5.0589,5.0844,5.1511,5.2644,5.3583,5.4236,5.4367,5.4785,5.5099,5.5099,5.5099,5.5099,5.5099,5.5099,5.5099,5.5099,5.5099,5.5099,5.5099,5.4965,5.4376,5.3402,5.2139,5.1022,5.0198,4.8933,4.84,4.84,4.6699,4.517,4.3491,4.1848,4.0178,3.864,3.864,3.864,3.864,3.864,3.864,3.8322,3.4863,3.3397,3.3069,2.9621,2.8136,2.8136,2.8136,2.8136,2.8136,0.0,0.0,0.0,0.0,0.0,0.0,0.0,0.0,0.0,0.0,0.0,0.0,0.0,0.0,0.0,0.0,0.0,0.0,4.6428,4.7889,4.8874,4.9033,5.0073,5.0719,5.0859,5.1421,5.1731,5.1787,5.1787,5.1787,5.1787,5.1787,5.1787,5.1787,5.1787,5.1787,5.1843,5.2377,5.2602,5.2658,5.322,5.3501,5.3557,5.3473,5.3501,5.3557,5.3557,5.3273,5.2955,5.4058,5.4111,5.3702,5.4256,5.4422,5.4066,5.2944,5.2508,5.2385,5.1695,5.1596,5.1596,5.1596,5.1596,5.1596,0.0,5.1471,5.1627,5.2149,5.2305,5.267,5.3818,5.4105,5.4367,5.4916,5.5072,5.5099,5.5099,5.5099,5.5099,5.5099,5.5099,5.5099,5.5099,5.5099,5.5099,5.5099,5.4106,5.3538,5.3376,5.1443,5.0198,5.0056,4.8933,4.84,4.84,4.6699,4.517,4.3491,4.1848,4.0178,3.864,3.864,3.864,3.864,3.864,3.864,3.8322,3.4863,3.3397,3.3069,2.9621,2.8136,2.8136,2.8136,2.8136,2.8136,0.0,0.0,0.0,0.0,0.0,0.0,0.0,0.0,0.0,0.0,0.0,0.0,0.0,0.0,0.0,0.0,0.0,0.0,4.6944,4.827,4.937,5.0073,5.0607,5.1028,5.1393,5.1646,5.1787,5.1787,5.1787,5.1787,5.1787,5.1787,5.1787,5.1787,5.1787,5.1983,5.2349,5.2602,5.2911,5.3304,5.3557,5.3894,5.4203,5.4203,5.417,5.4074,5.3712,5.3708,0.0,5.4408,5.4373,5.4165,5.4414,5.4497,5.4259,5.2956,5.2588,5.2465,5.1721,5.1596,5.1596,5.1596,5.1596,5.1596,5.1596,5.1858,5.2197,5.2433,5.3034,5.3635,5.4105,5.4497,5.4811,5.5072,5.5099,5.5099,5.5099,5.5099,5.5099,5.5099,5.5099,5.5099,5.5099,5.5099,5.5099,5.5099,5.4106,5.3103,5.2416,5.0882,4.9771,4.9078,4.8667,4.84,4.84,4.5788,4.4096,4.3491,4.0938,3.9254,3.864,3.864,3.864,3.864,3.864,3.864,3.8322,3.4863,3.3397,3.3069,2.9621,2.8136,2.8136,2.8136,2.8136,2.8163,0.0,0.0,0.0,0.0,0.0,0.0,0.0,0.0,0.0,0.0,0.0,0.0,0.0,0.0,0.0,0.0,0.0,4.665,4.7323,4.8609,4.9721,5.0831,5.1028,5.1337,5.1787,5.1787,5.1787,5.1787,5.1787,5.1787,5.1787,5.1787,5.1871,5.204,5.204,5.2377,5.2995,5.3164,5.3501,5.3922,5.4119,5.4456,5.485,5.485,5.4725,5.4442,5.4,5.3901,5.4019,5.4166,5.4166,5.4019,5.4019,5.4019,5.3779,5.2711,5.2342,5.2094,5.1346,5.1346,5.1596,5.1596,5.1596,5.1648,5.1805,5.2171,5.2589,5.2903,5.3635,5.4262,5.4419,5.4811,5.5099,5.5099,5.5099,5.5099,5.5099,5.5099,5.5099,5.5099,5.5099,5.5099,5.5099,5.5099,5.5099,5.5099,5.3674,5.2554,5.1722,5.034,4.9221,4.84,4.84,4.8232,4.7772,4.487,4.3339,4.2749,4.0021,3.864,3.864,3.864,3.864,3.864,3.864,3.864,3.8322,3.4863,3.3397,3.3069,2.9621,2.8136,2.8136,2.8136,2.8136,2.8177,0.0,0.0,0.0,0.0,0.0,0.0,0.0,0.0,0.0,0.0,0.0,0.0,0.0,0.0,4.4722,4.4722,4.579,4.6786,4.7351,4.898,5.0293,5.0859,5.145,5.1759,5.1787,5.1787,5.1787,5.1787,5.1787,5.1787,5.1787,5.1787,5.2096,5.2686,5.2686,5.3023,5.3669,5.4288,5.454,5.4597,5.5215,5.5468,5.5468,5.5468,5.5116,5.4497,5.4469,5.3658,5.2711,5.347,5.3227,5.2711,5.2711,5.2711,5.2465,5.1846,5.1596,5.1471,5.0461,5.0842,5.1596,5.1596,5.1596,5.1753,5.2328,5.2485,5.2798,5.3922,5.4184,5.4393,5.4968,5.5099,5.5099,5.5099,5.5099,5.5099,5.5099,5.5099,5.5099,5.5099,5.5099,5.5099,5.5099,5.5099,5.5099,5.5099,5.2991,5.1722,5.1722,4.9652,4.84,4.84,4.84,4.7626,4.5915,4.4398,4.2749,4.1094,3.9411,3.864,3.864,3.864,3.864,3.864,3.864,3.864,3.8322,3.4863,3.3397,3.3069,2.9621,2.8136,2.8136,2.8136,2.8136,2.8136,0.0,0.0,0.0,0.0,0.0,0.0,0.0,0.0,0.0,0.0,0.0,0.0,0.0,0.0,0.0,0.0,4.6028,4.6917,4.7913,4.9228,5.0297,5.0905,5.1456,5.1787,5.1787,5.1787,5.1787,5.1787,5.1787,5.1787,5.1787,5.2208,5.2517,5.2714,5.3164,5.3697,5.4288,5.4484,5.4821,5.5215,5.5412,5.5496,5.5496,5.4998,5.4405,5.3806,0.0,5.2956,5.2588,5.2861,5.2834,5.2588,5.2588,5.2588,5.2465,5.1846,5.1596,5.1471,5.122,5.1346,5.1596,5.1596,5.1596,5.1753,5.2354,5.2798,5.3295,5.4053,5.4524,5.4863,5.5072,5.5099,5.5099,5.5099,5.5099,5.5099,5.5099,5.5099,5.5099,5.5099,5.5099,5.5099,5.5099,5.5099,5.4805,5.3971,5.2554,5.1443,5.0624,4.9221,4.84,4.84,4.84,4.7626,4.5915,4.4247,4.2749,4.1113,3.9411,3.864,3.864,3.864,3.864,3.864,3.864,3.7986,3.6654,3.4376,3.2741,3.1437,2.9132,2.827,2.8457,2.8457,2.8577,2.8738,0.0,0.0,0.0,0.0,0.0,0.0,0.0,0.0,0.0,0.0,0.0,0.0,0.0,0.0,0.0,0.0,0.0,4.7198,4.8166,4.9081,4.9938,5.0544,5.0906,5.1128,5.1128,5.1128,5.1128,5.1128,5.1348,5.157,5.1793,5.2407,5.2939,5.3388,5.381,5.4344,5.4906,5.4906,5.5014,5.5116,5.5116,5.5026,5.479,5.4286,5.3806,0.0,5.2711,5.2465,5.2218,5.2218,5.2218,5.2218,5.2218,5.2218,5.2094,5.1346,5.1346,5.1471,5.122,5.1346,5.1596,5.1596,5.1753,5.2067,5.2668,5.3269,5.3844,5.4419,5.4837,5.5046,5.4811,5.4968,5.502,5.4811,5.4968,5.5099,5.5099,5.5099,5.5099,5.5099,5.5099,5.5099,5.5099,5.4671,5.4241,5.3402,5.2278,5.1163,5.0198,4.9101,4.84,4.84,4.84,4.731,4.502,4.3945,4.2443,4.0178,3.9096,3.864,3.864,3.864,3.864,3.864,3.864,3.7649,3.5833,3.405,3.2412,3.0636,2.8933,2.843,2.8617,2.8724,2.8885,2.9045,0.0,0.0,0.0,0.0,0.0,0.0,0.0,0.0,0.0,0.0,0.0,0.0,0.0,0.0,0.0,0.0,0.0,0.0,4.8133,4.8779,4.9301,4.9897,5.001,5.001,5.001,5.001,5.0037,5.0064,5.0599,5.1265,5.1845,5.2436,5.3332,5.4481,5.451,5.4846,5.5379,5.5379,5.4998,5.4497,5.4497,5.4166,5.3592,5.3592,5.3105,5.2588,5.2588,5.2094,5.1596,5.1596,5.1596,5.1596,5.1596,5.1596,5.1471,5.0461,5.0842,5.1346,5.0461,5.0842,5.1596,5.1622,5.2067,5.2668,5.3295,5.3844,5.4367,5.4968,5.5099,5.4916,5.4314,5.4707,5.4916,5.4314,5.4707,5.5099,5.5099,5.5099,5.5099,5.5099,5.5099,5.5099,5.5099,5.4106,5.3402,5.3265,5.2278,5.1163,5.0056,4.8957,4.84,4.84,4.84,4.6847,4.3491,4.3339,4.1674,3.864,3.864,3.864,3.864,3.864,3.864,3.864,3.864,3.749,3.5672,3.405,3.2263,3.0513,2.9166,2.8631,2.8684,2.8965,2.9072,2.9085,0.0,0.0,0.0,0.0,0.0,0.0,0.0,0.0,0.0,0.0,0.0,0.0,0.0,0.0,0.0,0.0,0.0,0.0,4.8169,4.8762,4.9213,4.9328,4.9783,5.001,5.001,5.001,5.0227,5.0661,5.0775,5.1189,5.1789,5.2342,5.2842,5.317,5.3636,5.3937,5.4074,5.4074,5.3954,5.3833,5.3833,5.3713,5.3592,5.3105,5.2738,5.2465,5.197,5.1721,5.1596,5.1596,5.1596,5.1596,5.1596,5.1596,5.1596,5.1346,5.1346,5.1596,5.1346,5.1346,5.1701,5.2145,5.238,5.2746,5.3766,5.4105,5.4367,5.4968,5.5099,5.4916,5.4314,5.4707,5.4916,5.4314,5.4707,5.5099,5.5099,5.5099,5.5099,5.5099,5.5099,5.5099,5.5099,5.4106,5.3103,5.2139,5.1163,5.0056,4.8957,4.8523,4.84,4.84,4.84,4.6847,4.3491,4.1074,3.9411,3.864,3.864,3.864,3.864,3.864,3.864,3.864,3.864,3.6832,3.405,3.356,3.1753,2.9166,2.8749,2.8871,2.9272,2.9339,2.9513,2.97,0.0,0.0,0.0,0.0,0.0,0.0,0.0,0.0,0.0,0.0,0.0,0.0,0.0,0.0,0.0,0.0,0.0,0.0,0.0,4.8521,4.8753,4.8663,4.8983,4.9213,4.9213,4.9213,4.9507,5.0094,5.0327,5.0874,5.1707,5.2269,5.2805,5.3103,5.3429,5.3592,5.3592,5.3592,5.347,0.0,0.0,5.2956,5.2711,5.2342,5.2218,5.2094,5.1721,5.1846,5.197,5.1721,5.197,5.2342,5.1846,5.1846,5.2094,5.2094,5.1846,5.1721,5.197,5.1846,5.1727,5.2354,5.2694,5.3112,5.4001,5.4419,5.4707,5.502,5.4889,5.4524,5.3949,5.4314,5.4524,5.3949,5.455,5.5099,5.5099,5.5099,5.5099,5.5099,5.5099,5.5099,5.5099,5.3674,5.2416,5.1722,5.0765,4.9652,4.8377,4.84,4.84,4.84,4.7626,4.5788,4.2443,3.9864,3.864,3.864,3.864,3.864,3.864,3.864,3.864,3.864,3.864,3.6672,3.3413,3.3556,3.1598,2.8631,2.8898,2.9192,2.9499,2.9633,2.978,2.9913,0.0,0.0,0.0,0.0,0.0,0.0,0.0,0.0,0.0,0.0,0.0,0.0,0.0,0.0,0.0,0.0,0.0,0.0,0.0,0.0,0.0,0.0,4.8172,4.8172,4.8172,4.8172,4.8512,4.9191,4.9758,5.0578,5.1721,5.2178,5.2836,5.3349,5.3349,5.3349,5.3349,5.3349,5.2983,5.2465,5.2465,5.2094,5.1596,0.0,5.1596,5.1596,5.1596,5.197,5.2465,5.197,5.2588,5.3349,5.2094,5.2094,5.2588,5.2711,5.2218,5.1846,5.2465,5.2271,5.1983,5.2459,5.306,5.3635,5.421,5.4733,5.5072,5.4994,5.455,5.4001,5.34,5.3739,5.3949,5.3478,5.4288,5.502,5.5099,5.5099,5.5099,5.5099,5.5099,5.5099,5.5099,5.2991,5.1722,5.1722,5.0624,4.9509,4.84,4.84,4.8232,4.8086,4.6381,4.4117,4.1113,3.9411,3.864,3.864,3.864,3.864,3.864,3.864,3.864,3.864,3.864,3.6707,3.3476,3.3778,3.1806,2.8778,2.9285,2.9513,2.9566,2.982,2.9913,2.9913,0.0,0.0,0.0,0.0,0.0,0.0,0.0,0.0,0.0,0.0,0.0,0.0,0.0,0.0,0.0,0.0,0.0,0.0,0.0,0.0,0.0,0.0,4.8172,4.8172,4.8172,4.8172,4.8695,4.974,4.9861,5.0437,5.1564,5.1688,5.1865,5.197,5.197,5.197,5.197,5.197,5.1846,5.1721,5.1721,5.1721,5.1596,5.1596,0.0,0.0,5.1596,5.197,5.2588,5.2465,5.2983,5.347,5.2711,5.2465,5.2711,5.3227,5.2956,5.2465,5.2588,5.2837,5.3118,5.3214,5.3661,5.421,5.4811,5.502,5.4968,5.4471,5.4262,5.3896,5.2851,5.3138,5.3504,5.3426,5.3949,5.4524,5.502,5.5099,5.5099,5.5099,5.5099,5.5099,5.5099,5.2991,5.1722,5.1722,4.9771,4.8667,4.84,4.84,4.7772,4.6381,4.472,4.3055,4.1113,3.9411,3.864,3.864,3.864,3.864,3.864,3.864,3.864,3.864,3.864,3.6685,3.366,3.3707,3.2074,2.9339,2.9446,2.9633,2.9847,2.99,2.9913,2.9913,0.0,0.0,0.0,0.0,0.0,0.0,0.0,0.0,0.0,0.0,0.0,0.0,0.0,0.0,0.0,0.0,0.0,0.0,0.0,0.0,0.0,0.0,0.0,0.0,4.8172,4.8486,4.9061,4.9897,0.0,5.0786,5.1596,5.1596,5.1596,5.1596,5.1596,5.1596,5.1596,5.1596,5.1596,5.1596,5.1596,5.1596,5.1596,0.0,0.0,0.0,5.1596,5.197,5.2588,5.2218,5.2956,5.3926,5.3322,5.3322,5.3658,5.3926,5.3565,5.3227,5.3565,5.3536,5.3528,5.3858,5.4052,5.4367,5.4968,5.5099,5.4942,5.4314,5.3975,5.353,5.2668,5.272,5.3034,5.3347,5.3844,5.4419,5.502,5.5099,5.5099,5.5099,5.5099,5.4831,5.4241,5.2692,5.1443,5.0882,4.9365,4.84,4.84,4.84,4.731,4.4699,4.3945,4.2289,3.9883,3.8956,3.864,3.864,3.864,3.864,3.864,3.864,3.864,3.8481,3.7649,3.5893,3.3755,3.2938,3.1454,2.9499,2.9646,2.9793,2.9913,2.9913,2.9913,2.9913,0.0,0.0,0.0,0.0,0.0,0.0,0.0,0.0,0.0,0.0,0.0,0.0,0.0,0.0,0.0,0.0,0.0,0.0,0.0,0.0,0.0,0.0,0.0,0.0,4.8172,0.0,0.0,4.9897,5.0498,0.0,0.0,0.0,0.0,0.0,5.1596,5.1596,5.1596,5.1596,5.1596,0.0,0.0,5.1596,5.1596,0.0,0.0,0.0,0.0,5.197,5.2342,5.197,5.2807,5.4019,5.3443,5.3779,5.4497,5.4497,5.4166,5.3954,5.4378,5.4324,5.4164,5.4213,5.4493,5.4656,5.4994,5.4994,5.4733,5.4158,5.3583,5.3008,5.2406,5.2406,5.2694,5.3295,5.3844,5.4419,5.502,5.5099,5.5099,5.5099,5.5099,5.4671,5.3538,5.2416,5.1303,5.0198,4.9078,4.84,4.84,4.8086,4.6551,4.3642,4.3186,4.1519,3.864,3.864,3.864,3.864,3.864,3.864,3.864,3.864,3.864,3.8481,3.6759,3.5342,3.3881,3.2379,3.0845,2.9606,2.982,2.9913,2.9913,2.9913,2.9913,2.9913,0.0,0.0,0.0,0.0,0.0,0.0,0.0,0.0,0.0,0.0,0.0,0.0,0.0,0.0,0.0,0.0,0.0,0.0,0.0,0.0,0.0,0.0,0.0,0.0,0.0,0.0,0.0,4.9897,5.0498,0.0,0.0,0.0,0.0,0.0,0.0,5.1596,5.1596,5.1596,0.0,0.0,0.0,0.0,0.0,0.0,0.0,0.0,0.0,5.1596,5.1721,5.2342,5.2588,5.2711,5.2262,5.3241,5.4497,5.4497,5.4497,5.4378,5.4497,5.5232,5.5771,5.4574,5.507,5.5789,5.5232,5.468,5.4131,5.3583,5.2981,5.2406,5.1779,5.2119,5.2694,5.3295,5.3844,5.4419,5.502,5.5099,5.5099,5.5099,5.5099,5.4671,5.3538,5.2416,5.1303,5.0198,4.9078,4.84,4.84,4.6994,4.5319,4.3491,4.2156,4.049,3.864,3.864,3.864,3.864,3.864,3.864,3.864,3.864,3.864,3.8499,3.7055,3.5576,3.4076,3.2722,3.1155,2.9887,2.99,2.9913,2.9913,2.9913,2.9913,2.9913,0.0,0.0,0.0,0.0,0.0,0.0,0.0,0.0,0.0,0.0,0.0,0.0,0.0,0.0,0.0,0.0,0.0,0.0,0.0,0.0,0.0,0.0,0.0,0.0,0.0,0.0,4.9688,4.9897,5.0812,0.0,0.0,0.0,0.0,0.0,0.0,5.1596,5.1596,5.1596,0.0,0.0,0.0,0.0,0.0,0.0,0.0,0.0,0.0,0.0,5.1596,5.197,5.1819,5.1544,5.1042,5.1367,5.2209,5.3335,5.3992,5.4616,5.4998,5.565,5.6224,5.5605,5.574,5.5894,5.5287,5.463,5.3949,5.3034,5.2668,5.2328,5.1701,5.2093,5.2694,5.3295,5.3844,5.4419,5.502,5.5099,5.5099,5.5099,5.4537,5.3674,5.2554,5.1443,5.034,4.9221,4.8667,4.84,4.84,4.6847,4.517,4.3491,4.2002,4.0334,3.864,3.864,3.864,3.864,3.864,3.864,3.864,3.864,3.864,3.8499,3.5916,3.4612,3.4123,3.1584,3.0342,2.9913,2.9913,2.9913,2.9913,2.9913,2.9913,2.9913,0.0,0.0,0.0,0.0,0.0,0.0,0.0,0.0,0.0,0.0,0.0,0.0,0.0,0.0,0.0,0.0,0.0,0.0,0.0,0.0,0.0,0.0,0.0,0.0,0.0,0.0,4.9897,4.9897,5.1047,5.1596,0.0,0.0,5.1596,5.1596,0.0,0.0,0.0,0.0,0.0,0.0,0.0,0.0,0.0,0.0,0.0,0.0,0.0,0.0,0.0,0.0,0.0,5.0537,4.954,4.949,5.0206,5.1838,5.3241,5.4231,5.4998,5.5918,5.6593,5.6347,5.6378,5.6206,5.5488,5.4601,5.3687,5.2694,5.2354,5.2093,5.1675,5.2223,5.2903,5.3321,5.4001,5.4602,5.5046,5.5099,5.5099,5.5099,5.4376,5.3265,5.1861,5.0482,4.9221,4.8377,4.84,4.84,4.84,4.6381,4.4699,4.3491,4.1384,3.9707,3.864,3.864,3.864,3.864,3.864,3.864,3.864,3.864,3.8713,3.8682,3.541,3.4103,3.4281,3.1043,2.9726,2.9913,2.9913,2.9913,2.9913,2.9913,2.9913,2.9913,0.0,0.0,0.0,0.0,0.0,0.0,0.0,0.0,0.0,0.0,0.0,0.0,0.0,0.0,0.0,0.0,0.0,0.0,0.0,0.0,0.0,0.0,0.0,0.0,0.0,0.0,4.9897,4.9897,5.1047,5.1596,5.1596,5.1596,5.1596,5.1596,0.0,0.0,0.0,0.0,0.0,0.0,0.0,0.0,0.0,0.0,0.0,0.0,0.0,0.0,0.0,0.0,0.0,0.0,0.0,4.7714,4.8893,5.0511,5.2015,5.3241,5.4259,5.5918,5.7257,5.647,5.6757,5.6726,5.5462,5.4285,5.3243,5.2616,5.2014,5.1596,5.1596,5.2589,5.34,5.34,5.4341,5.5099,5.5099,5.5099,5.5099,5.5099,5.5099,5.4241,5.1861,4.9652,4.84,4.84,4.84,4.84,4.84,4.5319,4.3491,4.3491,4.0315,3.864,3.864,3.864,3.864,3.864,3.864,3.864,3.864,3.864,3.886,3.9084,3.5792,3.4466,3.4658,3.1352,2.9913,2.9913,2.9913,2.9913,2.9913,2.9913,2.9913,2.9913,0.0,0.0,0.0,0.0,0.0,0.0,0.0,0.0,0.0,0.0,0.0,0.0,0.0,0.0,0.0,0.0,0.0,0.0,0.0,0.0,0.0,0.0,0.0,0.0,0.0,4.9296,4.9897,4.9897,5.1047,5.1596,5.1596,5.1596,5.1596,5.1596,5.1596,5.1596,0.0,0.0,0.0,0.0,0.0,0.0,5.1596,0.0,0.0,0.0,0.0,0.0,0.0,0.0,0.0,0.0,0.0,0.0,0.0,4.7821,4.9361,5.0739,5.1439,5.3015,5.4386,5.4539,5.4995,5.5136,5.4821,5.3678,5.2616,5.2014,5.1727,5.1596,5.1596,5.2589,5.34,5.34,5.4367,5.5099,5.5099,5.5099,5.4805,5.3971,5.2579,5.1047,4.9652,4.8812,4.84,4.84,4.84,4.84,4.84,4.5319,4.3491,4.3491,4.0315,3.864,3.864,3.864,3.864,3.864,3.864,3.864,3.864,3.864,3.886,3.9084,3.5792,3.4466,3.4658,3.1366,2.9913,2.9913,2.9913,2.9913,2.9913,2.9913,2.9913,2.9913,0.0,0.0,0.0,0.0,0.0,0.0,0.0,0.0,0.0,0.0,0.0,0.0,0.0,0.0,0.0,0.0,0.0,0.0,0.0,0.0,0.0,0.0,0.0,0.0,4.8172,4.9296,4.9897,4.9897,5.1047,5.1596,5.1596,5.1596,5.1596,5.1596,5.1596,5.1596,0.0,0.0,0.0,0.0,0.0,0.0,5.1596,0.0,0.0,0.0,0.0,0.0,0.0,0.0,0.0,0.0,0.0,0.0,0.0,0.0,4.7051,4.8191,4.9696,5.1279,5.2746,5.3651,5.3968,5.41,5.4299,5.3414,5.2328,5.1727,5.1596,5.1675,5.1884,5.2746,5.3452,5.3661,5.4497,5.5099,5.5099,5.5099,5.4671,5.3538,5.1443,4.9771,4.9078,4.8667,4.84,4.84,4.84,4.84,4.84,4.5319,4.3491,4.3491,4.0315,3.864,3.864,3.864,3.864,3.864,3.864,3.864,3.864,3.864,3.8453,3.8309,3.5524,3.4204,0.0,3.1054,2.9913,2.9913,2.9913,2.9913,2.9913,2.9913,2.9913,2.9734,0.0,0.0,0.0,0.0,0.0,0.0,0.0,0.0,0.0,0.0,0.0,0.0,0.0,0.0,0.0,0.0,0.0,0.0,0.0,0.0,0.0,0.0,0.0,0.0,4.8172,4.9296,4.9897,4.9897,5.1047,5.1596,5.1596,5.1596,5.1596,5.1596,5.1596,5.1596,0.0,0.0,0.0,0.0,0.0,0.0,0.0,0.0,0.0,0.0,0.0,0.0,0.0,0.0,0.0,0.0,0.0,0.0,0.0,0.0,0.0,0.0,0.0,5.0634,5.2205,5.3293,5.3453,5.3635,5.4171,5.3361,0.0,5.1727,5.1622,5.1831,5.2406,5.3008,5.3609,5.4131,5.4707,5.5099,5.5099,5.4965,5.4537,5.3538,5.1443,5.0056,5.0056,4.9078,4.84,4.84,4.84,4.84,4.84,4.5319,4.3491,4.3491,4.0315,3.864,3.864,3.864,3.864,3.864,3.864,3.864,3.864,3.8676,3.8114,3.6992,3.5135,3.3659,3.2514,3.0602,2.9913,2.9913,2.9913,2.9913,2.9913,2.9913,2.9913,2.9554,0.0,0.0,0.0,0.0,0.0,0.0,0.0,0.0,0.0,0.0,0.0,0.0,0.0,0.0,0.0,0.0,0.0,0.0,0.0,0.0,0.0,0.0,0.0,0.0,4.8172,4.9296,4.9897,4.9897,5.1047,5.1596,5.1596,5.1596,5.1596,5.1596,5.1596,5.1596,0.0,0.0,0.0,0.0,0.0,0.0,0.0,0.0,0.0,0.0,5.1596,5.1094,0.0,0.0,0.0,0.0,0.0,0.0,0.0,0.0,4.537,0.0,4.7184,0.0,5.0124,5.0388,5.1586,5.2851,0.0,5.235,5.1779,5.1622,5.1962,5.2328,5.2459,5.3321,5.4053,5.4184,5.4707,5.5099,5.5099,5.3563,5.2717,5.3376,5.0624,4.9078,5.0056,4.9078,4.84,4.84,4.84,4.84,4.84,4.5319,4.3491,4.3491,4.0315,3.864,3.864,3.864,3.864,3.864,3.864,3.864,3.8658,3.8951,3.8365,3.6992,3.5411,3.4062,3.2514,3.0602,2.9913,2.9913,2.9913,2.9913,2.9913,2.9913,2.9913,2.9554,0.0,0.0,0.0,0.0,0.0,0.0,0.0,0.0,0.0,0.0,0.0,0.0,0.0,0.0,0.0,0.0,0.0,0.0,0.0,0.0,0.0,0.0,0.0,4.8172,4.8172,4.9296,4.9897,4.9897,5.1047,5.1596,5.1596,5.1596,5.1596,5.1596,5.1596,5.1596,5.1596,5.1596,0.0,0.0,5.1596,0.0,0.0,0.0,0.0,0.0,5.1596,5.122,0.0,4.9023,4.8109,4.7316,0.0,0.0,0.0,0.0,4.5754,0.0,4.6808,4.77,4.8913,4.9843,5.089,5.1846,5.2358,5.2014,5.1675,5.1962,5.2276,5.2668,5.3191,5.4026,5.4682,5.4576,5.5155,5.5498,5.5099,5.3538,5.2554,5.2554,5.0624,4.9221,4.9365,4.8812,4.84,4.84,4.84,4.84,4.84,4.5319,4.3491,4.3491,4.0315,3.864,3.864,3.864,3.864,3.864,3.864,3.864,3.8658,3.9043,3.7947,3.5807,3.5168,3.3618,3.1301,3.0258,2.9913,2.9913,2.9913,2.9913,2.9913,2.9913,2.9913,2.9554,0.0,0.0,0.0,0.0,0.0,0.0,0.0,0.0,0.0,0.0,0.0,0.0,0.0,0.0,0.0,0.0,0.0,0.0,0.0,0.0,0.0,0.0,4.8172,4.8224,4.8329,4.9348,4.9949,5.0028,5.1073,5.1596,5.1596,5.1596,5.1596,5.1596,5.1596,5.1596,5.1596,5.1596,5.1596,5.1596,5.1596,0.0,0.0,0.0,0.0,0.0,0.0,0.0,0.0,4.9023,4.824,4.7977,4.6001,0.0,0.0,0.0,0.0,0.0,4.7316,4.7834,4.8755,5.0398,5.1046,5.1407,5.2126,5.204,5.1884,5.238,5.2642,5.306,5.4158,5.4786,5.5258,5.5286,5.5604,5.5736,5.5232,5.3971,5.2829,5.2,5.0765,4.9509,4.8812,4.8523,4.84,4.84,4.84,4.8232,4.8086,4.517,4.3339,4.3186,4.0158,3.864,3.864,3.864,3.864,3.864,3.864,3.864,3.8658,3.9116,3.7491,3.4292,3.4703,3.2981,2.9913,2.9913,2.9913,2.9913,2.9913,2.9913,2.9913,2.9913,2.9734,2.8822,0.0,0.0,0.0,0.0,0.0,0.0,0.0,0.0,0.0,0.0,0.0,0.0,0.0,0.0,0.0,0.0,0.0,0.0,0.0,0.0,0.0,4.8172,4.8172,4.8433,4.893,4.9557,5.0132,5.0655,5.1282,5.1596,5.1596,5.1596,5.1596,5.1596,5.1596,5.1596,5.1596,5.1596,5.1596,5.1596,5.1596,0.0,0.0,0.0,0.0,0.0,0.0,0.0,0.0,4.7846,4.7208,4.6941,4.5754,0.0,0.0,0.0,0.0,0.0,4.9411,5.0459,5.1151,5.0435,5.1589,5.2724,5.1962,5.2067,5.238,5.2485,5.3269,5.4105,5.4914,5.5129,5.5234,5.5842,5.5604,5.5232,5.5099,5.3265,5.2278,5.3103,5.0482,4.8957,4.9771,4.8957,4.84,4.84,4.84,4.7772,4.6381,4.4548,4.2902,4.1559,3.9569,3.864,3.864,3.864,3.864,3.864,3.864,3.864,3.8676,3.941,3.7752,3.4308,3.5129,3.335,2.9913,2.9913,2.9913,2.9913,2.9913,2.9913,2.9913,2.9913,2.8809,2.6785,0.0,0.0,0.0,0.0,0.0,0.0,0.0,0.0,0.0,0.0,0.0,0.0,0.0,0.0,0.0,0.0,0.0,0.0,0.0,0.0,4.8172,4.8172,4.8486,4.8799,4.9087,4.961,5.0185,5.0786,5.1335,5.1596,5.1596,5.1596,5.1596,5.1596,5.1596,5.1596,5.1596,5.1596,5.1596,5.1596,0.0,0.0,0.0,0.0,0.0,0.0,0.0,0.0,0.0,0.0,4.6941,4.6674,4.5754,0.0,0.0,0.0,0.0,0.0,4.995,5.1588,5.3028,5.2197,5.3203,5.4367,5.3779,5.3886,5.4054,5.3964,5.4337,5.4916,5.5522,5.5918,5.6236,5.6628,5.5736,5.4805,5.4241,5.3265,5.2416,5.1722,5.0198,4.9221,4.9221,4.8667,4.84,4.84,4.84,4.7626,4.5937,4.4398,4.2749,4.1113,3.9411,3.864,3.864,3.864,3.864,3.864,3.864,3.875,3.8988,3.9575,3.7927,3.4593,0.0,3.3395,2.9913,2.9913,2.9913,2.9913,2.9913,2.9913,2.9734,2.8809,2.716,2.4967,0.0,0.0,0.0,0.0,0.0,0.0,0.0,0.0,0.0,0.0,0.0,0.0,0.0,0.0,0.0,0.0,0.0,0.0,0.0,4.8653,4.8848,4.8848,4.9429,4.9627,4.927,4.9819,5.0394,5.0969,5.1387,5.1596,5.1596,5.1596,5.1596,5.1596,5.1596,5.1596,5.1596,5.1596,5.1596,5.1596,0.0,0.0,0.0,0.0,0.0,0.0,0.0,0.0,0.0,0.0,0.0,0.0,0.0,0.0,0.0,4.7581,4.9023,5.0461,5.0461,5.2433,5.4467,5.3753,5.4423,5.5355,5.5355,5.5355,5.5393,5.5478,5.5564,5.5805,5.6287,5.6628,5.6758,5.6628,5.5736,5.4671,5.3538,5.3103,5.2278,5.034,4.9914,4.9365,4.8523,4.84,4.84,4.84,4.8086,4.7163,4.5468,4.3794,4.2136,4.0646,3.9254,3.864,3.864,3.864,3.864,3.864,3.864,3.886,3.9245,3.9648,3.8031,3.5002,3.5335,3.3395,2.9913,2.9913,2.9913,2.9913,2.9913,2.9913,2.9554,2.716,2.5332,2.3687,0.0,0.0,0.0,0.0,0.0,0.0,0.0,0.0,0.0,0.0,0.0,0.0,0.0,0.0,0.0,0.0,0.0,0.0,0.0,5.004,5.0709,5.0709,5.1305,5.1159,4.9845,5.042,5.0995,5.1544,5.157,5.1596,5.1596,5.1596,5.1596,5.1596,5.1596,5.1596,5.1596,5.1596,5.1596,5.1596,5.1596,0.0,0.0,0.0,0.0,0.0,0.0,0.0,0.0,0.0,0.0,0.0,0.0,0.0,4.8632,4.954,5.0588,5.1471,5.1471,5.3316,5.497,5.3851,5.4423,5.5355,5.5355,5.5355,5.5545,5.6115,5.6557,5.6963,5.699,5.6497,5.6,5.5365,5.5099,5.4671,5.3538,5.2554,5.1443,5.0198,4.9221,4.8546,4.84,4.84,4.84,4.84,4.6994,4.5319,4.3794,4.2156,4.049,3.8798,3.864,3.864,3.864,3.864,3.864,3.864,3.864,3.886,3.9245,3.9648,3.8031,3.5002,3.5335,3.3395,2.9913,2.9913,2.9913,2.9913,2.9913,2.9913,2.9362,2.5696,2.4054,2.3504,0.0,0.0,0.0,0.0,0.0,0.0,0.0,0.0,0.0,0.0,0.0,0.0,0.0,0.0,0.0,0.0,0.0,0.0,0.0,5.0655,5.1068,5.1448,5.2045,5.2106,5.1603,5.1508,5.1663,5.2218,5.2218,5.2218,5.2218,5.1846,5.1846,5.2218,5.1846,5.1596,5.1596,5.1596,5.1596,5.1596,5.1596,5.1596,0.0,0.0,0.0,0.0,0.0,0.0,0.0,0.0,4.7581,4.7846,4.7846,4.8632,4.954,4.995,5.1094,5.2297,5.2668,5.4359,5.6005,5.5893,5.6514,5.7052,5.6679,5.7301,5.8103,5.8327,5.8453,5.8368,5.7248,5.6888,5.6497,5.5868,5.5365,5.4402,5.2554,5.2,5.1022,4.9221,4.8667,4.84,4.84,4.84,4.84,4.84,4.6847,4.517,4.3642,4.2002,4.0334,3.864,3.864,3.864,3.864,3.864,3.864,3.864,3.864,3.8988,3.9612,3.8594,3.7148,3.5303,3.4211,3.2351,2.9913,2.9913,2.9913,2.9913,2.9913,2.9913,2.9362,2.5514,2.4054,2.3504,0.0,0.0,0.0,0.0,0.0,0.0,0.0,0.0,0.0,0.0,0.0,0.0,0.0,0.0,0.0,0.0,0.0,0.0,5.1495,5.1829,5.2218,5.2773,5.3233,5.3417,5.3298,5.2821,5.2675,5.2983,5.2983,5.2983,5.2861,5.2218,5.2094,5.2588,5.1846,5.1596,5.1596,5.1846,5.197,5.197,5.197,5.197,0.0,0.0,0.0,0.0,0.0,0.0,0.0,0.0,4.8502,4.8502,4.8893,4.954,5.0206,5.0689,5.1721,5.2695,5.3342,5.5101,5.6743,5.65,5.7617,5.8502,5.7908,5.8531,5.9267,5.9436,5.9273,5.8774,5.7661,5.7146,5.6628,5.6105,5.5472,5.4267,5.2,5.1722,5.0906,4.8667,4.84,4.84,4.84,4.84,4.84,4.84,4.6404,4.4699,4.3491,4.1539,3.9726,3.864,3.864,3.864,3.864,3.864,3.864,3.864,3.8768,3.919,3.985,3.811,3.6642,3.5478,3.3571,3.1642,2.9913,2.9913,2.9913,2.9913,2.9913,2.9541,2.8629,2.515,2.3687,2.2586,0.0,0.0,0.0,0.0,0.0,0.0,0.0,0.0,0.0,0.0,0.0,0.0,0.0,0.0,0.0,0.0,0.0,0.0,5.2816,5.3915,5.4597,5.4597,5.5187,5.5261,5.4497,5.4497,5.4166,5.3592,5.3592,5.3592,5.3592,5.2956,5.2588,5.2588,5.197,5.1596,5.1721,5.2342,5.2588,5.2588,5.2588,5.2588,5.2465,0.0,0.0,0.0,0.0,0.0,0.0,0.0,4.8502,4.8763,4.9797,5.0078,5.0461,5.2094,5.2588,5.2711,5.3498,5.5622,5.7218,5.5114,5.7037,5.9447,5.8795,5.8494,5.8474,5.9093,5.8704,5.8198,5.8198,5.7044,5.6132,5.6132,5.5472,5.4267,5.2,5.1722,5.0906,4.8667,4.84,4.84,4.84,4.84,4.8377,4.84,4.5319,4.3491,4.3491,4.0315,3.864,3.864,3.864,3.864,3.864,3.864,3.864,3.864,3.9043,3.9447,3.985,3.8373,3.6875,3.532,3.3571,3.1657,2.9913,2.9913,2.9913,2.9913,2.9913,2.8629,2.6785,2.4785,2.277,2.0751,0.0,0.0,0.0,0.0,0.0,0.0,0.0,0.0,0.0,0.0,0.0,0.0,0.0,0.0,0.0,0.0,0.0,0.0,5.403,5.4369,5.4793,5.5215,5.5412,5.5379,5.5261,5.5261,5.4671,5.3592,5.4047,5.4286,5.4286,5.3565,5.3565,5.3899,5.3322,5.2983,5.2983,5.2738,5.2588,5.2588,5.2094,5.1846,5.1846,0.0,0.0,0.0,0.0,0.0,0.0,0.0,0.0,0.0,5.1596,5.1596,5.1346,5.2342,5.2956,5.3754,5.6001,5.7013,5.7733,5.8532,5.9002,5.9273,5.9076,5.97,6.0336,6.1019,6.0502,5.955,5.8451,5.7816,5.7275,5.6263,5.6,5.4887,5.2139,5.1722,5.0906,4.8667,4.84,4.84,4.84,4.84,4.7918,4.6699,4.472,4.3055,4.1848,3.9707,3.864,3.864,3.864,3.864,3.864,3.864,3.864,3.8658,3.9336,3.9722,3.985,3.7031,3.5677,3.532,3.2174,3.0437,2.9913,2.9913,2.9913,2.9913,2.9913,2.8629,2.6785,2.4785,2.277,2.0751,0.0,0.0,0.0,0.0,0.0,0.0,0.0,0.0,0.0,0.0,5.2377,5.2686,0.0,0.0,0.0,0.0,0.0,0.0,5.4906,5.4962,5.5102,5.5468,5.5496,5.5496,5.5496,5.5496,5.5144,5.4314,5.4762,5.488,5.488,5.4286,5.4166,5.4497,5.3833,5.3592,5.3592,5.3443,5.3322,5.3322,5.2929,5.2807,5.2685,0.0,0.0,0.0,0.0,0.0,0.0,0.0,0.0,0.0,5.2465,5.2342,5.2218,5.3078,5.3685,5.4451,5.6339,5.7644,5.8688,5.9702,6.0129,6.0259,5.9797,6.0014,6.0445,6.1316,6.0745,5.9797,5.8829,5.8198,5.7532,5.6628,5.5683,5.4216,5.2,5.1303,5.034,4.8667,4.84,4.84,4.84,4.84,4.7772,4.6085,4.4398,4.2749,4.1249,3.9569,3.864,3.864,3.864,3.864,3.864,3.864,3.8731,3.8878,3.9538,3.9923,4.0107,3.6741,3.5287,3.5304,3.1479,2.9913,2.9913,2.9913,2.9913,2.9913,2.9913,2.8256,2.5696,2.4419,2.2218,1.9834,0.0,0.0,0.0,0.0,0.0,0.0,0.0,0.0,0.0,0.0,5.3304,5.3697,0.0,0.0,0.0,0.0,0.0,0.0,0.0,5.5496,5.5496,5.5496,5.5496,5.5496,5.5496,5.5496,5.5496,5.5496,5.5496,5.5496,5.5496,5.488,5.4616,5.4616,5.4047,5.3713,5.3833,5.4286,5.4497,5.4497,5.4378,5.4378,5.4378,5.3833,0.0,0.0,0.0,0.0,0.0,0.0,0.0,0.0,5.2711,5.2588,5.2834,5.4259,5.4616,5.488,5.5669,5.8032,5.9997,5.9277,6.0531,6.1673,6.0865,5.992,5.9454,6.0409,5.9797,5.9205,5.9205,5.8043,5.7146,5.7146,5.5127,5.3103,5.1861,5.0765,4.9652,4.8523,4.84,4.84,4.84,4.84,4.7626,4.5766,4.4398,4.2749,4.0938,3.9411,3.864,3.864,3.864,3.864,3.864,3.864,3.8841,3.9245,3.9648,4.0052,4.0141,3.6887,3.5304,3.4797,3.1315,2.9913,2.9913,2.9913,2.9913,2.9913,2.9913,2.7534,2.4054,2.4054,2.1481,1.8176,0.0,0.0,0.0,0.0,0.0,0.0,0.0,0.0,0.0,0.0,0.0,0.0,0.0,0.0,0.0,0.0,0.0,0.0,0.0,5.5496,5.5496,5.5496,5.5496,5.5496,5.5496,5.5496,5.5496,5.5496,5.5496,5.5496,5.5496,5.5379,5.5261,5.5261,5.5144,5.5144,5.5026,5.4643,5.4497,5.4497,5.3926,5.3833,5.3833,5.3592,5.3592,0.0,0.0,0.0,0.0,0.0,0.0,0.0,5.3227,5.2983,5.2929,5.506,5.5644,5.6221,5.8755,5.9829,6.0314,6.1416,6.1204,6.1077,6.1555,6.0381,5.9454,6.0409,5.9797,5.9205,5.9205,5.8578,5.7788,5.7146,5.5499,5.3623,5.2,5.0765,4.9652,4.8523,4.84,4.84,4.84,4.84,4.7163,4.4247,4.3642,4.2289,3.9254,3.8798,3.864,3.864,3.864,3.864,3.864,3.864,3.8841,3.9245,3.9648,3.9375,3.8229,3.6371,3.3922,3.1137,3.0258,2.9913,2.9913,2.9913,2.9913,2.9913,2.9913,2.7534,2.4054,2.4054,2.1481,1.8176,0.0,0.0,0.0,0.0,0.0,0.0,0.0,0.0,0.0,0.0,0.0,0.0,0.0,0.0,0.0,0.0,0.0,0.0,0.0,0.0,5.5496,5.5496,5.5496,5.5496,5.5496,5.5496,5.5496,5.5496,5.5496,5.5496,5.5496,5.5496,5.5496,5.5496,5.5496,5.5496,5.5496,5.5116,5.4998,5.4998,5.4671,5.4552,5.4552,5.4552,5.4552,5.4433,5.4047,0.0,0.0,0.0,0.0,0.0,0.0,0.0,5.3779,5.5323,5.602,5.6652,5.8326,5.9681,6.1111,6.2551,6.2112,6.1316,6.1316,6.0259,5.9329,5.9797,5.9578,5.9205,5.9205,5.8325,5.7532,5.7146,5.4835,5.2804,5.1861,5.034,4.9078,4.8523,4.84,4.84,4.84,4.84,4.7016,4.3794,4.3491,4.2136,3.8798,3.864,3.864,3.864,3.864,3.864,3.864,3.864,3.8933,3.952,3.974,3.8784,3.6599,3.4878,3.2528,2.9913,2.9913,2.9913,2.9913,2.9913,2.9913,2.9734,2.8809,2.6616,2.3871,2.2954,2.0751,1.8184,0.0,0.0,0.0,0.0,0.0,0.0,0.0,0.0,0.0,0.0,0.0,0.0,0.0,0.0,0.0,0.0,0.0,0.0,0.0,0.0,0.0,5.5496,5.5496,5.5496,5.5496,5.5496,5.5496,5.5496,5.5496,5.5496,5.5496,5.5496,5.5496,5.5496,5.5496,5.5496,5.5496,5.5496,5.5496,5.5496,5.5496,5.5496,5.5496,5.5496,5.5496,5.5496,5.5379,5.5379,5.5379,5.4643,0.0,0.0,0.0,0.0,5.4852,5.5701,5.6509,5.7274,5.7499,5.9555,6.1982,6.3086,6.2698,6.1762,6.0865,5.992,5.9205,5.9205,5.9205,5.9205,5.9205,5.8043,5.7146,5.7146,5.4029,5.1722,5.1722,4.9795,4.84,4.84,4.84,4.84,4.84,4.8086,4.6699,4.3794,4.3186,4.1828,3.8798,3.864,3.864,3.864,3.864,3.864,3.864,3.864,3.9043,3.985,3.9303,3.7824,3.5494,3.3219,3.1301,2.9913,2.9913,2.9913,2.9913,2.9913,2.9913,2.9734,2.7702,2.5696,2.3687,2.1665,1.9834,1.82,0.0,0.0,0.0,0.0,0.0,0.0,0.0,0.0,0.0,0.0,5.544,5.5496,0.0,0.0,0.0,0.0,0.0,0.0,0.0,0.0,0.0,5.5496,5.5496,5.5496,5.5496,5.5496,5.5496,5.5496,5.5496,5.5496,5.5496,5.5496,5.5496,5.5496,5.5496,5.5496,5.5496,5.5496,5.5496,5.5496,5.5496,5.5496,5.5496,5.5496,5.5496,5.5379,5.488,5.4998,5.5261,5.4074,5.4047,0.0,0.0,0.0,5.5992,5.7387,5.8305,5.8991,6.0031,6.1431,6.2778,6.3313,6.2698,6.1762,6.0865,5.992,5.9205,5.9205,5.9205,5.9205,5.9205,5.8043,5.7146,5.7146,5.4029,5.1722,5.1722,4.9795,4.84,4.84,4.84,4.84,4.84,4.7163,4.5468,4.3642,4.2156,4.0646,3.864,3.864,3.864,3.864,3.864,3.864,3.864,3.864,3.9043,3.9832,3.7284,3.5918,3.5304,3.1834,3.0093,2.9913,2.9913,2.9913,2.9913,2.9913,2.9913,2.9734,2.7702,2.5696,2.3687,2.1287,1.9454,1.82,0.0,0.0,0.0,0.0,0.0,0.0,0.0,0.0,0.0,0.0,0.0,5.5496,0.0,0.0,0.0,0.0,0.0,0.0,0.0,0.0,0.0,5.5496,5.5496,5.5496,5.5496,5.5496,5.5496,5.5496,5.5496,5.5496,5.5496,5.5496,5.5496,5.5496,5.5496,5.5496,5.5496,5.5496,5.5496,5.5496,5.5496,5.5845,5.6279,5.6279,5.6279,5.6164,5.5905,5.602,5.6164,5.5556,5.5905,5.6566,5.6566,0.0,0.0,0.0,5.8664,5.9405,6.073,6.1523,6.2141,6.2747,6.1966,6.1077,6.0745,5.992,5.9205,5.9205,5.8955,5.8704,5.908,5.8043,5.6861,5.6313,5.3598,5.1443,5.0882,4.9365,4.84,4.84,4.84,4.8086,4.7163,4.6381,4.487,4.2309,4.1559,4.0334,3.864,3.864,3.864,3.864,3.864,3.864,3.864,3.864,3.8544,3.8318,3.6362,3.4972,3.3907,3.1137,2.9913,2.9913,2.9913,2.9913,2.9913,2.9913,2.9182,2.8076,2.606,2.4054,2.2034,1.9639,1.8541,1.8217,0.0,0.0,0.0,0.0,0.0,0.0,0.0,0.0,0.0,0.0,0.0,0.0,0.0,0.0,0.0,0.0,0.0,0.0,0.0,0.0,0.0,0.0,5.5496,5.5496,5.5496,5.5496,5.5496,5.5496,5.5496,5.5496,5.5496,5.5496,5.5496,5.5496,5.5496,5.5496,5.5496,5.5496,5.5496,5.5496,5.5729,5.6279,5.6822,5.7049,5.7162,5.7162,5.7162,5.7162,5.7162,5.7162,5.764,5.8195,5.8195,5.8305,0.0,0.0,0.0,5.968,6.1096,6.1399,6.1509,6.1988,6.1408,6.0663,6.0352,5.9702,5.9205,5.9205,5.8704,5.8325,5.8829,5.7505,5.6183,5.534,5.3053,5.1022,5.0198,4.9078,4.84,4.84,4.8086,4.731,4.6085,4.517,4.3663,4.1249,4.0646,3.9883,3.864,3.864,3.864,3.864,3.864,3.864,3.864,3.8841,3.8257,3.7159,3.602,3.4432,3.269,3.0781,2.9913,2.9913,2.9913,2.9913,2.9913,2.9913,2.8809,2.6785,2.4785,2.277,2.0751,1.8354,1.7835,1.829,0.0,0.0,0.0,0.0,0.0,0.0,0.0,0.0,0.0,0.0,0.0,0.0,5.5613,5.5496,5.5496,5.5496,5.5496,0.0,0.0,0.0,0.0,0.0,0.0,0.0,5.5496,5.5496,5.5496,5.5496,5.5496,5.5496,5.5496,5.5496,5.5496,5.5496,5.5496,5.5496,5.5496,5.5496,5.5496,5.5613,5.6394,5.6708,5.6936,5.7751,5.8085,5.8085,5.8085,5.8085,5.8085,5.8085,5.8195,5.8195,5.8195,5.8743,5.9469,0.0,0.0,0.0,6.1202,6.1416,6.1399,6.1075,6.1055,6.0677,5.9532,5.9205,5.9205,5.9205,5.8704,5.8198,5.8198,5.6156,5.4541,5.4407,5.209,5.0198,5.0056,4.9078,4.84,4.84,4.6994,4.5937,4.5915,4.3207,4.1249,4.1113,3.9569,3.864,3.864,3.864,3.864,3.864,3.864,3.864,3.864,3.9392,3.8958,3.7159,3.602,3.4432,3.269,3.0781,2.9913,2.9913,2.9913,2.9913,2.9913,2.9913,2.8809,2.6785,2.4785,2.277,2.0751,1.8354,1.7914,1.846,0.0,0.0,0.0,0.0,0.0,0.0,0.0,0.0,0.0,0.0,0.0,0.0,0.0,5.6394,5.6394,5.6394,5.5845,0.0,0.0,0.0,0.0,0.0,0.0,0.0,5.5496,5.5496,5.5496,5.5496,5.5496,5.5496,5.5496,5.5496,5.5496,5.5496,5.5496,5.5496,5.5496,5.5496,5.5845,5.6394,5.6708,5.7499,5.8605,5.8931,5.9039,5.9039,5.9039,5.9039,5.9039,5.9039,5.9392,5.9819,5.9819,6.0031,6.0241,6.0136,6.0272,6.0438,6.0471,5.9807,5.8972,5.887,5.8774,5.8494,5.8035,5.8675,5.908,5.8704,5.7944,5.7119,5.6025,5.5075,5.4138,5.3462,5.1558,4.9771,4.9078,4.8667,4.7941,4.6847,4.6233,4.502,4.3055,4.1713,4.0646,3.9569,3.8956,3.864,3.864,3.864,3.864,3.864,3.864,3.864,3.864,3.9447,3.8318,3.5287,3.5505,3.3922,3.0959,3.0272,2.9913,2.9913,2.9913,2.9913,2.9913,2.9913,2.8076,2.4967,2.4237,2.2034,1.9091,1.7803,1.7922,1.8476,0.0,0.0,0.0,0.0,0.0,0.0,0.0,0.0,5.9255,5.7499,0.0,0.0,0.0,0.0,5.6708,5.6394,5.5817,5.5496,5.5496,5.5496,0.0,0.0,0.0,0.0,5.5496,5.5299,5.5299,5.5496,5.5299,5.5299,5.5496,5.5496,5.5496,5.5496,5.5496,5.5496,5.5496,5.5496,5.6049,5.6822,5.7162,5.8166,5.9576,5.9819,5.9925,5.9925,5.9925,5.9925,5.9925,5.9925,6.0346,6.0794,6.0794,6.0794,6.0794,6.0586,6.0481,6.0272,5.9606,5.8682,5.7656,5.7165,5.6929,5.683,5.7273,5.7938,5.8578,5.8522,5.7788,5.6574,5.5075,5.4138,5.3189,5.2114,5.06,4.9221,4.8523,4.84,4.7772,4.6085,4.5468,4.4117,4.1404,4.0646,3.9883,3.864,3.864,3.864,3.864,3.864,3.864,3.864,3.864,3.864,3.864,3.878,3.7308,3.4277,3.4454,3.2881,2.9913,2.9913,2.9913,2.9913,2.9913,2.9913,2.9913,2.9182,2.6979,2.3871,2.3321,2.1121,1.8176,1.7803,1.7954,1.8558,0.0,0.0,0.0,0.0,0.0,0.0,0.0,0.0,6.0136,5.8415,0.0,0.0,0.0,0.0,0.0,5.5729,5.5613,5.5613,5.5613,5.5496,0.0,0.0,0.0,0.0,5.5496,5.4934,5.4906,5.5496,5.4906,5.4934,5.5496,5.5496,5.5496,5.5496,5.5496,5.5496,5.5496,5.5496,5.6049,5.6936,5.7863,5.8743,5.9576,6.0481,6.0794,6.0794,6.0794,6.0794,6.0794,6.0794,6.0794,6.0794,6.0794,6.0794,6.0794,6.0794,6.0586,6.0136,0.0,0.0,0.0,5.6086,5.5778,5.5992,5.6927,5.7231,5.7675,5.8815,5.8043,5.6731,5.5604,5.3326,5.1303,5.0198,4.9078,4.84,4.84,4.84,4.7772,4.6085,4.4398,4.2902,4.1249,3.9569,3.864,3.864,3.864,3.864,3.864,3.864,3.864,3.864,3.864,3.8658,3.8658,3.762,3.6142,3.4292,3.3255,3.1657,2.9913,2.9913,2.9913,2.9913,2.9913,2.9913,2.9734,2.7715,2.5878,2.3871,2.185,1.9834,1.8176,1.8184,1.8412,1.8728,0.0,0.0,0.0,0.0,0.0,0.0,6.0481,6.069,6.0377,0.0,0.0,0.0,5.9147,5.8931,5.8714,5.8356,5.7833,5.7416,5.7416,5.6851,5.648,5.648,5.5845,5.5496,5.5496,5.5327,5.5327,5.5496,5.5327,5.5327,5.5496,5.5496,5.5496,5.5496,5.5496,5.5845,5.6394,5.5729,5.6394,5.7863,5.8085,5.9069,6.0481,6.069,6.0794,6.0794,6.0794,6.0794,6.0794,6.0794,6.0794,6.0794,6.0794,6.0794,6.0794,6.0794,6.0586,6.0031,5.8654,0.0,0.0,0.0,0.0,0.0,5.506,5.5952,5.6668,5.6882,5.6052,5.4675,5.3078,5.1558,5.0198,4.9078,4.8667,4.84,4.84,4.84,4.7772,4.6085,4.4398,4.2902,4.1249,3.9569,3.864,3.864,3.864,3.864,3.864,3.864,3.864,3.864,3.864,3.8786,3.9061,3.7742,3.6275,3.4656,3.336,3.1657,2.9913,2.9913,2.9913,2.9913,2.9913,2.9182,2.7702,2.716,2.5878,2.3871,2.185,1.9834,1.8192,1.8322,1.8525,1.8552,0.0,0.0,0.0,0.0,0.0,0.0,6.0794,6.0794,6.0586,0.0,0.0,0.0,5.9576,5.9469,5.9362,5.8961,5.8525,5.8195,5.8195,5.7751,5.7387,5.7387,5.6509,5.6049,5.6049,5.5475,5.5243,5.5496,5.5243,5.5243,5.5496,5.5496,5.5729,5.6049,5.6049,5.6509,5.7387,5.6851,5.7416,5.8743,5.8743,5.9606,6.0794,6.0794,6.0794,6.0794,6.0794,6.0794,6.0794,6.0794,6.0794,6.0794,6.0794,6.0794,6.069,6.0,5.9789,5.9117,5.6933,5.5676,5.4651,5.3146,0.0,0.0,5.4539,5.5375,5.5988,5.644,5.5631,5.4273,5.2114,5.0882,4.9795,4.8523,4.84,4.84,4.84,4.84,4.7772,4.6085,4.4398,4.2902,4.1249,3.9569,3.864,3.864,3.864,3.864,3.864,3.864,3.864,3.864,3.864,3.8823,3.9226,3.6953,3.5635,3.4814,3.2544,3.0959,2.9913,2.9913,2.9913,2.9913,2.9913,2.8809,2.6966,2.606,2.4591,2.2586,2.0566,1.9276,1.82,1.8387,1.8566,1.8552,0.0,0.0,0.0,0.0,0.0,0.0,0.0,6.0794,6.0794,0.0,6.0794,6.0481,5.9713,5.9683,5.9362,5.8525,5.8525,5.8525,5.8525,5.8415,5.8305,5.8305,5.7387,5.6822,5.6936,5.5509,5.4962,5.5613,5.4962,5.4962,5.5496,5.5496,5.5933,5.6822,5.6822,5.7387,5.8305,5.8305,5.8852,5.9576,5.9576,6.0031,6.0794,6.0794,6.0794,6.0794,6.0794,6.0794,6.0794,6.0794,6.0794,6.0794,6.0794,6.0794,6.0555,5.9195,5.8624,5.7827,5.4948,5.4029,5.3577,5.1944,5.1596,0.0,5.4504,5.5078,5.5429,5.6509,5.5841,5.4381,5.209,5.0741,4.9652,4.8523,4.84,4.84,4.84,4.84,4.7772,4.6381,4.472,4.3207,4.1713,4.0021,3.8956,3.8956,3.864,3.864,3.864,3.864,3.864,3.864,3.864,3.87,3.8959,3.5792,3.4466,3.469,3.1352,2.9913,2.9913,2.9913,2.9913,2.9913,2.9734,2.8449,2.6423,2.4419,2.2586,2.0936,1.8913,1.8176,1.82,1.8403,1.8391,1.8167,0.0,0.0,0.0,0.0,0.0,0.0,0.0,6.0794,6.0794,6.0794,6.0794,6.069,6.0586,6.0586,6.0481,6.0272,6.0241,6.0241,6.0241,5.9606,5.9255,5.9255,5.7722,5.7162,5.7863,5.6165,5.5704,5.648,5.5704,5.5383,5.5496,5.5496,5.5933,5.6822,5.6822,5.7722,5.9255,5.9255,5.9713,6.0481,5.9789,6.0031,6.0794,6.0794,6.0794,6.0794,6.0794,6.0794,6.0794,6.0794,6.0794,6.0794,6.0794,6.0794,6.0794,6.0451,5.9439,5.8048,5.6194,5.4831,5.3577,5.1944,5.1596,0.0,5.2865,5.3418,5.3945,5.4603,5.3478,5.2253,5.1861,5.0056,4.8667,4.84,4.84,4.84,4.84,4.84,4.8232,4.7918,4.6381,4.5319,4.502,4.2309,4.0646,4.0646,3.9411,3.864,3.864,3.864,3.864,3.864,3.864,3.8168,3.7535,3.5422,3.3894,3.3115,3.0931,2.9913,2.9913,2.9913,2.9913,2.9734,2.8256,2.6423,2.4419,2.2402,2.1481,2.0936,1.8913,1.8176,1.8217,1.855,1.7912,1.6623,0.0,6.0794,0.0,0.0,0.0,0.0,0.0,6.1317,6.144,6.1748,6.1809,6.1809,6.1809,6.1809,6.1809,6.1809,6.1809,6.1809,6.1809,6.1049,6.0624,6.0624,5.908,5.8386,5.8852,5.7499,5.7078,5.7528,5.7078,5.6851,5.6851,5.6851,5.7274,5.8136,5.8136,5.8931,6.0167,6.0502,6.0866,6.1255,6.0499,6.0346,6.0794,6.0794,6.0794,6.0794,6.0794,6.0794,6.0794,6.0794,6.0794,6.0794,6.0794,6.0794,6.0555,5.9332,5.8187,5.6904,5.4976,5.3577,5.2535,5.1819,5.1596,0.0,0.0,5.3678,5.3868,5.3757,5.2901,5.1861,5.0624,4.9245,4.84,4.84,4.84,4.84,4.84,4.84,4.84,4.84,4.6847,4.5915,4.5915,4.3075,4.0802,3.9883,3.9114,3.864,3.864,3.864,3.864,3.864,3.864,3.8043,3.7142,3.5287,3.3754,3.269,3.0781,2.9913,2.9913,2.9913,2.9913,2.9734,2.7895,2.5878,2.3871,2.185,2.0566,1.9648,1.8541,1.8176,1.8217,1.859,1.7751,1.6036,6.1009,6.0978,0.0,0.0,0.0,0.0,0.0,0.0,6.221,6.2733,6.2825,6.2825,6.2825,6.2825,6.2825,6.2825,6.2825,6.2825,6.2825,6.2302,6.1994,6.1994,6.0593,5.9908,5.9894,0.0,5.8423,5.8415,5.8305,5.8195,5.8195,5.8195,5.8634,5.9469,5.962,6.0213,6.104,6.1717,6.1994,6.1963,6.1409,6.1194,6.1194,6.1194,6.1194,6.1194,6.1194,6.1194,6.1194,6.1194,6.1101,6.0978,6.0978,6.0978,6.053,5.8246,5.7133,5.602,5.3658,5.2588,5.197,5.1721,5.18,5.2266,0.0,0.0,0.0,5.3292,5.2729,5.1698,4.9532,4.8835,4.84,4.84,4.84,4.84,4.84,4.84,4.84,4.84,4.7163,4.6381,4.6381,4.3511,4.0938,3.9254,3.8798,3.864,3.864,3.864,3.864,3.864,3.864,3.7846,3.6524,3.5087,3.3551,3.2088,3.0588,2.9913,2.9913,2.9913,2.9734,2.9182,2.7341,2.5332,2.3321,2.1296,1.9648,1.8176,1.8176,1.8176,1.8217,1.82,1.7165,1.5649,6.1809,6.1686,6.1871,0.0,0.0,0.0,0.0,0.0,6.2733,6.2794,6.2825,6.2825,6.2825,6.2825,6.2825,6.2825,6.2825,6.2825,6.2825,6.2733,6.2702,6.2702,6.1825,6.1413,6.1475,0.0,5.9169,5.9362,5.8634,5.8195,5.8195,5.8195,5.8634,5.9499,6.0102,6.0913,6.1748,6.2425,6.2702,6.2702,6.261,6.2579,6.2579,6.2579,6.2579,6.2579,6.2579,6.2579,6.2579,6.2579,6.2179,6.1686,6.1686,6.1686,6.1353,5.9757,5.863,5.7456,5.5289,5.4019,5.3105,5.1846,5.249,5.319,5.2817,0.0,5.2648,5.2641,0.0,5.034,5.0056,0.0,0.0,4.84,4.84,4.84,4.84,4.84,4.84,4.84,4.8232,4.8086,4.8086,4.517,4.2596,4.0958,3.9411,3.864,3.864,3.864,3.864,3.864,3.864,3.7203,3.4135,3.4287,3.2774,2.988,2.9972,2.9913,2.9913,2.9913,2.8989,2.716,2.515,2.3321,2.1296,1.9276,1.8363,1.8176,1.8176,1.8176,1.803,1.7039,1.5608,1.3903,6.2456,6.2394,6.2487,6.2764,0.0,0.0,0.0,6.3749,6.4026,6.4026,6.4026,6.4026,6.4026,6.4026,6.4104,6.4429,6.4505,6.4505,6.4505,6.4164,6.3733,6.341,6.2686,6.235,6.2394,6.172,6.1352,6.1401,6.0684,6.0288,6.0288,6.0288,6.0502,6.0852,6.1523,6.2043,6.2425,6.3133,6.341,6.3441,6.3872,6.4026,6.3933,6.3133,6.2825,6.2825,6.2825,6.2825,6.2825,6.2825,6.2641,6.2394,6.2394,6.2117,6.1431,5.9807,5.8496,5.7195,5.5233,5.4413,5.3985,5.3466,5.3699,5.3853,5.3244,5.2766,5.2236,5.1329,0.0,0.0,0.0,0.0,0.0,0.0,4.84,4.84,4.84,4.84,4.8086,4.6994,4.7772,4.8086,4.6994,4.487,4.2902,4.1249,3.9569,3.864,3.864,3.864,3.864,3.864,3.864,3.7025,3.3905,3.4087,3.2744,2.9486,2.978,2.9913,2.9913,2.9913,2.8809,2.6966,2.4785,2.2954,2.0936,1.8913,1.8176,1.8176,1.8176,1.8176,1.8014,1.6744,1.5348,1.3703,6.3379,6.3225,6.3164,6.3349,0.0,0.0,0.0,6.458,6.4888,6.4888,6.4888,6.4888,6.4888,6.4998,6.5297,6.57,6.5808,6.5915,6.5915,6.5339,6.4844,6.4553,6.3765,6.3395,6.3317,6.321,6.301,6.2825,6.2333,6.2086,6.2086,6.2086,6.2086,6.2117,6.2794,6.3102,6.3133,6.3841,6.4118,6.418,6.4672,6.4888,6.4795,6.3779,6.3379,6.3379,6.3379,6.3379,6.3379,6.3379,6.3256,6.2995,6.2748,6.2411,6.1521,5.9658,5.849,5.7513,5.55,5.5111,5.5224,5.4608,5.4692,5.4565,5.3527,5.28,5.1805,5.0386,4.9914,0.0,0.0,0.0,4.84,4.84,0.0,4.84,4.84,4.84,4.7918,4.6699,4.731,4.7016,4.5468,4.3815,4.2289,4.1249,3.9569,3.864,3.864,3.864,3.864,3.864,3.8145,3.6471,3.3762,3.3535,3.22,2.9366,2.974,2.9913,2.9913,2.9362,2.8076,2.606,2.4054,2.2034,2.0196,1.8727,1.8176,1.8176,1.7795,1.7608,1.7445,1.6095,1.4527,1.3109,6.4826,6.4272,6.4026,6.4703,6.4826,6.4826,0.0,6.4888,6.4888,6.4888,6.4888,6.4888,6.4888,6.5406,6.57,6.57,6.6268,6.6617,6.6617,6.6023,6.5884,6.648,6.5483,6.4707,6.4639,6.4104,6.3472,6.2825,6.2794,6.2794,6.2794,6.2794,6.2794,6.2825,6.3502,6.3779,6.3841,6.4549,6.4857,6.4857,6.4888,6.4888,6.4888,6.4857,6.4826,6.4826,6.4826,6.4826,6.4826,6.4826,6.4364,0.0,6.2759,6.2393,6.1905,5.9481,5.9155,5.9114,5.6921,5.6809,5.6865,5.4853,5.5283,5.5559,5.31,5.2154,5.1419,5.034,4.9221,4.8377,4.84,4.84,4.84,4.84,4.84,0.0,0.0,4.84,4.84,4.8377,4.6994,4.5319,4.3794,4.2156,4.1094,4.1113,3.9569,3.864,3.864,3.864,3.864,3.864,3.6992,3.5187,3.3413,3.2263,3.0909,2.9058,2.9633,2.9913,2.9913,2.7895,2.606,2.4054,2.2034,2.001,1.8363,1.8176,1.8176,1.7989,1.6486,1.5917,1.5751,1.4381,1.2983,1.1563,6.4888,6.4703,6.4611,6.4857,6.4888,6.4888,6.4888,6.4888,6.4998,6.5406,6.5406,6.5623,6.5947,6.6161,6.648,6.6764,6.6974,6.7109,6.7109,6.6586,6.6374,6.6617,6.5546,6.5094,6.5357,6.4847,6.4426,6.418,6.3718,6.3472,6.3472,6.3472,6.3472,6.3502,6.421,6.4549,6.4549,6.4795,6.4888,6.4888,6.4888,6.4888,6.4888,6.4888,6.4888,6.4888,6.4888,6.4888,0.0,6.4888,6.4259,6.3425,6.3199,6.2301,6.1226,5.9769,5.9241,5.8803,5.7407,5.7538,5.7846,5.7107,5.6921,5.6149,5.3829,5.2516,5.1163,4.9365,4.8667,4.84,4.84,4.84,4.84,4.84,4.84,4.84,0.0,4.7457,4.5937,4.3835,4.3075,4.2902,4.3491,4.2002,4.1113,4.1113,3.9569,3.864,3.864,3.864,3.864,3.864,3.6992,3.5187,3.3397,3.2263,3.0736,2.9045,2.9633,2.9913,2.9913,2.7895,2.5878,2.3871,2.185,2.001,1.8176,1.8176,1.8176,1.7989,1.6486,1.5355,1.4234,1.2767,1.1963,1.1378,6.4888,6.4888,6.4888,6.4888,6.4888,6.4888,6.4888,6.5108,6.5297,6.57,6.5915,6.6161,6.6617,6.6796,6.7005,6.742,6.7593,6.7593,6.7388,6.7109,6.6901,6.6901,6.5947,6.5731,6.6343,6.5623,6.5187,6.5187,6.4536,6.421,6.421,6.421,6.421,6.4241,6.4703,6.4888,6.4888,6.4888,6.4888,6.4888,6.4888,6.4888,6.4888,6.4888,6.4888,6.4888,6.4888,6.4888,6.4888,6.4888,6.427,6.3304,6.3074,6.1966,6.0704,5.9778,5.928,5.8725,5.8147,5.8334,0.0,5.7688,5.7077,5.6183,5.4113,5.2504,5.1187,4.9914,4.9221,4.8812,4.8812,4.8667,4.8546,4.8546,4.8546,4.8232,0.0,4.5639,4.3359,4.1404,4.1113,4.1249,4.1674,4.0783,4.0178,4.0178,3.9254,3.864,3.864,3.864,3.864,3.864,3.6333,3.4538,3.3397,3.1587,3.0232,2.9045,2.9633,2.9541,2.8809,2.6797,2.4785,2.2954,2.0936,1.9276,1.8176,1.8176,1.8176,1.7989,1.5917,1.461,1.3481,1.1967,1.0969,1.0206,6.4888,6.4888,6.4888,6.4888,6.4888,6.4888,6.4888,6.5406,6.57,6.57,6.6268,6.6617,6.6723,6.7109,6.7388,6.7388,6.7899,6.8,6.7491,6.7388,6.7388,6.7388,6.6901,6.6796,6.742,6.6236,6.57,6.57,6.5187,6.4888,6.4888,6.4888,6.4888,6.4888,6.4888,6.4888,6.4888,6.4888,6.4888,6.4888,6.4949,6.4949,6.4949,6.498,6.5011,6.498,6.4918,6.4918,6.4949,6.4918,6.4158,6.3189,6.2233,6.1316,6.0409,5.9454,5.9205,5.9205,5.9205,5.908,5.855,5.6547,5.6025,5.5499,5.3623,5.2139,5.1327,5.1558,5.0458,4.9509,4.9509,4.9245,4.898,4.898,4.8691,4.7772,4.6085,4.3207,4.1094,4.0958,4.0958,4.0334,3.8798,3.864,3.864,3.864,3.864,3.864,3.864,3.864,3.864,3.864,3.5204,3.3397,3.3397,3.0411,2.9045,2.9045,2.9633,2.8809,2.6966,2.4967,2.2954,2.0936,1.9099,1.8176,1.8176,1.8176,1.8176,1.7795,1.4798,1.367,1.3293,1.1784,0.9824,0.7851,6.4888,6.4888,6.4888,6.4888,6.4888,6.4888,6.4888,6.5406,6.5808,6.6268,6.6901,6.7317,6.7695,6.7899,6.8,6.8,6.8101,6.8101,6.8,6.7593,6.7593,6.8,6.7109,6.6796,6.742,6.6236,6.57,6.57,6.5187,6.4888,6.4888,6.4888,6.4888,6.4888,6.4888,6.4888,6.4888,6.4888,6.4888,6.4949,6.5442,6.5657,6.5719,6.6211,6.6396,6.6273,6.5257,6.5226,6.5565,6.5072,6.3789,6.2349,6.2116,6.0837,5.9578,5.9205,5.9205,5.9205,5.9205,5.8424,5.7478,5.6963,5.5631,5.4164,0.0,5.1861,5.093,5.0198,4.9771,4.9509,4.9509,4.9245,4.898,4.898,4.8691,4.7457,4.457,4.3339,4.1982,3.9569,3.9254,3.9114,3.864,3.864,3.864,3.864,3.864,3.864,3.864,3.864,3.864,3.864,3.5204,3.3397,3.3397,3.0411,2.9045,2.9045,2.9633,2.8809,2.6966,2.4967,2.2954,2.0936,1.9099,1.8176,1.8176,1.8176,1.7608,1.6299,1.4422,1.235,1.0095,0.902,0.7762,0.6482,6.4888,6.4888,6.4888,6.4888,6.5375,6.5777,6.5777,6.5669,6.6023,6.6942,6.7285,6.7491,6.7797,6.8101,6.8201,6.8201,6.8201,6.8101,6.7899,6.7797,6.7797,6.7797,6.7523,6.7388,6.7695,6.6869,6.6343,6.6054,6.5515,6.5108,6.4888,6.4888,6.4888,6.4888,6.4888,6.4888,6.4918,6.5226,6.5503,6.5811,6.6211,6.6334,0.0,6.6765,6.7104,6.7227,6.615,6.6027,6.616,6.5421,6.409,6.2704,6.2052,6.0782,5.957,5.9289,5.9205,5.9205,5.9205,5.8143,5.6936,5.626,5.4809,5.3215,5.2641,5.1747,5.093,5.0882,5.0482,4.9961,4.9961,4.9532,4.9124,4.898,4.7603,4.5937,4.3945,4.2423,4.0608,3.8798,3.864,3.864,3.864,3.864,3.864,3.864,3.7827,3.7809,3.8481,3.7827,3.749,3.749,3.4863,3.3069,3.2247,3.0083,2.9045,2.9045,2.873,2.7534,2.5696,2.3687,2.1665,1.9834,1.8727,1.8176,1.8176,1.8176,1.7234,1.573,1.3475,1.1028,0.8386,0.7476,0.6767,0.6053,6.4918,6.4888,6.4918,6.5011,6.6085,6.6974,6.7277,6.6691,6.6596,6.777,6.7733,6.7695,6.7695,6.8,6.8234,6.8331,6.8331,6.8193,6.7779,6.8092,6.8129,6.7651,6.7963,6.8201,6.8201,6.7695,6.7109,6.6617,6.6023,6.5406,6.4888,6.4888,6.4888,6.4888,6.498,6.5072,6.5195,6.578,6.6365,6.6919,6.7012,6.7042,6.7042,6.7135,6.7535,6.7966,6.7381,6.7135,6.6897,6.5732,6.4845,6.3764,6.208,6.0944,6.0132,5.9514,5.9345,5.9317,5.8983,5.7889,5.6417,5.5049,5.3598,5.2529,5.2529,5.1607,5.1095,5.2278,5.1492,5.0696,5.0696,5.0104,4.9365,4.8812,4.6529,4.4548,4.3945,4.1229,3.9254,3.8798,3.864,0.0,3.8304,3.8481,3.8481,3.8322,3.6832,3.6654,3.8145,3.6815,3.5994,3.5994,3.4376,3.2577,3.0788,2.9542,2.8831,2.8683,2.7405,2.5843,2.3504,2.185,2.001,1.8176,1.8176,1.8176,1.8176,1.7989,1.686,1.4979,1.2156,0.9703,0.7429,0.6669,0.6131,0.6185,6.5011,6.4888,6.5072,6.5626,6.6806,6.8284,6.9964,6.9452,6.9024,6.9217,6.909,6.8928,6.8928,6.8468,6.8428,6.9043,6.9108,6.9367,6.9879,6.9432,6.9108,6.8974,6.8525,6.8201,6.8201,6.7695,6.7109,6.6617,6.6023,6.5406,6.4888,6.4888,6.4888,6.4918,6.5472,6.6027,6.6581,6.6673,6.6796,6.6981,6.7535,6.775,6.7812,6.8335,6.8612,6.8705,6.8581,6.8212,6.7542,6.5884,6.4845,6.3822,6.2629,6.1627,6.0807,6.016,5.9964,5.9598,5.7898,5.639,5.4916,5.3598,5.2139,5.1095,5.1095,5.0837,5.0837,5.0954,5.0837,5.0696,5.0696,5.0246,4.9365,4.7726,4.8018,4.7118,4.3228,4.3228,4.2443,3.9569,3.9114,3.8463,3.6654,3.7809,3.7986,3.6494,3.6155,3.6155,3.6494,3.6155,3.5994,3.5994,3.4376,3.2577,3.0788,2.9336,2.7914,2.6545,2.6674,2.4766,2.1665,2.1306,2.001,1.8176,1.8176,1.8176,1.8176,1.686,1.4604,1.1967,1.0275,0.8759,0.7619,0.7429,0.6865,0.5932,6.5996,6.5934,6.6251,6.7277,6.8649,7.0029,7.1686,7.2236,7.1984,7.0918,7.0009,6.9441,6.9441,6.9404,6.9496,6.982,6.9853,7.0015,7.0371,7.0079,6.9853,6.9853,6.9529,6.9335,6.9335,6.9027,6.8508,6.766,6.7306,6.6792,6.5934,6.5934,6.5934,6.5965,6.661,6.7136,6.7442,6.7755,6.7941,6.7966,6.8304,6.8212,6.7966,6.8274,6.8181,6.7873,6.7873,6.728,6.66,6.5862,6.4976,6.3922,6.2622,6.1925,6.1453,6.0807,5.9846,5.8843,5.7895,5.5683,5.3572,5.2916,5.1747,5.0696,5.0696,5.0696,5.0696,5.0696,5.0696,5.0696,5.0412,5.0412,0.0,4.7704,4.7411,4.6189,4.3075,4.2309,4.1559,3.9569,3.9272,3.878,3.749,3.7312,3.6494,3.4863,3.4701,3.5025,3.5994,3.5187,3.4701,3.4701,3.2905,3.1271,2.9467,2.7892,2.6797,2.6006,2.4285,2.2727,2.1121,2.0019,1.9099,1.8176,1.8176,1.8176,1.7989,1.5737,1.3475,1.1212,0.9707,0.8193,0.6859,0.7429,0.6669,0.5344,6.7342,6.7311,6.787,6.9351,7.0652,7.1786,7.3043,7.3878,7.3867,7.2367,7.1025,7.0066,6.9994,7.0267,7.0468,7.0598,7.063,7.0695,7.0857,7.0695,7.063,7.063,7.05,7.0403,7.0403,7.0403,6.9849,6.8825,6.864,6.8029,6.693,6.6827,6.6981,6.7332,6.7753,6.8126,6.8467,0.0,6.8873,6.8876,6.8636,6.815,6.772,6.772,6.7381,6.6919,6.6919,6.6199,6.5233,6.5399,6.4881,6.3808,6.2349,6.1818,6.1734,6.1228,5.9634,5.815,5.7755,5.5434,5.2842,5.2565,5.1565,5.0696,5.0696,5.0696,5.0696,5.0696,5.0696,5.0554,5.027,5.0246,0.0,4.8018,4.6507,4.4849,4.3207,4.1713,4.0353,3.9569,3.9569,3.9254,3.8304,3.6654,3.4863,3.2905,3.2905,3.3397,3.4863,3.356,3.2725,3.2217,3.1271,2.9621,2.7096,2.6105,2.5497,2.4937,2.2091,2.0683,2.0381,1.8913,1.8176,1.8176,1.8176,1.7795,1.7048,1.4416,1.2345,1.0838,0.9522,0.7809,0.6288,0.7429,0.6669,0.5151,6.8545,6.8838,6.9457,7.1434,7.2413,7.3077,7.3749,7.3379,7.307,7.3535,7.2882,7.2114,7.1424,7.0782,7.0662,7.1278,7.131,7.1601,7.2249,7.1699,7.131,7.131,7.0727,7.0403,7.0403,7.0403,7.0059,6.9468,6.8825,6.7997,6.6854,6.6838,6.7569,6.8582,6.8695,0.0,0.0,6.9264,6.882,6.8706,6.7548,6.7073,6.7012,6.7012,6.6981,6.6919,6.6919,6.5702,6.4124,6.4121,6.3567,6.2572,6.1557,6.1172,6.1172,6.1116,5.9938,5.8508,5.7135,5.5211,5.3163,5.1965,5.1199,5.0696,5.0696,5.0696,5.0696,5.0696,5.0696,5.0696,5.0696,4.9509,4.8453,4.8308,4.6971,4.5319,4.3684,4.3228,4.2483,4.0666,4.0353,3.9393,3.6957,3.517,3.3381,3.1271,3.112,3.1105,3.1271,3.112,3.026,2.8533,2.9912,2.8406,2.3137,2.4714,2.3922,2.0846,2.0686,1.9825,1.8549,1.8363,1.8176,1.8176,1.8176,1.6673,1.4046,1.2345,1.0649,0.9332,0.9142,0.7809,0.6288,0.8193,0.7619,0.6288,7.1334,7.144,7.1922,7.3642,7.4064,7.4668,7.5788,7.5213,7.4668,7.4478,7.2945,7.1942,7.2091,7.1844,7.1763,7.2055,7.2055,7.2184,7.2476,7.2217,7.2055,7.2055,7.1375,7.1019,7.1019,7.108,7.0717,7.017,6.951,6.9106,6.8924,6.8278,6.8485,0.0,0.0,6.9473,6.8907,6.9144,6.8901,6.825,6.8143,6.7873,6.7535,6.7535,6.7012,6.619,6.5704,6.436,6.2675,6.2103,6.1891,6.1572,6.1216,6.1088,6.1088,6.1088,5.9166,5.7035,5.6699,5.4619,5.2254,5.2019,5.1562,5.1177,5.1177,5.0936,5.0696,5.0696,5.0696,5.0696,5.0696,4.9365,4.8018,4.6971,4.5468,4.3835,4.235,4.2062,4.1753,4.0666,4.0353,3.9569,3.8286,3.5511,3.3233,3.2412,3.1437,3.0788,3.0788,3.0788,2.9926,2.803,2.772,2.6041,2.2622,2.2277,2.1403,2.013,1.9186,1.849,1.8022,1.8127,1.8176,1.8176,1.7234,1.5542,1.367,1.1967,1.046,0.9142,0.9142,0.8193,0.7239,0.8573,0.8193,0.7049,7.3602,7.3704,7.414,7.5445,7.556,7.5646,7.6394,7.5696,7.4877,7.4238,7.2532,7.1699,7.2411,7.2508,7.2508,7.2508,7.2508,7.2508,7.2508,7.2508,7.2508,7.2508,7.2022,7.1731,7.1731,7.1733,7.1644,7.1509,7.0961,7.0799,7.1186,7.026,7.0074,0.0,7.0857,7.0151,6.891,6.9193,6.8901,6.8166,6.8328,6.8027,6.7627,6.7627,6.6782,6.5727,6.5006,6.3475,6.1698,6.1126,6.066,6.0554,6.0554,6.0554,6.0454,6.0208,5.8181,5.5909,5.5934,5.3778,5.161,5.2139,5.1874,5.1489,5.1489,5.1201,5.0888,5.0744,5.0696,5.0696,5.0696,4.9054,4.7411,4.6677,4.444,4.2657,4.1907,4.1463,4.1016,4.0685,4.0529,4.0059,3.9588,3.5994,3.3708,3.3397,3.1271,2.9955,2.9955,0.0,0.0,2.65,2.5179,2.3481,2.1078,2.0211,1.9637,1.9319,1.8091,1.7737,1.7924,1.8095,1.7989,1.7421,1.5917,1.4416,1.2916,1.1406,1.0086,0.9142,0.9142,0.8573,0.7809,0.8763,0.8383,0.7429,7.4832,7.5026,7.554,7.6918,7.6602,7.5819,7.5024,7.3669,7.2671,7.2579,7.1896,7.1699,7.2411,7.2508,7.2508,7.2508,7.2508,7.2508,7.2508,7.2508,7.2508,7.2508,7.2476,7.2476,7.2476,7.2476,7.2867,7.3632,7.3116,7.2794,7.2978,7.2345,7.2331,7.2769,7.21,7.181,7.1406,6.9602,6.8789,6.8726,6.7425,6.6919,6.6919,6.6919,6.6314,6.5437,6.5437,6.3771,6.1516,6.1516,6.0527,5.9233,5.9233,5.9233,5.9095,5.8215,5.6877,5.5501,5.4682,5.3094,5.161,5.2139,5.1874,5.1489,5.1489,5.1489,5.1345,5.0816,5.0696,5.0696,5.0696,4.8163,4.6381,4.8018,4.431,4.1773,4.3248,4.2216,4.1172,4.1172,4.1172,4.086,3.9902,3.678,3.4343,3.3397,3.0107,2.8305,2.8305,0.0,0.0,2.2794,2.2622,0.0,1.7288,1.9012,1.9111,1.7388,1.7559,1.7737,1.7924,1.8095,1.7421,1.5917,1.4422,1.291,1.1401,0.9707,0.9142,0.9142,0.9142,0.8573,0.7809,0.8763,0.8383,0.7429,7.6485,7.6485,7.6702,7.7133,7.7016,7.6755,7.6484,7.5569,7.4714,7.4205,7.3437,7.2816,7.2582,7.2508,7.2508,7.2508,7.2508,7.2508,7.2508,7.2508,7.2508,7.2508,7.2022,7.2046,7.2532,7.2579,7.3007,7.3743,7.3198,0.0,0.0,7.3527,7.3413,7.268,7.2581,7.1336,6.9523,6.9446,6.8901,6.8166,6.8266,6.8243,6.8243,6.8243,6.7352,6.5981,6.5381,6.3842,6.1997,6.0847,6.0244,5.9767,5.9345,5.9205,5.8983,5.7724,5.6265,5.4904,5.4151,5.2705,5.161,5.2139,5.1874,5.1586,5.1946,5.1754,5.1441,5.1273,5.096,5.0388,4.9221,4.7265,4.5766,4.517,4.281,4.1327,4.1907,4.1463,4.1172,4.1172,4.0841,4.0021,3.8249,3.5816,3.3544,3.1768,2.9467,2.8136,2.8136,0.0,0.0,0.0,2.1414,0.0,1.7112,1.763,1.7655,1.7201,1.7502,1.7802,1.8095,1.7025,1.6299,1.573,1.3287,1.1778,1.1212,0.9707,0.9142,0.9142,0.9142,0.8952,0.8573,0.8952,0.7999,0.6283,7.7223,7.7223,7.7223,7.7223,7.7223,7.7133,7.6828,7.63,7.5737,7.5,7.4473,7.4003,7.3492,7.3389,0.0,7.2582,7.2508,7.2508,7.2508,7.2794,7.3005,7.3005,7.2756,7.2904,7.3509,7.3471,0.0,7.4626,7.4592,7.4592,7.4592,7.5207,7.4844,7.3529,7.3302,7.1775,6.943,6.965,6.9163,6.8304,6.8735,6.8889,6.8889,6.8505,6.7396,6.6067,6.5176,6.3641,6.2209,6.1203,6.0526,6.0048,5.9683,5.8997,5.8143,5.6677,5.5604,5.4593,5.2978,5.1864,5.1321,5.185,5.173,5.1634,5.2163,5.1874,5.1489,5.1489,5.1225,5.0485,4.8644,4.6971,4.5319,4.3684,4.2216,4.1172,4.1172,4.1172,4.1172,4.1172,4.0997,3.9864,3.7755,3.5494,3.3381,3.1105,2.93,2.8136,0.0,0.0,2.3824,2.2622,2.0221,1.8322,1.7112,1.7112,1.7112,1.7112,1.7469,1.7794,1.8079,1.6644,1.5542,1.4979,1.2533,1.1028,1.046,0.9522,0.9142,0.9142,0.9142,0.9142,0.9142,0.9142,0.7806,0.571,7.7223,7.7223,7.7223,7.7223,7.7223,7.6918,7.6207,7.6114,7.5832,7.5097,7.5,7.5,7.4902,7.4902,7.4306,7.2794,0.0,0.0,7.2688,7.3389,7.3767,7.3767,7.4506,7.4902,7.5,7.5,7.5354,7.6114,7.6828,7.7223,7.7223,7.7223,7.6368,7.4902,7.4306,7.2769,7.0726,7.013,6.9441,6.8889,6.8889,6.8889,6.8772,6.7789,6.6786,6.5794,6.4781,6.3407,6.2071,6.2015,6.12,6.0188,6.0132,5.8768,5.6936,5.5314,5.4782,5.4113,5.1492,5.0696,5.0816,5.1321,5.1465,5.161,5.2115,5.1874,5.1537,5.1537,5.1513,5.089,4.8592,4.6994,4.5341,4.3684,4.2216,4.1172,4.1172,4.1172,4.1172,4.1172,4.1016,0.0,3.7932,3.5799,3.3528,3.1271,2.93,2.8136,0.0,0.0,2.2622,2.2622,1.9012,1.7112,1.7112,1.7112,1.712,1.7136,1.7478,1.7737,1.774,1.6413,1.4979,1.3481,1.1967,1.046,0.9142,0.9142,0.9142,0.9142,0.9142,0.9142,0.9142,0.9142,0.7806,0.552,0.0,0.0,7.7223,7.7223,7.7223,7.7133,7.6918,7.6918,7.6611,7.5832,7.5737,7.5546,7.5,7.4902,7.4704,7.4406,7.4306,7.4306,7.4306,7.4506,7.4605,7.4605,7.4803,7.5161,7.5737,7.5737,7.6114,7.6918,7.7133,7.7223,7.7223,7.7223,7.6368,7.4902,7.477,7.322,7.0726,7.0613,6.9901,6.8889,6.8889,6.8889,6.8772,6.7789,6.6786,6.5794,6.4781,6.3692,6.2633,6.2183,6.1509,6.0778,6.0301,5.9431,5.8143,5.5578,5.4113,5.2941,5.1236,5.0696,5.0744,5.0864,5.1201,5.1513,5.1658,5.1898,5.2091,5.2091,5.1778,5.0551,4.7701,4.6475,4.5041,4.2216,4.1463,4.1172,4.1172,4.1172,4.1172,4.1172,4.0021,3.8231,3.5638,3.3855,3.1587,2.9132,2.8473,2.8136,2.8136,2.4691,2.2622,2.2622,1.9012,1.7112,1.7112,1.7112,1.7177,1.7323,1.7543,1.7183,1.6243,1.4912,1.3475,1.1778,1.0275,0.9522,0.9142,0.9142,0.9142,0.9142,0.9142,0.9142,0.9142,0.9142,0.6853,0.3616,7.7223,7.7223,7.7223,7.7223,7.7223,7.7223,7.7223,7.7223,7.7009,7.6611,7.6519,7.6427,7.596,7.596,7.596,7.596,7.5291,7.4902,7.4902,7.5161,7.5354,7.5354,7.5771,7.6148,7.6519,7.6519,7.6702,7.7223,7.7223,7.7223,7.7223,7.6828,7.6054,7.4902,7.4506,7.3012,7.0726,7.0726,7.0016,6.8889,6.8889,6.8889,6.8772,6.7275,6.6417,6.5668,6.4296,6.3413,6.2886,6.2549,6.2015,6.1267,5.9949,5.8639,5.7158,5.4727,5.3843,5.3326,5.1236,5.0696,5.0696,5.0696,5.0912,5.1201,5.1441,5.1706,5.1994,5.2235,5.1435,4.9785,4.7131,4.5837,4.4238,4.1657,4.1172,4.1172,4.1172,4.1172,4.0841,4.0178,3.9216,3.7436,3.4359,3.2905,3.1105,2.8978,2.8473,0.0,2.8136,2.4691,2.2622,2.2622,1.9012,1.7112,1.7112,1.7112,1.7161,1.7266,1.7437,1.6884,1.5583,1.4255,1.2852,1.1401,0.9707,0.9142,0.9142,0.9142,0.9142,0.9142,0.9142,0.9142,0.9142,0.9142,0.647,0.3046,7.7568,7.7568,7.7568,7.7568,7.7465,7.7396,7.7396,7.7292,7.7223,7.7223,7.7223,7.7223,7.7223,7.7223,7.7223,7.7223,7.596,7.5291,7.5291,7.5832,7.6207,7.6207,7.6828,7.7223,7.7223,7.7223,7.7223,7.7223,7.7223,7.7223,7.7223,7.6392,7.5642,7.4902,7.4072,7.2624,7.0726,7.0726,7.0016,6.8889,6.8889,6.8772,6.8505,6.6663,6.5794,6.5416,6.3545,6.2942,6.2942,6.2942,6.2521,6.1641,5.9714,5.7705,5.5835,5.3605,5.3649,5.4004,5.1352,5.0696,5.0696,5.0696,5.0696,5.0816,5.1273,5.1441,5.161,5.2067,5.0842,4.9065,4.7113,4.5333,4.3494,4.162,4.1211,4.1172,4.1172,4.1172,4.0529,3.8882,3.8408,3.6957,3.3576,3.2263,3.112,2.9481,2.8642,2.8136,2.7799,2.452,2.2449,2.2277,1.8837,1.7112,1.7112,1.7112,1.7112,1.7112,1.7299,1.6572,1.509,1.3954,1.2602,1.1023,0.9707,0.9142,0.9142,0.9142,0.9142,0.9142,0.9142,0.9142,0.9142,0.8763,0.628,0.3046,7.9155,7.9155,7.9155,7.9155,7.8637,7.8223,7.8223,7.7672,7.7223,7.7223,7.7223,7.7223,7.7223,7.7223,7.7223,7.7223,7.7009,7.6828,7.6828,7.6918,7.7009,7.7009,7.7133,7.7223,7.7223,7.7223,7.7223,7.7223,7.7223,7.7223,7.7223,7.6392,7.5642,7.4902,7.4072,7.2624,7.0726,7.0726,7.0016,6.8889,6.8889,6.8386,6.7548,6.6293,6.5416,6.4525,6.3282,6.2942,6.2942,6.2942,6.2521,6.1725,6.0046,5.8723,5.7143,5.4363,5.3319,5.2804,5.1095,5.0696,5.0696,5.0696,5.0696,5.072,5.0816,5.1177,5.1513,5.1586,5.0584,4.9155,4.7553,4.5545,4.3596,4.2014,4.1406,4.1172,4.1172,4.1172,4.0529,3.8882,3.7277,3.5511,3.3069,3.112,2.9649,2.8992,2.8487,2.7448,2.5896,2.3824,2.1932,2.0385,1.8147,1.7112,1.7112,1.7112,1.7112,1.7112,1.7299,1.6025,1.3443,1.3401,1.2042,0.9522,0.9142,0.9142,0.9142,0.9142,0.9142,0.9142,0.9142,0.9142,0.8952,0.7233,0.5137,0.2665,7.95,7.95,7.95,7.95,7.9224,7.8982,7.8982,7.8706,7.8465,7.8465,7.812,7.7844,7.7844,7.7465,7.7223,7.7223,7.7223,7.7223,7.7223,7.7223,7.7223,7.7223,7.7223,7.7223,7.7223,7.7223,7.7223,7.7223,7.7223,7.7223,7.7223,7.596,7.5258,7.4803,7.3252,7.1874,7.0726,7.0356,6.9703,6.8889,6.8889,6.8268,6.7305,6.6293,6.529,6.4268,6.331,6.2942,6.2942,6.2942,6.2159,6.0889,5.9153,5.7478,5.565,5.3197,5.2048,5.1492,5.0837,5.0696,5.0696,5.0696,5.0696,5.0696,5.0696,5.0888,5.1153,5.1441,4.9692,4.796,4.7466,4.4991,4.2701,4.1955,4.1445,4.1172,4.1172,4.1172,4.0197,3.7436,3.6477,3.4863,3.1948,3.0303,2.9481,2.9146,2.8642,2.7448,2.5556,2.3652,2.176,2.0047,1.8147,1.7112,1.7112,1.7112,1.7112,1.7112,1.6479,1.4991,1.2975,1.2375,1.1021,0.9073,0.9122,0.9142,0.9142,0.9142,0.9142,0.9142,0.9142,0.9142,0.8763,0.6853,0.4757,0.2665,8.0051,8.0051,8.0051,8.0051,7.9879,7.9776,7.9776,7.9638,7.95,7.95,7.9017,7.8672,7.8672,7.812,7.7741,7.7741,7.7741,7.7672,7.7499,7.7499,7.743,7.7223,7.7223,7.7223,7.7223,7.7223,7.7223,7.7223,7.7223,7.7223,7.7133,7.558,7.4902,7.4803,7.2624,7.125,7.0726,7.0047,6.9441,6.8889,6.8654,6.7909,6.6909,6.589,6.4909,6.3908,6.3178,6.2942,6.2942,6.2942,6.1923,6.0264,5.8401,5.6341,5.4252,5.2235,5.1225,5.0696,5.0696,5.0696,5.0696,5.0696,5.0696,5.0696,5.0696,5.0696,5.0674,5.0771,4.8532,4.6637,4.6809,4.4161,4.1953,4.1953,0.0,4.1289,4.1191,4.1172,3.9883,3.6477,3.5994,3.4701,3.115,3.0165,2.9663,2.9481,2.881,2.7279,2.4861,2.3309,2.1587,1.9361,1.7805,1.7112,1.7112,1.7112,1.7112,1.7112,1.569,1.4353,1.2891,1.1566,1.0212,0.9011,0.9105,0.9142,0.9142,0.9142,0.9142,0.9142,0.9142,0.9142,0.8763,0.628,0.4377,0.2665,8.1638,8.1638,8.1638,8.1638,8.1017,8.0534,8.0534,7.9948,7.95,7.95,7.9465,7.9431,7.9431,7.9396,7.9327,7.9327,7.9327,7.9051,7.8361,7.8327,7.7982,7.7258,7.7223,7.7223,7.7223,7.7223,7.7223,7.7223,7.7223,7.7223,7.7133,7.558,7.4902,7.4803,7.2624,7.125,7.0726,7.0047,6.9441,6.8772,6.7909,6.6909,6.5919,6.4909,6.3908,6.3046,6.2942,6.2942,6.2942,6.2942,6.1923,6.0345,5.8876,5.6932,5.4852,5.2793,5.1489,5.0696,5.0696,5.0696,5.0696,5.0696,5.0696,5.0696,5.0696,5.0696,5.027,4.8812,4.7544,4.6334,4.5107,4.3479,4.2383,4.2383,0.0,0.0,4.123,4.1172,3.9883,3.6477,3.5994,3.4701,3.115,3.0332,2.9998,2.9481,2.8992,2.6927,2.2966,2.2622,2.0905,1.7455,1.7112,1.7112,1.7112,1.7112,1.7112,1.7112,1.569,1.4353,1.2891,1.1566,1.0212,0.9011,0.9105,0.9142,0.9142,0.9142,0.9142,0.9142,0.9142,0.9142,0.8573,0.4757,0.3046,0.2475,8.181,8.181,8.181,8.181,8.1569,8.1362,8.1362,8.1121,8.0948,8.0948,8.05,8.0189,8.0189,7.9776,7.95,7.95,7.95,7.9396,7.912,7.9086,7.8534,7.7292,7.7223,7.7223,7.7223,7.7223,7.7223,7.7223,7.7223,7.6918,7.6427,7.5388,7.4605,7.4072,7.1982,7.0917,7.0613,6.9703,6.9123,6.8772,6.7789,6.6786,6.5764,6.4781,6.3777,6.2942,6.2942,6.2942,6.2781,6.1789,6.0483,5.8929,5.7395,5.5597,5.3595,5.2188,5.1273,5.0696,5.0696,5.0696,5.0696,5.0696,5.0696,5.0696,5.0696,5.0696,5.0246,4.8598,4.7128,4.5837,4.4909,4.3278,4.2129,4.2383,0.0,4.166,4.123,4.1172,3.9883,3.6477,3.5994,3.4701,3.115,3.0499,3.0179,2.9998,2.881,2.6588,2.3137,2.0558,1.8488,1.7112,1.7112,1.7112,1.7112,1.7112,1.7112,1.7112,1.4808,1.342,1.2942,1.0549,0.9386,0.8926,0.902,0.9093,0.9142,0.9142,0.9142,0.9142,0.9142,0.8379,0.6853,0.3997,0.2284,0.0762,8.181,8.181,8.181,8.181,8.181,8.181,8.181,8.181,8.181,8.181,8.1328,8.0983,8.0983,8.0534,8.0224,8.0224,8.0224,8.012,7.9879,7.9638,7.8948,7.7637,7.7603,7.7465,7.7223,7.7223,7.7223,7.7223,7.7223,7.6828,7.5986,7.5258,7.4506,7.3562,7.1766,7.0949,7.0613,6.9557,6.8889,6.8386,6.7275,6.6293,6.529,6.4268,6.3545,6.2942,6.2942,6.2942,6.2648,6.1057,5.9627,5.8082,5.6555,5.477,5.2884,5.1994,5.1369,5.0912,5.0744,5.0696,5.0696,5.0696,5.0696,5.0696,5.0696,5.0696,5.0104,4.8018,4.6677,4.547,4.4263,4.2962,4.209,4.2383,4.2187,4.1797,4.125,4.0685,3.9216,3.6316,3.5511,3.4066,3.115,3.0499,3.0346,3.0179,2.8642,2.6418,2.332,1.9535,1.7463,1.7463,1.7288,1.7112,1.7112,1.7112,1.7112,1.7112,1.4278,1.2863,1.2863,0.995,0.8771,0.8836,0.8954,0.9044,0.9101,0.9134,0.9142,0.9142,0.9142,0.7806,0.59,0.3806,0.1713,-0.0381,8.181,8.181,8.181,8.181,8.181,8.181,8.181,8.181,8.181,8.181,8.181,8.181,8.181,8.181,8.181,8.181,8.181,8.1466,8.0672,7.9948,7.9189,7.8465,7.843,7.8051,7.7258,7.7223,7.7223,7.7223,7.7223,7.6828,7.5986,7.5258,7.4506,7.3665,7.223,7.125,7.0726,7.0047,6.8858,6.7305,6.6293,6.529,6.4268,6.3282,6.2942,6.2942,6.2942,6.2942,6.2648,6.1057,5.9627,5.8082,5.6529,5.477,5.2956,5.2427,5.1898,5.1369,5.084,5.0696,5.0696,5.0696,5.0696,5.0696,5.0696,5.0696,4.9795,4.6529,4.5915,4.5169,4.2883,4.2422,4.2422,4.2422,4.2422,4.2129,4.1289,3.9707,3.7914,3.6155,3.4392,3.2788,3.0984,3.0817,3.0665,3.0179,2.881,2.6418,2.2826,2.0066,1.8514,1.8514,1.7639,1.7112,1.7112,1.7112,1.7112,1.7112,1.4278,1.2863,1.2863,0.995,0.8734,0.8746,0.8926,0.9007,0.9016,0.9105,0.9142,0.9142,0.9142,0.7806,0.59,0.3806,0.1713,-0.0381,8.1914,8.181,8.181,8.181,8.181,8.181,8.181,8.181,8.181,8.181,8.181,8.181,8.181,8.181,8.181,8.181,8.181,8.1707,8.1466,8.1259,8.0776,7.9982,7.8948,7.8292,7.8051,7.7499,7.7223,7.7223,7.7223,7.6519,7.5258,7.5,7.4206,7.2794,7.2014,7.125,7.0726,7.0047,6.8858,6.7305,6.6293,6.529,6.4268,6.3282,6.2942,6.2942,6.2942,6.2942,6.2515,5.9931,5.8789,5.794,5.5238,5.3908,5.2956,5.2427,5.1898,5.1369,5.084,5.0696,5.0696,5.0696,5.0696,5.0696,5.0696,4.9795,4.8453,4.6359,4.502,4.3822,4.2565,4.2422,4.2422,4.2422,4.2422,4.2129,4.1289,3.9707,3.7914,3.6155,3.4392,3.2788,3.0984,3.0817,3.0817,3.0665,2.7941,2.4873,2.1811,2.025,1.9553,1.9553,1.9204,1.903,1.903,1.7805,1.7112,1.7112,1.4278,1.2863,1.2863,0.988,0.8677,0.8738,0.8791,0.8889,0.9007,0.9036,0.9085,0.9142,0.9142,0.7043,0.3806,0.3236,0.0762,-0.2287,8.2776,8.2673,8.2569,8.2293,8.2259,8.2155,8.1845,8.181,8.181,8.181,8.181,8.181,8.181,8.181,8.181,8.181,8.181,8.181,8.181,8.181,8.1569,8.1121,7.9638,7.8706,7.843,7.7637,7.7223,7.7223,7.6918,7.6148,7.4902,7.4605,7.3698,7.2508,7.2154,7.1502,7.0613,6.987,6.8444,6.6663,6.5639,6.4653,6.3777,6.3178,6.2942,6.2942,6.2942,6.2487,6.1626,5.9209,5.7655,5.6239,5.4397,5.3606,5.3221,5.2499,5.2043,5.1634,5.0912,5.0696,5.0696,5.0696,5.0696,5.0696,5.0696,4.9509,4.785,4.6211,4.457,4.3208,4.2585,4.2422,4.2422,4.2422,4.2422,4.2129,4.1289,3.9059,3.7117,3.6155,3.3903,3.1963,3.0817,3.0817,3.0317,2.93,2.6745,2.4201,2.1995,2.0945,2.0424,2.0424,2.0076,1.9892,1.9892,1.8855,1.7805,1.7104,1.4625,1.3034,1.2148,0.9674,0.8636,0.8685,0.8717,0.8795,0.8901,0.8938,0.9007,0.89,0.8142,0.5879,0.2855,0.2094,-0.0381,-0.3434,8.4018,8.4018,8.3811,8.3121,8.3018,8.2776,8.2086,8.1948,8.1914,8.1914,8.1845,8.181,8.181,8.181,8.181,8.181,8.181,8.181,8.181,8.181,8.181,8.181,8.0327,7.9189,7.8499,7.7672,7.7223,7.7223,7.6392,7.5642,7.4902,7.4072,7.3285,7.2508,7.2401,7.183,7.0613,6.9693,6.7907,6.5794,6.4909,6.3908,6.2942,6.2942,6.2942,6.2942,6.2942,6.1923,6.0345,5.8789,5.6239,5.3822,5.3822,5.3822,5.363,5.2644,5.2331,5.2067,5.1056,5.0744,5.0696,5.0696,5.0554,5.0554,5.0696,4.9342,4.7704,4.6211,4.4591,4.3054,4.2585,4.2422,4.2441,4.248,4.2461,4.2148,4.1348,3.8268,3.5994,3.5994,3.2921,3.0817,3.0817,3.0651,2.9635,2.6927,2.5568,2.4041,2.2848,2.1822,2.1475,2.1475,2.0598,2.0076,2.0076,2.0076,1.9195,1.7088,1.5315,1.3375,1.1438,0.9496,0.8607,0.8611,0.8689,0.8726,0.8742,0.8824,0.8913,0.8622,0.6749,0.4713,0.2471,0.0571,-0.1715,-0.3815,8.4121,8.4018,8.3949,8.3811,8.3776,8.3707,8.3569,8.3052,8.2673,8.2673,8.2155,8.181,8.181,8.181,8.181,8.181,8.181,8.181,8.181,8.181,8.181,8.181,8.0327,7.9431,7.9293,7.7913,7.7223,7.7223,7.6392,7.5642,7.4902,7.4072,7.3285,7.2508,7.2046,7.136,7.0613,7.0016,6.8206,6.5919,6.5668,6.4554,6.2942,6.2942,6.2942,6.2942,6.2942,6.1923,6.0208,5.7538,5.5385,5.3822,5.3822,5.3822,5.3702,5.3077,5.2596,5.2139,5.1489,5.1008,5.0696,5.0696,4.9795,4.9198,5.0412,4.8453,4.6359,4.5915,4.3705,4.1875,4.2266,4.2422,4.2539,4.2891,4.2656,4.2246,4.1738,3.8449,3.5994,3.5994,3.2921,3.0817,3.0817,2.9802,2.8628,2.6927,2.5568,2.4041,2.2848,2.2514,2.2341,2.2341,2.2157,2.2157,2.2157,2.2157,2.0414,1.7088,1.5499,1.3912,1.1971,1.0026,0.9143,0.9143,0.8807,0.8673,0.8734,0.8754,0.7896,0.6675,0.6168,0.3755,0.0565,-0.038,-0.1905,-0.4006,8.519,8.5121,8.4984,8.4639,8.457,8.4466,8.4087,8.3673,8.3328,8.2949,8.2569,8.219,8.1845,8.181,8.181,8.181,8.181,8.181,8.181,8.181,8.181,8.181,8.0327,7.95,7.95,7.8017,7.7009,7.6611,7.5832,7.5064,7.4273,7.3492,7.29,7.2508,7.1938,7.125,7.0613,6.9031,6.7457,6.5794,6.4909,6.3806,6.2942,6.2942,6.2942,6.2942,6.2942,6.1491,5.9069,5.5972,5.4546,5.3822,5.3822,5.3822,5.3726,5.3221,5.2692,5.2163,5.1634,5.1105,5.0696,5.0696,4.9509,4.8766,5.0388,4.7558,4.502,4.5766,4.34,4.1426,4.2266,4.2422,4.2558,4.3008,4.2715,4.1946,4.0724,3.7864,3.5672,3.488,3.2443,3.0817,3.0817,2.8964,2.7604,2.6927,2.4885,2.3365,2.2686,2.2686,2.2686,2.2686,2.2686,2.2686,2.2686,2.2686,2.0752,1.708,1.6202,1.4265,1.1449,1.003,0.9322,0.9317,0.8786,0.8632,0.8673,0.8673,0.7631,0.5869,0.4795,0.2595,-0.0187,-0.1696,-0.3227,-0.4577,8.6294,8.6294,8.6122,8.5501,8.5397,8.5156,8.4501,8.4294,8.3983,8.3362,8.3087,8.2673,8.2052,8.1879,8.181,8.181,8.181,8.181,8.181,8.181,8.181,8.181,8.0327,7.95,7.95,7.8017,7.6828,7.5986,7.5258,7.4506,7.3665,7.29,7.2508,7.2508,7.1721,7.114,7.0469,6.7938,6.6481,6.5794,6.3908,6.3046,6.2942,6.2942,6.2942,6.2942,6.2648,6.051,5.7512,5.4819,5.3822,5.3822,5.3822,5.3822,5.3726,5.3317,5.2764,5.2187,5.1754,5.1177,5.0696,5.0696,4.9509,4.8621,4.9961,4.6824,4.3835,4.517,4.3248,4.1426,4.2266,4.2422,4.2558,4.3008,4.2715,4.1625,3.9566,3.7382,3.5349,3.3592,3.1798,3.0817,3.0817,2.8446,2.6758,2.6758,2.4212,2.2686,2.2686,2.2686,2.2686,2.2686,2.2686,2.2686,2.2686,2.2686,2.0752,1.7071,1.6538,1.4434,1.0743,0.9852,0.9496,0.9322,0.8786,0.8607,0.8607,0.8607,0.7384,0.5261,0.3451,0.1462,-0.0738,-0.3179,-0.4534,-0.5517,8.6294,8.6294,8.626,8.6191,8.6156,8.6122,8.6018,8.5466,8.5018,8.4915,8.3742,8.288,8.2776,8.219,8.181,8.181,8.181,8.181,8.181,8.181,8.181,8.181,8.0327,7.95,7.95,7.8017,7.6828,7.5986,7.5258,7.4506,7.3665,7.29,7.2508,7.2508,7.1282,7.0838,7.0582,6.8237,6.6786,6.5794,6.4653,6.3675,6.2942,6.2942,6.2942,6.2781,6.1356,5.8929,5.6118,5.4397,5.3822,5.3822,5.3822,5.3822,5.3798,5.3726,5.3029,5.2259,5.2187,5.1441,5.0696,5.0696,4.9509,4.8308,4.8598,4.5937,4.3532,4.3835,4.235,4.1426,4.2266,4.2422,4.2558,4.3008,4.2715,4.1625,3.9566,3.7382,3.5349,3.3592,3.1798,3.0817,3.0817,2.8446,2.6758,2.6758,2.4212,2.2686,2.2686,2.2686,2.2686,2.2686,2.2686,2.2686,2.2686,2.2686,2.0752,1.7071,1.6538,1.4611,1.1277,1.0387,0.9852,0.9852,0.8964,0.8607,0.8607,0.8607,0.6458,0.3234,0.29,0.0364,-0.3294,-0.4477,-0.5453,-0.6033,8.6294,8.6294,8.6294,8.6294,8.6294,8.6294,8.6294,8.6018,8.5673,8.5259,8.4604,8.388,8.2983,8.2259,8.181,8.181,8.181,8.181,8.181,8.181,8.181,8.181,8.0327,7.95,7.95,7.7583,7.6114,7.5354,7.5097,7.4306,7.2972,7.2688,7.2508,7.2508,7.1282,7.0356,6.9724,6.7487,6.6044,6.5036,6.3908,6.3282,6.2942,6.2942,6.2942,6.2648,6.0208,5.794,5.5826,5.4248,5.3822,5.3822,5.3822,5.3822,5.3822,5.3822,5.3101,5.2283,5.2283,5.1513,5.0696,5.0696,4.8766,4.6971,4.6971,4.444,4.2503,4.338,4.2396,4.1699,4.2305,4.2617,4.2851,4.3047,4.2715,4.1285,3.824,3.6719,3.5025,3.2293,3.1316,3.0817,3.0817,2.8446,2.6758,2.6758,2.4212,2.2686,2.2686,2.2686,2.2686,2.2686,2.2686,2.2686,2.2686,2.2686,2.1282,1.8645,1.7063,1.4434,1.1099,1.003,0.9674,0.9496,0.8964,0.8607,0.8607,0.8607,0.6273,0.2868,0.2519,-0.0362,-0.4559,-0.497,-0.5562,-0.6156]},{"header":{"parameterUnit":"m.s-1","parameterCategory":1,"la1":30.6,"la2":28.766,"lo1":-90.7593,"lo2":-88.6598,"dx":0.0162,"dy":0.0183,"nx":116,"ny":114,"refTime":"2023-02-11T06:00:00:Z","depth":0,"parameterNumber":3,"parameterNumberName":"V-component_of_WINDS"},"data":[0.0,0.0,0.0,0.0,0.0,0.0,0.0,0.0,0.0,0.0,0.0,0.0,0.0,0.0,0.0,0.0,0.0,0.0,0.0,0.0,0.0,0.0,0.0,0.0,0.0,0.0,0.0,0.0,0.0,0.0,0.0,0.0,0.0,0.0,0.0,0.0,0.0,0.0,0.0,0.0,0.0,0.0,0.0,0.0,0.0,0.0,0.0,0.0,0.0,0.0,0.0,0.0,0.0,0.0,0.0,0.0,0.0,0.0,0.0,0.0,0.0,0.0,0.0,0.0,0.0,0.0,0.0,0.0,0.0,0.0,0.0,0.0,0.0,0.0,0.0,0.0,0.0,0.0,0.0,0.0,0.0,0.0,0.0,0.0,0.0,0.0,0.0,0.0,0.0,0.0,0.0,0.0,0.0,0.0,0.0,0.0,0.0,0.0,0.0,0.0,0.0,0.0,0.0,0.0,0.0,0.0,0.0,0.0,0.0,0.0,0.0,0.0,0.0,0.0,0.0,0.0,0.0,0.0,0.0,0.0,0.0,0.0,0.0,0.0,0.0,0.0,0.0,0.0,0.0,0.0,0.0,0.0,0.0,0.0,0.0,0.0,0.0,0.0,0.0,0.0,0.0,0.0,0.0,0.0,0.0,0.0,0.0,0.0,0.0,0.0,0.0,0.0,0.0,0.0,0.0,0.0,0.0,0.0,0.0,0.0,0.0,0.0,0.0,0.0,0.0,0.0,0.0,0.0,0.0,0.0,0.0,0.0,0.0,0.0,0.0,0.0,0.0,0.0,0.0,0.0,0.0,0.0,0.0,0.0,0.0,0.0,0.0,0.0,0.0,0.0,0.0,0.0,0.0,0.0,0.0,0.0,0.0,0.0,0.0,0.0,0.0,0.0,0.0,0.0,0.0,0.0,0.0,0.0,0.0,0.0,0.0,0.0,0.0,0.0,0.0,0.0,0.0,0.0,0.0,0.0,0.0,0.0,0.0,0.0,0.0,0.0,0.0,0.0,0.0,0.0,0.0,0.0,0.0,0.0,0.0,0.0,0.0,0.0,0.0,0.0,0.0,0.0,0.0,0.0,0.0,0.0,0.0,0.0,0.0,0.0,0.0,0.0,0.0,0.0,0.0,0.0,0.0,0.0,0.0,0.0,0.0,0.0,0.0,0.0,0.0,0.0,0.0,0.0,0.0,0.0,0.0,0.0,0.0,0.0,0.0,0.0,0.0,0.0,0.0,0.0,0.0,0.0,0.0,0.0,0.0,0.0,0.0,0.0,0.0,0.0,0.0,0.0,0.0,0.0,0.0,0.0,0.0,0.0,0.0,0.0,0.0,0.0,0.0,0.0,0.0,0.0,0.0,0.0,0.0,0.0,0.0,0.0,0.0,0.0,0.0,0.0,0.0,0.0,0.0,0.0,0.0,0.0,0.0,0.0,0.0,0.0,0.0,0.0,0.0,0.0,0.0,0.0,0.0,0.0,0.0,0.0,0.0,0.0,0.0,0.0,0.0,0.0,0.0,0.0,0.0,0.0,0.0,0.0,0.0,0.0,0.0,0.0,0.0,0.0,0.0,0.0,0.0,0.0,0.0,0.0,0.0,0.0,0.0,0.0,0.0,0.0,0.0,0.0,0.0,0.0,0.0,0.0,0.0,0.0,0.0,0.0,0.0,0.0,0.0,0.0,0.0,0.0,0.0,0.0,0.0,0.0,0.0,0.0,0.0,0.0,0.0,0.0,0.0,0.0,0.0,0.0,0.0,0.0,0.0,0.0,0.0,0.0,0.0,0.0,0.0,0.0,0.0,0.0,0.0,0.0,0.0,0.0,0.0,0.0,0.0,0.0,0.0,0.0,0.0,0.0,0.0,0.0,0.0,0.0,0.0,0.0,0.0,0.0,0.0,0.0,0.0,0.0,0.0,0.0,0.0,0.0,0.0,0.0,0.0,0.0,0.0,0.0,0.0,0.0,0.0,0.0,0.0,0.0,0.0,0.0,0.0,0.0,0.0,0.0,0.0,0.0,0.0,0.0,0.0,0.0,0.0,0.0,0.0,0.0,0.0,0.0,0.0,0.0,0.0,0.0,0.0,0.0,0.0,0.0,0.0,0.0,0.0,0.0,0.0,0.0,0.0,0.0,0.0,0.0,0.0,0.0,0.0,0.0,0.0,0.0,0.0,0.0,0.0,0.0,0.0,0.0,0.0,0.0,0.0,0.0,0.0,0.0,0.0,0.0,0.0,0.0,0.0,0.0,0.0,0.0,0.0,0.0,0.0,0.0,0.0,0.0,0.0,0.0,0.0,0.0,0.0,0.0,0.0,0.0,0.0,0.0,0.0,0.0,0.0,0.0,0.0,0.0,0.0,0.0,0.0,0.0,0.0,0.0,0.0,0.0,0.0,0.0,0.0,0.0,0.0,0.0,0.0,0.0,0.0,0.0,0.0,0.0,0.0,0.0,0.0,0.0,0.0,0.0,0.0,0.0,0.0,0.0,0.0,0.0,0.0,0.0,0.0,0.0,0.0,0.0,0.0,0.0,0.0,0.0,0.0,0.0,0.0,0.0,0.0,0.0,0.0,0.0,0.0,0.0,0.0,0.0,0.0,0.0,0.0,0.0,0.0,0.0,0.0,0.0,0.0,0.0,0.0,0.0,0.0,0.0,0.0,0.0,0.0,0.0,0.0,0.0,0.0,0.0,0.0,0.0,0.0,0.0,0.0,0.0,0.0,0.0,0.0,0.0,0.0,0.0,0.0,0.0,0.0,0.0,0.0,0.0,0.0,0.0,0.0,0.0,0.0,0.0,0.0,0.0,0.0,0.0,0.0,0.0,0.0,0.0,0.0,0.0,0.0,0.0,0.0,0.0,0.0,0.0,0.0,0.0,0.0,0.0,0.0,0.0,0.0,0.0,0.0,0.0,0.0,0.0,0.0,0.0,0.0,0.0,0.0,0.0,0.0,0.0,0.0,0.0,0.0,0.0,0.0,0.0,0.0,0.0,0.0,0.0,0.0,0.0,0.0,0.0,0.0,0.0,0.0,0.0,0.0,0.0,0.0,0.0,0.0,0.0,0.0,0.0,0.0,0.0,0.0,0.0,0.0,0.0,0.0,0.0,0.0,0.0,0.0,0.0,0.0,0.0,0.0,0.0,0.0,0.0,0.0,0.0,0.0,0.0,0.0,0.0,0.0,0.0,0.0,0.0,0.0,0.0,0.0,0.0,0.0,0.0,0.0,0.0,0.0,0.0,0.0,0.0,0.0,0.0,0.0,0.0,0.0,0.0,0.0,0.0,0.0,0.0,0.0,0.0,0.0,0.0,0.0,0.0,0.0,0.0,0.0,0.0,0.0,0.0,0.0,0.0,0.0,0.0,0.0,0.0,0.0,0.0,0.0,0.0,0.0,0.0,0.0,0.0,0.0,0.0,0.0,0.0,0.0,0.0,0.0,0.0,0.0,0.0,0.0,0.0,0.0,0.0,0.0,0.0,0.0,0.0,0.0,0.0,0.0,0.0,0.0,0.0,0.0,0.0,0.0,0.0,0.0,0.0,0.0,0.0,0.0,0.0,0.0,0.0,0.0,0.0,0.0,0.0,0.0,0.0,0.0,0.0,0.0,0.0,0.0,0.0,0.0,0.0,0.0,0.0,0.0,0.0,0.0,0.0,0.0,0.0,0.0,0.0,0.0,0.0,0.0,0.0,0.0,0.0,0.0,0.0,0.0,0.0,0.0,0.0,0.0,0.0,0.0,0.0,0.0,0.0,0.0,0.0,0.0,0.0,0.0,0.0,0.0,0.0,0.0,0.0,0.0,0.0,0.0,0.0,0.0,0.0,0.0,0.0,0.0,0.0,0.0,0.0,0.0,0.0,0.0,0.0,0.0,0.0,0.0,0.0,0.0,0.0,0.0,0.0,0.0,0.0,0.0,0.0,0.0,0.0,0.0,0.0,0.0,0.0,0.0,0.0,0.0,0.0,0.0,0.0,0.0,0.0,0.0,0.0,0.0,0.0,0.0,0.0,0.0,0.0,0.0,0.0,0.0,0.0,0.0,0.0,0.0,0.0,0.0,0.0,0.0,0.0,0.0,0.0,0.0,0.0,0.0,0.0,0.0,0.0,0.0,0.0,0.0,0.0,0.0,0.0,0.0,0.0,0.0,0.0,0.0,0.0,0.0,0.0,0.0,0.0,0.0,0.0,0.0,0.0,0.0,0.0,0.0,0.0,0.0,0.0,0.0,0.0,0.0,0.0,0.0,0.0,0.0,0.0,0.0,0.0,0.0,0.0,0.0,0.0,0.0,0.0,0.0,0.0,0.0,0.0,0.0,0.0,0.0,0.0,0.0,0.0,0.0,0.0,0.0,0.0,0.0,0.0,0.0,0.0,0.0,0.0,0.0,0.0,0.0,0.0,0.0,0.0,0.0,0.0,0.0,0.0,0.0,0.0,0.0,0.0,0.0,0.0,0.0,0.0,0.0,0.0,0.0,0.0,0.0,0.0,0.0,0.0,0.0,0.0,0.0,0.0,0.0,0.0,0.0,0.0,0.0,0.0,0.0,0.0,0.0,0.0,0.0,0.0,0.0,0.0,0.0,0.0,0.0,0.0,0.0,0.0,0.0,0.0,0.0,0.0,0.0,0.0,0.0,0.0,0.0,0.0,0.0,0.0,0.0,0.0,0.0,0.0,0.0,0.0,0.0,0.0,0.0,0.0,0.0,0.0,0.0,0.0,0.0,0.0,0.0,0.0,0.0,0.0,0.0,0.0,0.0,0.0,0.0,0.0,0.0,0.0,0.0,0.0,0.0,0.0,0.0,0.0,0.0,0.0,0.0,0.0,0.0,0.0,0.0,0.0,0.0,0.0,0.0,0.0,0.0,0.0,0.0,0.0,0.0,0.0,0.0,0.0,0.0,0.0,0.0,0.0,0.0,0.0,0.0,0.0,0.0,0.0,0.0,0.0,0.0,0.0,0.0,0.0,0.0,0.0,0.0,0.0,0.0,0.0,0.0,0.0,0.0,0.0,0.0,0.0,0.0,0.0,0.0,0.0,0.0,0.0,0.0,0.0,0.0,0.0,0.0,0.0,0.0,0.0,0.0,0.0,0.0,0.0,0.0,0.0,0.0,0.0,0.0,0.0,0.0,0.0,0.0,0.0,0.0,0.0,0.0,0.0,0.0,0.0,0.0,0.0,0.0,0.0,0.0,0.0,0.0,0.0,0.0,0.0,0.0,0.0,0.0,0.0,0.0,0.0,0.0,0.0,0.0,0.0,0.0,0.0,0.0,0.0,0.0,0.0,0.0,0.0,0.0,0.0,0.0,0.0,0.0,0.0,0.0,0.0,0.0,0.0,0.0,0.0,0.0,0.0,0.0,0.0,0.0,0.0,0.0,0.0,0.0,0.0,0.0,0.0,0.0,0.0,0.0,0.0,0.0,0.0,0.0,0.0,0.0,0.0,0.0,0.0,0.0,0.0,0.0,0.0,0.0,0.0,0.0,0.0,0.0,0.0,0.0,0.0,0.0,0.0,0.0,0.0,0.0,0.0,0.0,0.0,0.0,0.0,0.0,0.0,0.0,0.0,0.0,0.0,0.0,0.0,0.0,0.0,0.0,0.0,0.0,0.0,0.0,0.0,0.0,0.0,0.0,0.0,0.0,0.0,0.0,0.0,0.0,0.0,0.0,0.0,0.0,0.0,0.0,0.0,0.0,0.0,0.0,0.0,0.0,0.0,0.0,0.0,0.0,0.0,0.0,0.0,0.0,0.0,0.0,0.0,0.0,0.0,0.0,0.0,0.0,0.0,0.0,0.0,0.0,0.0,0.0,0.0,0.0,0.0,0.0,0.0,0.0,0.0,0.0,0.0,0.0,0.0,0.0,0.0,0.0,0.0,0.0,0.0,0.0,0.0,0.0,0.0,0.0,0.0,0.0,0.0,0.0,0.0,0.0,0.0,0.0,0.0,0.0,0.0,0.0,0.0,0.0,0.0,0.0,0.0,0.0,0.0,0.0,0.0,0.0,0.0,0.0,0.0,0.0,0.0,0.0,0.0,0.0,0.0,0.0,0.0,0.0,0.0,0.0,0.0,0.0,0.0,0.0,0.0,0.0,0.0,0.0,0.0,-6.134,-6.1599,0.0,0.0,0.0,0.0,0.0,0.0,0.0,0.0,0.0,0.0,0.0,0.0,0.0,0.0,0.0,0.0,0.0,0.0,0.0,0.0,0.0,0.0,0.0,0.0,0.0,0.0,0.0,0.0,0.0,0.0,0.0,0.0,0.0,0.0,0.0,0.0,0.0,0.0,0.0,0.0,0.0,0.0,0.0,0.0,0.0,0.0,0.0,0.0,0.0,0.0,0.0,0.0,0.0,0.0,0.0,0.0,0.0,0.0,0.0,0.0,0.0,0.0,0.0,0.0,0.0,0.0,0.0,0.0,0.0,0.0,0.0,0.0,0.0,0.0,0.0,0.0,0.0,0.0,0.0,0.0,0.0,0.0,0.0,0.0,0.0,0.0,0.0,0.0,0.0,0.0,0.0,0.0,0.0,0.0,0.0,0.0,0.0,0.0,0.0,0.0,0.0,0.0,0.0,0.0,0.0,0.0,0.0,0.0,0.0,0.0,0.0,0.0,0.0,0.0,-6.3259,-6.3415,0.0,0.0,0.0,0.0,0.0,0.0,0.0,0.0,0.0,0.0,0.0,0.0,0.0,0.0,0.0,0.0,0.0,0.0,0.0,0.0,0.0,0.0,0.0,0.0,0.0,0.0,0.0,0.0,0.0,0.0,0.0,0.0,0.0,0.0,0.0,0.0,0.0,0.0,0.0,0.0,0.0,0.0,0.0,0.0,0.0,0.0,0.0,0.0,0.0,0.0,0.0,0.0,0.0,0.0,0.0,0.0,0.0,0.0,0.0,0.0,0.0,0.0,0.0,0.0,0.0,0.0,0.0,0.0,0.0,0.0,0.0,0.0,0.0,0.0,0.0,0.0,0.0,0.0,0.0,0.0,0.0,0.0,0.0,0.0,0.0,0.0,0.0,0.0,0.0,0.0,0.0,0.0,0.0,0.0,0.0,0.0,0.0,0.0,0.0,0.0,0.0,0.0,0.0,0.0,0.0,0.0,0.0,0.0,-6.1124,-6.2246,-6.3546,-6.4544,-6.532,-6.5805,-6.564,-6.5765,-6.6335,-6.7302,0.0,0.0,0.0,0.0,0.0,0.0,0.0,0.0,0.0,0.0,0.0,0.0,0.0,0.0,0.0,0.0,0.0,0.0,0.0,0.0,0.0,0.0,0.0,0.0,0.0,0.0,0.0,0.0,0.0,0.0,0.0,0.0,0.0,0.0,0.0,0.0,0.0,0.0,-4.7391,-4.7391,-4.7391,-4.7494,-4.8078,0.0,0.0,0.0,0.0,0.0,0.0,0.0,0.0,0.0,0.0,0.0,0.0,0.0,0.0,0.0,0.0,0.0,0.0,0.0,0.0,0.0,0.0,0.0,0.0,0.0,0.0,0.0,0.0,0.0,0.0,0.0,0.0,0.0,0.0,0.0,0.0,0.0,0.0,0.0,0.0,0.0,0.0,0.0,-5.5155,-5.5155,0.0,0.0,0.0,0.0,0.0,0.0,0.0,0.0,0.0,0.0,0.0,0.0,0.0,-5.7523,-5.8297,-5.9225,-6.0305,-6.152,-6.2415,-6.3099,-6.3725,-6.4753,-6.5837,-6.7015,-6.8378,0.0,-6.6154,-6.6709,0.0,0.0,0.0,0.0,0.0,0.0,0.0,0.0,0.0,0.0,0.0,0.0,0.0,0.0,0.0,0.0,0.0,0.0,0.0,0.0,0.0,0.0,0.0,0.0,0.0,0.0,0.0,0.0,0.0,0.0,0.0,0.0,0.0,0.0,0.0,0.0,-4.7494,-4.7184,-4.6901,-4.6901,-4.6901,-4.6901,-4.7438,-4.7902,-4.8106,-4.8471,0.0,0.0,0.0,0.0,0.0,0.0,0.0,0.0,0.0,0.0,0.0,0.0,0.0,0.0,0.0,0.0,0.0,0.0,0.0,0.0,0.0,0.0,0.0,0.0,0.0,0.0,0.0,0.0,0.0,0.0,0.0,0.0,0.0,0.0,0.0,0.0,0.0,0.0,0.0,-5.5068,-5.5416,-5.5416,-5.5416,-5.5416,0.0,0.0,0.0,0.0,0.0,0.0,0.0,0.0,0.0,-5.6926,-5.8068,-5.8837,-5.9169,-6.0913,-6.1994,-6.2619,-6.3412,-6.4507,-6.5618,-6.6647,-6.7994,-6.9477,-7.0799,-7.0769,-6.9829,-6.9987,-7.0343,-7.0652,0.0,0.0,0.0,0.0,-7.3799,-7.3956,0.0,0.0,0.0,0.0,0.0,0.0,0.0,0.0,0.0,0.0,0.0,0.0,0.0,0.0,0.0,-4.5522,0.0,0.0,0.0,0.0,0.0,0.0,0.0,0.0,0.0,0.0,0.0,-4.7288,-4.7184,-4.6901,-4.6482,-4.6618,-4.6699,-4.6727,-4.7323,-4.7773,-4.7949,-4.859,-4.8841,0.0,0.0,0.0,0.0,0.0,0.0,0.0,0.0,0.0,0.0,0.0,0.0,0.0,0.0,0.0,0.0,0.0,0.0,0.0,0.0,0.0,0.0,0.0,0.0,0.0,0.0,0.0,0.0,0.0,0.0,0.0,0.0,0.0,0.0,0.0,0.0,0.0,0.0,-5.5794,-5.5881,-5.5881,-5.5881,-5.5881,0.0,0.0,0.0,0.0,0.0,0.0,-5.7274,-5.7477,-5.7565,-5.7565,-5.9079,-6.0075,-6.0296,-6.2273,-6.3357,-6.3859,-6.4444,-6.5714,-6.7426,-6.8364,-6.9695,-7.13,-7.2296,-7.2671,-7.2671,-7.2671,-7.2671,-7.2755,-7.2887,-7.297,-7.3101,-7.4033,-7.4416,-7.4606,0.0,0.0,0.0,0.0,0.0,0.0,0.0,0.0,0.0,0.0,0.0,0.0,0.0,0.0,-4.6127,-4.6645,-4.6732,-4.6992,0.0,0.0,0.0,0.0,0.0,0.0,0.0,0.0,0.0,-4.7288,-4.6796,-4.6587,-4.6482,-4.7052,-4.7296,-4.7351,-4.792,-4.7866,-4.7457,-4.8056,-4.8517,-4.9218,0.0,0.0,0.0,0.0,0.0,0.0,0.0,0.0,0.0,0.0,0.0,0.0,0.0,0.0,0.0,0.0,0.0,0.0,0.0,0.0,0.0,0.0,0.0,0.0,0.0,0.0,0.0,0.0,0.0,0.0,0.0,0.0,0.0,0.0,0.0,0.0,0.0,0.0,0.0,-5.7216,-5.7216,0.0,0.0,0.0,0.0,-5.7245,-5.7245,-5.7274,-5.7303,-5.7913,-5.8261,-5.8261,-5.9758,-6.0954,-6.1728,-6.2702,-6.3953,-6.5511,-6.5511,-6.6448,-6.8139,-6.9088,-7.0163,-7.13,-7.2296,-7.2671,-7.2671,-7.2671,-7.2671,-7.2755,-7.3437,-7.3721,-7.3956,-7.5512,-7.6068,-7.6203,0.0,0.0,0.0,0.0,0.0,0.0,0.0,0.0,0.0,0.0,0.0,0.0,0.0,-4.597,-4.6102,-4.6332,-4.7108,-4.7683,-4.7913,0.0,0.0,0.0,0.0,0.0,0.0,0.0,-4.7288,-4.6796,-4.6968,-4.7052,-4.7052,-4.7649,-4.792,-4.7948,-4.8545,-4.8707,-4.8517,-4.8735,-4.8926,-4.92,-5.0436,-5.1232,0.0,0.0,0.0,0.0,0.0,0.0,0.0,0.0,0.0,0.0,0.0,0.0,0.0,0.0,0.0,0.0,0.0,0.0,0.0,0.0,0.0,0.0,0.0,0.0,0.0,0.0,0.0,0.0,0.0,0.0,0.0,0.0,0.0,0.0,0.0,0.0,0.0,-5.7303,-5.7303,0.0,-5.7303,-5.7303,-5.7303,-5.7303,-5.771,-5.7942,-5.7942,-5.8581,-5.8958,-5.8958,-6.0975,-6.2203,-6.2536,-6.4412,-6.5639,-6.6238,-6.6238,-6.7202,-6.9024,-6.9409,-7.0565,-7.221,-7.2586,-7.2671,-7.2671,-7.2671,-7.2671,-7.2755,-7.297,-7.3392,-7.3956,-7.501,-7.5757,-7.627,0.0,0.0,0.0,0.0,0.0,0.0,0.0,0.0,0.0,0.0,0.0,-4.5982,-4.6185,-4.6287,-4.6505,-4.6936,-4.7549,-4.815,-4.8546,0.0,0.0,0.0,0.0,0.0,0.0,-4.7494,-4.7087,-4.6781,-4.7161,-4.7459,-4.7676,-4.8273,-4.8545,-4.8572,-4.9169,-4.9413,-4.9413,-4.9413,-4.9413,-4.9467,-5.0518,-5.1128,-5.1568,0.0,0.0,0.0,0.0,0.0,0.0,0.0,0.0,0.0,0.0,0.0,0.0,0.0,0.0,0.0,0.0,0.0,0.0,0.0,0.0,0.0,0.0,0.0,0.0,0.0,0.0,0.0,0.0,0.0,0.0,0.0,0.0,0.0,0.0,-5.7303,-5.7303,-5.7303,-5.7303,-5.739,-5.7623,-5.7652,-5.7739,-5.7971,-5.8406,-5.8639,-5.8639,-5.9248,-5.9714,-6.0063,-6.2085,-6.3346,-6.3648,-6.5589,-6.6617,-6.6586,-6.6974,-6.8004,-6.9599,-7.001,-7.1053,-7.2671,-7.2671,-7.2671,-7.2671,-7.2671,-7.2671,-7.2755,-7.297,-7.3552,-7.434,-7.5083,-7.5895,-7.6636,0.0,0.0,0.0,0.0,0.0,0.0,0.0,0.0,0.0,0.0,-4.5895,-4.6156,-4.6766,-4.6853,-4.7375,-4.8624,-4.8229,-4.8419,-4.964,-4.9178,0.0,0.0,0.0,0.0,-4.7288,-4.7315,-4.7306,-4.7351,-4.7405,-4.7703,-4.8273,-4.887,-4.9169,-4.9169,-4.9766,-5.001,-5.001,-5.001,-5.001,-5.001,-5.0683,-5.0906,-5.1017,0.0,0.0,0.0,0.0,0.0,0.0,0.0,0.0,0.0,0.0,0.0,0.0,0.0,0.0,0.0,0.0,0.0,0.0,0.0,0.0,0.0,0.0,0.0,0.0,0.0,0.0,0.0,0.0,0.0,0.0,0.0,0.0,0.0,-5.7303,-5.7332,-5.7332,-5.7332,-5.7361,-5.7623,-5.8261,-5.8348,-5.861,-5.9248,-5.9335,-5.9335,-5.9335,-5.9887,-6.0677,-6.1575,-6.3086,-6.432,-6.5235,-6.6161,-6.6617,-6.6691,-6.7631,-6.8667,-6.9694,-7.069,-7.1742,-7.2671,-7.2671,-7.2671,-7.2671,-7.2671,-7.2671,-7.2838,-7.3517,-7.434,-7.5083,-7.5895,-7.67,-7.7304,0.0,0.0,0.0,0.0,0.0,0.0,0.0,0.0,0.0,0.0,-4.6272,-4.665,-4.6795,-4.7637,-4.8333,-4.8682,-4.8661,-4.8907,-4.9669,0.0,0.0,0.0,0.0,0.0,-4.7288,-4.7311,-4.7401,-4.7351,-4.8219,-4.8735,-4.8897,-4.9494,-4.9766,-4.9766,-4.9956,-5.001,-5.001,-5.001,-5.001,-5.001,-5.0235,-5.046,-5.0906,0.0,0.0,0.0,0.0,0.0,0.0,0.0,0.0,0.0,0.0,0.0,0.0,0.0,0.0,0.0,0.0,0.0,0.0,0.0,0.0,0.0,0.0,0.0,0.0,0.0,0.0,0.0,0.0,0.0,0.0,0.0,-5.8454,-5.7855,-5.7361,-5.771,-5.8029,-5.8029,-5.8464,-5.8813,-5.9016,-5.9016,-5.9103,-5.9306,-5.9713,-5.9945,-5.9945,-6.1234,-6.2025,-6.2228,-6.3893,-6.5016,-6.5235,-6.6161,-6.6974,-6.7733,-6.8004,-6.9057,-7.0781,-7.1086,-7.1742,-7.2671,-7.2671,-7.2671,-7.2671,-7.2671,-7.3053,-7.3517,-7.3721,-7.434,-7.5083,-7.5895,-7.67,-7.7304,0.0,0.0,0.0,0.0,0.0,0.0,0.0,0.0,0.0,0.0,-4.6592,-4.7027,-4.7579,-4.8275,-4.8827,-4.9088,-4.8977,-4.9079,-4.9669,0.0,0.0,0.0,0.0,-4.7322,-4.7361,-4.7401,-4.7595,-4.811,-4.8789,-4.925,-4.9494,-4.9847,-5.001,-5.001,-5.001,-5.001,-5.001,-5.001,-5.001,-5.001,-5.001,-5.0235,-5.0572,-5.0795,-5.1128,-5.1458,-5.1677,-5.1787,-5.1896,-5.2221,0.0,0.0,0.0,0.0,0.0,0.0,0.0,0.0,0.0,0.0,0.0,0.0,0.0,0.0,0.0,0.0,0.0,0.0,0.0,0.0,0.0,0.0,0.0,0.0,-5.8866,-5.8581,-5.8203,-5.8464,-5.8726,-5.8726,-5.9074,-5.9393,-5.9655,-5.9684,-5.98,-6.0061,-6.0409,-6.0613,-6.0613,-6.1851,-6.2612,-6.3074,-6.4432,-6.5344,-6.5808,-6.6374,-6.7046,-6.8072,-6.8568,-6.9633,-7.121,-7.1654,-7.2124,-7.2671,-7.2671,-7.2671,-7.2671,-7.2671,-7.3101,0.0,0.0,0.0,0.0,0.0,-7.6893,-7.7304,0.0,0.0,0.0,0.0,0.0,0.0,0.0,0.0,0.0,0.0,0.0,-4.7462,-4.8595,-4.8702,-4.8963,-4.9611,-4.9178,-4.898,0.0,0.0,0.0,-4.7288,-4.7267,-4.7334,-4.7351,-4.7486,-4.8083,-4.9114,-4.9196,-4.9494,-5.001,-5.001,-5.001,-5.001,-5.001,-5.001,-5.001,-5.001,-5.001,-5.001,-5.001,-5.001,-5.001,-5.0572,-5.0795,-5.0906,-5.1458,-5.1568,-5.1568,-5.1762,0.0,0.0,0.0,0.0,0.0,0.0,0.0,0.0,0.0,0.0,0.0,0.0,0.0,0.0,0.0,0.0,0.0,0.0,0.0,0.0,0.0,0.0,0.0,0.0,-5.9016,-5.9422,-5.951,-5.951,-5.948,-5.9422,-5.948,-5.9713,-6.0264,-6.0322,-6.0555,-6.1164,-6.1193,-6.1193,-6.1193,-6.2087,0.0,0.0,0.0,-6.5808,-6.6617,-6.6617,-6.7149,-6.8271,-6.9121,-7.0196,-7.1389,-7.2296,-7.2671,-7.2671,-7.2671,-7.2671,-7.2671,-7.2671,-7.3183,-7.3956,-7.4033,-7.501,-7.6403,-7.7056,-7.7304,-7.7304,0.0,0.0,0.0,0.0,0.0,0.0,0.0,0.0,0.0,-4.6795,-4.7724,-4.8449,-4.8711,-4.8816,-4.9063,-4.9669,-4.8781,-4.828,0.0,0.0,-4.7494,-4.7288,-4.7339,-4.7349,-4.7351,-4.83,-4.8897,-4.9114,-4.9603,-4.9901,-5.001,-5.001,-5.001,-5.001,-5.001,-5.001,-5.001,-5.001,-5.001,-5.001,-5.001,-5.001,-5.001,-5.0123,-5.0123,-5.0235,-5.0348,-5.0348,-5.0542,-5.1458,-5.1849,-5.1932,-5.2911,-5.3304,0.0,0.0,0.0,0.0,0.0,0.0,0.0,0.0,0.0,0.0,0.0,0.0,0.0,0.0,0.0,0.0,0.0,0.0,0.0,-5.9772,-5.9945,-6.0206,-6.0758,-6.0816,-6.0642,-6.009,-6.0496,-6.0874,-6.099,-6.1019,-6.1048,-6.1193,-6.1193,-6.1193,-6.1193,-6.2758,-6.3759,-6.3872,-6.5483,-6.6374,-6.6617,-6.6617,-6.7561,-6.9313,-6.9504,0.0,-7.2416,-7.2586,-7.2671,-7.2671,-7.2671,-7.2671,-7.2671,-7.2671,-7.3552,-7.4864,-7.5441,-7.6336,-7.7118,-7.7243,-7.7304,-7.7304,0.0,0.0,0.0,0.0,0.0,0.0,0.0,0.0,0.0,0.0,-4.8333,-4.8856,-4.9175,-4.93,-4.9375,-4.9669,-4.898,0.0,0.0,-4.7596,-4.7322,-4.7311,-4.7401,-4.7649,-4.8246,-4.8816,-4.9277,-4.9576,-4.9874,-5.001,-5.001,-5.001,-5.001,-5.001,-5.001,-5.001,-5.001,-5.001,-5.001,-5.001,-5.001,-5.02,-5.0417,-5.0118,-5.02,-5.0444,-5.0444,-5.0661,-5.096,-5.1604,-5.1829,-5.1884,-5.2531,-5.2872,-5.3385,0.0,0.0,0.0,0.0,0.0,0.0,0.0,0.0,0.0,0.0,0.0,0.0,0.0,0.0,-5.9638,-5.8997,0.0,-6.0003,-6.0208,-6.0467,-6.0816,-6.1164,-6.1193,-6.1077,-6.0729,-6.099,-6.1193,-6.1193,-6.1193,-6.1193,-6.1193,-6.1193,-6.1404,-6.185,-6.3189,-6.4097,-6.4574,-6.5915,-6.6617,-6.6617,-6.7078,-6.8104,-6.9599,-7.0103,-7.1266,-7.2671,-7.2671,-7.2671,-7.2671,-7.2671,-7.2671,-7.2755,-7.3552,-7.4264,-7.5155,-7.6336,-7.6993,-7.7304,-7.7304,-7.7304,-7.7304,0.0,0.0,0.0,0.0,0.0,0.0,0.0,0.0,0.0,0.0,-4.8827,-4.9117,-4.9611,-4.9571,-4.9571,0.0,0.0,0.0,0.0,-4.7604,-4.7389,-4.7457,-4.7568,-4.8138,-4.9114,-4.9223,-4.9521,-5.001,-5.001,-5.001,-5.001,-5.001,-5.001,-5.001,-5.001,-5.001,-5.001,-5.0146,-5.0173,-5.02,-5.0308,-5.0661,-5.1014,-5.0553,-5.0661,-5.1068,-5.1068,-5.151,-5.1972,-5.1964,-5.1991,-5.2135,-5.2244,-5.2623,-5.3287,-5.4569,-5.531,0.0,0.0,0.0,0.0,0.0,0.0,0.0,0.0,-5.8305,-5.8335,-5.8453,-5.9007,-5.9256,-5.8725,-5.951,-6.0235,-6.038,-6.0845,-6.1193,-6.1193,-6.1193,-6.1193,-6.1193,-6.1193,-6.1193,-6.1193,-6.1193,-6.1193,-6.1193,-6.1313,-6.1732,-6.2525,-6.3532,-6.4432,-6.5125,-6.613,-6.6617,-6.6617,-6.7631,-6.8568,-6.9599,-7.069,-7.1742,-7.2671,-7.2671,-7.2671,-7.2671,-7.2671,-7.2671,-7.2838,-7.434,-7.501,-7.5155,-7.6664,-7.7304,-7.7304,-7.7304,-7.7304,-7.7304,0.0,0.0,0.0,0.0,0.0,0.0,0.0,0.0,0.0,0.0,0.0,0.0,0.0,0.0,0.0,0.0,0.0,0.0,-4.8078,-4.768,-4.7403,-4.7351,-4.8355,-4.8979,-4.9114,-4.9657,-4.9956,-5.001,-5.001,-5.001,-5.001,-5.001,-5.001,-5.001,-5.001,-5.001,-5.0064,-5.058,-5.0797,-5.0851,-5.1394,-5.1665,-5.1719,-5.1638,-5.1665,-5.1719,-5.1719,-5.2123,-5.2724,-5.2661,-5.2943,-5.3468,-5.4019,-5.4185,-5.454,-5.5791,-5.6308,-5.6423,-5.7162,-5.7303,-5.7303,-5.7303,-5.7303,-5.7303,0.0,-5.7416,-5.759,-5.8172,-5.8346,-5.8754,-5.9771,-6.009,-6.038,-6.099,-6.1164,-6.1193,-6.1193,-6.1193,-6.1193,-6.1193,-6.1193,-6.1193,-6.1193,-6.1193,-6.1193,-6.1193,-6.1969,-6.2409,-6.2496,-6.4097,-6.5125,-6.5235,-6.613,-6.6617,-6.6617,-6.7631,-6.8568,-6.9599,-7.069,-7.1742,-7.2671,-7.2671,-7.2671,-7.2671,-7.2671,-7.2671,-7.2838,-7.434,-7.501,-7.5155,-7.6664,-7.7304,-7.7304,-7.7304,-7.7304,-7.7304,0.0,0.0,0.0,0.0,0.0,0.0,0.0,0.0,0.0,0.0,0.0,0.0,0.0,0.0,0.0,0.0,0.0,0.0,-4.8612,-4.7851,-4.7676,-4.8355,-4.887,-4.9277,-4.963,-4.9874,-5.001,-5.001,-5.001,-5.001,-5.001,-5.001,-5.001,-5.001,-5.001,-5.02,-5.0553,-5.0797,-5.1095,-5.1475,-5.1719,-5.2045,-5.2343,-5.2343,-5.277,-5.3371,-5.3014,-5.3241,0.0,-5.37,-5.3901,-5.4165,-5.4414,-5.4497,-5.4734,-5.6049,-5.6394,-5.6509,-5.7191,-5.7303,-5.7303,-5.7303,-5.7303,-5.7303,-5.7303,-5.7594,-5.7971,-5.8232,-5.89,-5.9568,-6.009,-6.0526,-6.0874,-6.1164,-6.1193,-6.1193,-6.1193,-6.1193,-6.1193,-6.1193,-6.1193,-6.1193,-6.1193,-6.1193,-6.1193,-6.1193,-6.1969,-6.2728,-6.3304,-6.4543,-6.5452,-6.6023,-6.6374,-6.6617,-6.6617,-6.8204,-6.9217,-6.9599,-7.1266,-7.2296,-7.2671,-7.2671,-7.2671,-7.2671,-7.2671,-7.2671,-7.2838,-7.434,-7.501,-7.5155,-7.6664,-7.7304,-7.7304,-7.7304,-7.7304,-7.7378,0.0,0.0,0.0,0.0,0.0,0.0,0.0,0.0,0.0,0.0,0.0,0.0,0.0,0.0,0.0,0.0,0.0,-4.8731,-4.9005,-4.8397,-4.8436,-4.9087,-4.9277,-4.9576,-5.001,-5.001,-5.001,-5.001,-5.001,-5.001,-5.001,-5.001,-5.0091,-5.0254,-5.0254,-5.058,-5.1177,-5.1339,-5.1665,-5.2072,-5.2262,-5.2588,-5.2968,-5.2968,-5.3544,-5.4442,-5.4,-5.4373,-5.497,-5.488,-5.488,-5.497,-5.497,-5.497,-5.5205,-5.6279,-5.6623,-5.6851,-5.7528,-5.7528,-5.7303,-5.7303,-5.7303,-5.7361,-5.7536,-5.7942,-5.8406,-5.8755,-5.9568,-6.0264,-6.0438,-6.0874,-6.1193,-6.1193,-6.1193,-6.1193,-6.1193,-6.1193,-6.1193,-6.1193,-6.1193,-6.1193,-6.1193,-6.1193,-6.1193,-6.1193,-6.2292,-6.3189,-6.3872,-6.5016,-6.5915,-6.6617,-6.6617,-6.6691,-6.6974,-6.8765,-6.9694,-7.0103,-7.183,-7.2671,-7.2671,-7.2671,-7.2671,-7.2671,-7.2671,-7.2671,-7.2838,-7.434,-7.501,-7.5155,-7.6664,-7.7304,-7.7304,-7.7304,-7.7304,-7.7414,0.0,0.0,0.0,0.0,0.0,0.0,0.0,0.0,0.0,0.0,0.0,0.0,0.0,0.0,-4.9669,-4.9669,-4.9753,-4.9518,-4.9033,-4.9626,-4.9639,-4.9114,-4.9684,-4.9983,-5.001,-5.001,-5.001,-5.001,-5.001,-5.001,-5.001,-5.001,-5.0308,-5.0878,-5.0878,-5.1204,-5.1828,-5.2425,-5.2669,-5.2723,-5.332,-5.3565,-5.3565,-5.3565,-5.3926,-5.4497,-5.4469,-5.5323,-5.6279,-5.5613,-5.5845,-5.6279,-5.6279,-5.6279,-5.6509,-5.7078,-5.7303,-5.7416,-5.8305,-5.7974,-5.7303,-5.7303,-5.7303,-5.7477,-5.8116,-5.829,-5.8639,-5.9887,-6.0177,-6.0409,-6.1048,-6.1193,-6.1193,-6.1193,-6.1193,-6.1193,-6.1193,-6.1193,-6.1193,-6.1193,-6.1193,-6.1193,-6.1193,-6.1193,-6.1193,-6.1193,-6.2874,-6.3872,-6.3872,-6.5592,-6.6617,-6.6617,-6.6617,-6.7078,-6.8072,-6.9024,-7.0103,-7.1176,-7.221,-7.2671,-7.2671,-7.2671,-7.2671,-7.2671,-7.2671,-7.2671,-7.2838,-7.434,-7.501,-7.5155,-7.6664,-7.7304,-7.7304,-7.7304,-7.7304,-7.7304,0.0,0.0,0.0,0.0,0.0,0.0,0.0,0.0,0.0,0.0,0.0,0.0,0.0,0.0,0.0,0.0,-5.0011,-5.0093,-5.0711,-5.0314,-5.0078,-5.0243,-5.0126,-5.001,-5.001,-5.001,-5.001,-5.001,-5.001,-5.001,-5.001,-5.0417,-5.0715,-5.0905,-5.1339,-5.1855,-5.2425,-5.2615,-5.294,-5.332,-5.351,-5.3592,-5.3592,-5.4047,-5.4643,-5.5233,0.0,-5.6049,-5.6394,-5.6193,-5.6164,-5.6394,-5.6394,-5.6394,-5.6509,-5.7078,-5.7303,-5.7416,-5.764,-5.7528,-5.7303,-5.7303,-5.7303,-5.7477,-5.8145,-5.8639,-5.919,-6.0032,-6.0555,-6.0932,-6.1164,-6.1193,-6.1193,-6.1193,-6.1193,-6.1193,-6.1193,-6.1193,-6.1193,-6.1193,-6.1193,-6.1193,-6.1193,-6.1193,-6.1404,-6.2087,-6.3189,-6.4097,-6.4795,-6.5915,-6.6617,-6.6617,-6.6617,-6.7078,-6.8072,-6.9121,-7.0103,-7.121,-7.221,-7.2671,-7.2671,-7.2671,-7.2671,-7.2671,-7.2671,-7.297,-7.3517,-7.4567,-7.5299,-7.5895,-7.6893,-7.7671,-7.8185,-7.8185,-7.8516,-7.8956,0.0,0.0,0.0,0.0,0.0,0.0,0.0,0.0,0.0,0.0,0.0,0.0,0.0,0.0,0.0,0.0,0.0,-5.1058,-5.1652,-5.1271,-5.1039,-5.121,-5.0906,-5.0683,-5.0683,-5.0683,-5.0683,-5.0683,-5.046,-5.0457,-5.0676,-5.083,-5.1122,-5.1557,-5.1964,-5.2479,-5.3022,-5.3022,-5.3359,-5.3926,-5.3926,-5.4074,-5.4314,-5.4762,-5.5233,0.0,-5.6279,-5.6509,-5.6737,-5.6737,-5.6737,-5.6737,-5.6737,-5.6737,-5.6851,-5.7528,-5.7528,-5.7416,-5.764,-5.7528,-5.7303,-5.7303,-5.7477,-5.7826,-5.8493,-5.9161,-5.98,-6.0438,-6.0903,-6.1135,-6.0874,-6.1048,-6.1106,-6.0874,-6.1048,-6.1193,-6.1193,-6.1193,-6.1193,-6.1193,-6.1193,-6.1193,-6.1193,-6.1523,-6.185,-6.2525,-6.3418,-6.432,-6.5125,-6.6054,-6.6617,-6.6617,-6.6617,-6.7253,-6.8667,-6.9313,-7.0289,-7.1742,-7.2382,-7.2671,-7.2671,-7.2671,-7.2671,-7.2671,-7.2671,-7.3101,-7.3878,-7.4716,-7.5441,-7.6306,-7.7385,-7.8112,-7.8626,-7.8919,-7.936,-7.98,0.0,0.0,0.0,0.0,0.0,0.0,0.0,0.0,0.0,0.0,0.0,0.0,0.0,0.0,0.0,0.0,0.0,0.0,-5.1843,-5.2309,-5.2408,-5.1896,-5.1787,-5.1787,-5.1787,-5.1787,-5.1815,-5.1843,-5.1266,-5.1265,-5.1845,-5.1304,-5.1727,-5.2842,-5.287,-5.3196,-5.3713,-5.3713,-5.4047,-5.4497,-5.4497,-5.488,-5.5496,-5.5496,-5.5961,-5.6394,-5.6394,-5.6851,-5.7303,-5.7303,-5.7303,-5.7303,-5.7303,-5.7303,-5.7416,-5.8305,-5.7974,-5.7528,-5.8305,-5.7974,-5.7303,-5.7332,-5.7826,-5.8493,-5.919,-5.98,-6.038,-6.1048,-6.1193,-6.099,-6.0322,-6.0758,-6.099,-6.0322,-6.0758,-6.1193,-6.1193,-6.1193,-6.1193,-6.1193,-6.1193,-6.1193,-6.1193,-6.1969,-6.2525,-6.2642,-6.3418,-6.432,-6.5235,-6.6161,-6.6617,-6.6617,-6.6617,-6.7529,-6.9599,-6.9694,-7.0748,-7.2671,-7.2671,-7.2671,-7.2671,-7.2671,-7.2671,-7.2671,-7.2671,-7.3183,-7.3956,-7.4716,-7.5548,-7.6481,-7.8007,-7.8662,-7.8809,-7.958,-7.9874,-7.991,0.0,0.0,0.0,0.0,0.0,0.0,0.0,0.0,0.0,0.0,0.0,0.0,0.0,0.0,0.0,0.0,0.0,0.0,-5.303,-5.2751,-5.2544,-5.2437,-5.2004,-5.1787,-5.1787,-5.1787,-5.2012,-5.2461,-5.235,-5.2547,-5.3163,-5.3497,-5.3772,-5.4107,-5.458,-5.4887,-5.5026,-5.5026,-5.5144,-5.5261,-5.5261,-5.5379,-5.5496,-5.5961,-5.6308,-5.6509,-5.6964,-5.7191,-5.7303,-5.7303,-5.7303,-5.7303,-5.7303,-5.7303,-5.7303,-5.7528,-5.7528,-5.7303,-5.7528,-5.7528,-5.7419,-5.7913,-5.8174,-5.8581,-5.9713,-6.009,-6.038,-6.1048,-6.1193,-6.099,-6.0322,-6.0758,-6.099,-6.0322,-6.0758,-6.1193,-6.1193,-6.1193,-6.1193,-6.1193,-6.1193,-6.1193,-6.1193,-6.1969,-6.2728,-6.3532,-6.432,-6.5235,-6.6161,-6.648,-6.6617,-6.6617,-6.6617,-6.7529,-6.9599,-7.1142,-7.221,-7.2671,-7.2671,-7.2671,-7.2671,-7.2671,-7.2671,-7.2671,-7.2671,-7.3472,-7.4716,-7.4937,-7.6187,-7.8007,-7.8453,-7.9323,-8.0424,-8.0608,-8.1085,-8.1599,0.0,0.0,0.0,0.0,0.0,0.0,0.0,0.0,0.0,0.0,0.0,0.0,0.0,0.0,0.0,0.0,0.0,0.0,0.0,-5.3184,-5.2972,-5.3107,-5.2759,-5.2544,-5.2544,-5.2544,-5.2858,-5.3485,-5.3266,-5.361,-5.4488,-5.46,-5.4681,-5.499,-5.5327,-5.5496,-5.5496,-5.5496,-5.5613,0.0,0.0,-5.6049,-5.6279,-5.6623,-5.6737,-5.6851,-5.7191,-5.7078,-5.6964,-5.7191,-5.6964,-5.6623,-5.7078,-5.7078,-5.6851,-5.6851,-5.7078,-5.7191,-5.6964,-5.7078,-5.7448,-5.8145,-5.8523,-5.8987,-5.9974,-6.0438,-6.0758,-6.1106,-6.0961,-6.0555,-5.9916,-6.0322,-6.0555,-5.9916,-6.0584,-6.1193,-6.1193,-6.1193,-6.1193,-6.1193,-6.1193,-6.1193,-6.1193,-6.2292,-6.3304,-6.3872,-6.4685,-6.5592,-6.6586,-6.6617,-6.6617,-6.6617,-6.7078,-6.8204,-7.0289,-7.1917,-7.2671,-7.2671,-7.2671,-7.2671,-7.2671,-7.2671,-7.2671,-7.2671,-7.2671,-7.3552,-7.5046,-7.5367,-7.6758,-7.8662,-7.9396,-8.0204,-8.1048,-8.1415,-8.1819,-8.2186,0.0,0.0,0.0,0.0,0.0,0.0,0.0,0.0,0.0,0.0,0.0,0.0,0.0,0.0,0.0,0.0,0.0,0.0,0.0,0.0,0.0,0.0,-5.35,-5.35,-5.35,-5.35,-5.3878,-5.4633,-5.4064,-5.4476,-5.5707,-5.5225,-5.5193,-5.5729,-5.5729,-5.5729,-5.5729,-5.5729,-5.6077,-5.6509,-5.6509,-5.6851,-5.7303,0.0,-5.7303,-5.7303,-5.7303,-5.6964,-5.6509,-5.6964,-5.6394,-5.5729,-5.6851,-5.6851,-5.6394,-5.6279,-5.6737,-5.7078,-5.6509,-5.6795,-5.748,-5.8261,-5.8929,-5.9568,-6.0206,-6.0787,-6.1164,-6.1077,-6.0584,-5.9974,-5.9306,-5.9684,-5.9916,-5.9393,-6.0293,-6.1106,-6.1193,-6.1193,-6.1193,-6.1193,-6.1193,-6.1193,-6.1193,-6.2874,-6.3872,-6.3872,-6.4795,-6.57,-6.6617,-6.6617,-6.6691,-6.6796,-6.7802,-6.925,-7.121,-7.221,-7.2671,-7.2671,-7.2671,-7.2671,-7.2671,-7.2671,-7.2671,-7.2671,-7.2671,-7.3622,-7.5189,-7.5867,-7.7264,-7.9066,-8.0461,-8.1085,-8.1232,-8.1929,-8.2186,-8.2186,0.0,0.0,0.0,0.0,0.0,0.0,0.0,0.0,0.0,0.0,0.0,0.0,0.0,0.0,0.0,0.0,0.0,0.0,0.0,0.0,0.0,0.0,-5.35,-5.35,-5.35,-5.35,-5.4081,-5.5242,-5.5134,-5.5771,-5.7017,-5.6904,-5.6849,-5.6964,-5.6964,-5.6964,-5.6964,-5.6964,-5.7078,-5.7191,-5.7191,-5.7191,-5.7303,-5.7303,0.0,0.0,-5.7303,-5.6964,-5.6394,-5.6509,-5.6077,-5.5613,-5.6279,-5.6509,-5.6279,-5.5845,-5.6049,-5.6509,-5.6394,-5.6909,-5.7714,-5.8842,-5.9597,-6.0206,-6.0874,-6.1106,-6.1048,-6.0496,-6.0264,-5.9858,-5.8697,-5.9016,-5.9422,-5.9335,-5.9916,-6.0555,-6.1106,-6.1193,-6.1193,-6.1193,-6.1193,-6.1193,-6.1193,-6.2874,-6.3872,-6.3872,-6.5452,-6.6374,-6.6617,-6.6617,-6.6974,-6.7802,-6.8863,-6.9916,-7.121,-7.221,-7.2671,-7.2671,-7.2671,-7.2671,-7.2671,-7.2671,-7.2671,-7.2671,-7.2671,-7.3982,-7.6048,-7.6155,-7.7914,-8.0608,-8.0901,-8.1415,-8.2003,-8.215,-8.2186,-8.2186,0.0,0.0,0.0,0.0,0.0,0.0,0.0,0.0,0.0,0.0,0.0,0.0,0.0,0.0,0.0,0.0,0.0,0.0,0.0,0.0,0.0,0.0,0.0,0.0,-5.35,-5.3849,-5.4487,-5.5416,0.0,-5.6403,-5.7303,-5.7303,-5.7303,-5.7303,-5.7303,-5.7303,-5.7303,-5.7303,-5.7303,-5.7303,-5.7303,-5.7303,-5.7303,0.0,0.0,0.0,-5.7303,-5.6964,-5.6394,-5.6737,-5.6049,-5.5116,-5.5701,-5.5701,-5.5323,-5.5116,-5.5468,-5.5845,-5.5468,-5.6415,-5.7654,-5.8519,-5.9506,-6.038,-6.1048,-6.1193,-6.1019,-6.0322,-5.9945,-5.9451,-5.8493,-5.8552,-5.89,-5.9248,-5.98,-6.0438,-6.1106,-6.1193,-6.1193,-6.1193,-6.1193,-6.1433,-6.185,-6.3074,-6.4097,-6.4543,-6.5808,-6.6617,-6.6617,-6.6617,-6.7253,-6.883,-6.9313,-7.0381,-7.1951,-7.2501,-7.2671,-7.2671,-7.2671,-7.2671,-7.2671,-7.2671,-7.2671,-7.2755,-7.3101,-7.4413,-7.6262,-7.7128,-7.884,-8.1048,-8.1452,-8.1856,-8.2186,-8.2186,-8.2186,-8.2186,0.0,0.0,0.0,0.0,0.0,0.0,0.0,0.0,0.0,0.0,0.0,0.0,0.0,0.0,0.0,0.0,0.0,0.0,0.0,0.0,0.0,0.0,0.0,0.0,-5.35,0.0,0.0,-5.5416,-5.6084,0.0,0.0,0.0,0.0,0.0,-5.7303,-5.7303,-5.7303,-5.7303,-5.7303,0.0,0.0,-5.7303,-5.7303,0.0,0.0,0.0,0.0,-5.6964,-5.6623,-5.6964,-5.6136,-5.497,-5.5584,-5.5205,-5.4497,-5.4497,-5.488,-5.5144,-5.4616,-5.5765,-5.7326,-5.8137,-5.9209,-6.0435,-6.1077,-6.1077,-6.0787,-6.0148,-5.951,-5.8871,-5.8203,-5.8203,-5.8523,-5.919,-5.98,-6.0438,-6.1106,-6.1193,-6.1193,-6.1193,-6.1193,-6.1523,-6.2409,-6.3304,-6.4209,-6.5125,-6.6023,-6.6617,-6.6617,-6.6796,-6.7733,-6.9504,-6.9789,-7.0838,-7.2671,-7.2671,-7.2671,-7.2671,-7.2671,-7.2671,-7.2671,-7.2671,-7.2671,-7.2755,-7.3727,-7.4935,-7.6548,-7.8169,-7.9834,-8.1342,-8.1929,-8.2186,-8.2186,-8.2186,-8.2186,-8.2186,0.0,0.0,0.0,0.0,0.0,0.0,0.0,0.0,0.0,0.0,0.0,0.0,0.0,0.0,0.0,0.0,0.0,0.0,0.0,0.0,0.0,0.0,0.0,0.0,0.0,0.0,0.0,-5.5416,-5.6084,0.0,0.0,0.0,0.0,0.0,0.0,-5.7303,-5.7303,-5.7303,0.0,0.0,0.0,0.0,0.0,0.0,0.0,0.0,0.0,-5.7303,-5.7191,-5.6623,-5.6394,-5.6279,-5.6537,-5.5616,-5.4497,-5.4497,-5.4497,-5.4616,-5.4497,-5.5474,-5.6753,-5.8013,-5.9314,-6.0352,-6.1073,-6.0729,-6.0119,-5.951,-5.8842,-5.8203,-5.7507,-5.7884,-5.8523,-5.919,-5.98,-6.0438,-6.1106,-6.1193,-6.1193,-6.1193,-6.1193,-6.1523,-6.2409,-6.3304,-6.4209,-6.5125,-6.6023,-6.6617,-6.6617,-6.7427,-6.847,-6.9599,-7.0507,-7.1566,-7.2671,-7.2671,-7.2671,-7.2671,-7.2671,-7.2671,-7.2671,-7.2671,-7.2671,-7.2789,-7.4321,-7.5861,-7.7444,-7.8999,-8.0636,-8.2113,-8.215,-8.2186,-8.2186,-8.2186,-8.2186,-8.2186,0.0,0.0,0.0,0.0,0.0,0.0,0.0,0.0,0.0,0.0,0.0,0.0,0.0,0.0,0.0,0.0,0.0,0.0,0.0,0.0,0.0,0.0,0.0,0.0,0.0,0.0,-5.5184,-5.5416,-5.6432,0.0,0.0,0.0,0.0,0.0,0.0,-5.7303,-5.7303,-5.7303,0.0,0.0,0.0,0.0,0.0,0.0,0.0,0.0,0.0,0.0,-5.7303,-5.6964,-5.7049,-5.7245,-5.7693,-5.7299,-5.648,-5.5472,-5.4942,-5.4378,-5.4047,-5.5166,-5.647,-5.708,-5.8738,-6.0202,-6.0071,-6.0143,-5.9916,-5.89,-5.8493,-5.8116,-5.7419,-5.7855,-5.8523,-5.919,-5.98,-6.0438,-6.1106,-6.1193,-6.1193,-6.1193,-6.1642,-6.2292,-6.3189,-6.4097,-6.5016,-6.5915,-6.6374,-6.6617,-6.6617,-6.7529,-6.8568,-6.9599,-7.0599,-7.1654,-7.2671,-7.2671,-7.2671,-7.2671,-7.2671,-7.2671,-7.2671,-7.2671,-7.2671,-7.2789,-7.4879,-7.6391,-7.7551,-7.9671,-8.1154,-8.2186,-8.2186,-8.2186,-8.2186,-8.2186,-8.2186,-8.2186,0.0,0.0,0.0,0.0,0.0,0.0,0.0,0.0,0.0,0.0,0.0,0.0,0.0,0.0,0.0,0.0,0.0,0.0,0.0,0.0,0.0,0.0,0.0,0.0,0.0,0.0,-5.5416,-5.5416,-5.6694,-5.7303,0.0,0.0,-5.7303,-5.7303,0.0,0.0,0.0,0.0,0.0,0.0,0.0,0.0,0.0,0.0,0.0,0.0,0.0,0.0,0.0,0.0,0.0,-5.8136,-5.9039,-5.8979,-5.8267,-5.682,-5.5616,-5.4706,-5.4047,-5.495,-5.6101,-5.6347,-5.8127,-5.9749,-5.9244,-5.9587,-5.9626,-5.8523,-5.8145,-5.7855,-5.739,-5.8,-5.8755,-5.9219,-5.9974,-6.0642,-6.1135,-6.1193,-6.1193,-6.1193,-6.1732,-6.2642,-6.3759,-6.4906,-6.5915,-6.6586,-6.6617,-6.6617,-6.6617,-6.7802,-6.883,-6.9599,-7.0963,-7.2004,-7.2671,-7.2671,-7.2671,-7.2671,-7.2671,-7.2671,-7.2671,-7.2671,-7.2809,-7.3135,-7.5507,-7.7048,-7.7909,-8.0344,-8.1672,-8.2186,-8.2186,-8.2186,-8.2186,-8.2186,-8.2186,-8.2186,0.0,0.0,0.0,0.0,0.0,0.0,0.0,0.0,0.0,0.0,0.0,0.0,0.0,0.0,0.0,0.0,0.0,0.0,0.0,0.0,0.0,0.0,0.0,0.0,0.0,0.0,-5.5416,-5.5416,-5.6694,-5.7303,-5.7303,-5.7303,-5.7303,-5.7303,0.0,0.0,0.0,0.0,0.0,0.0,0.0,0.0,0.0,0.0,0.0,0.0,0.0,0.0,0.0,0.0,0.0,0.0,0.0,-6.0524,-5.9576,-5.8107,-5.6764,-5.5616,-5.4734,-5.495,-5.5535,-5.6224,-5.7756,-5.9256,-5.9216,-5.9241,-5.9132,-5.8435,-5.7768,-5.7303,-5.7303,-5.8406,-5.9306,-5.9306,-6.0351,-6.1193,-6.1193,-6.1193,-6.1193,-6.1193,-6.1193,-6.185,-6.3759,-6.5592,-6.6617,-6.6617,-6.6617,-6.6617,-6.6617,-6.847,-6.9599,-6.9599,-7.162,-7.2671,-7.2671,-7.2671,-7.2671,-7.2671,-7.2671,-7.2671,-7.2671,-7.2671,-7.3084,-7.3894,-7.6321,-7.7869,-7.8767,-8.1146,-8.2186,-8.2186,-8.2186,-8.2186,-8.2186,-8.2186,-8.2186,-8.2186,0.0,0.0,0.0,0.0,0.0,0.0,0.0,0.0,0.0,0.0,0.0,0.0,0.0,0.0,0.0,0.0,0.0,0.0,0.0,0.0,0.0,0.0,0.0,0.0,0.0,-5.4749,-5.5416,-5.5416,-5.6694,-5.7303,-5.7303,-5.7303,-5.7303,-5.7303,-5.7303,-5.7303,0.0,0.0,0.0,0.0,0.0,0.0,-5.7303,0.0,0.0,0.0,0.0,0.0,0.0,0.0,0.0,0.0,0.0,0.0,0.0,-6.039,-5.9087,-5.7856,-5.7129,-5.6851,-5.7061,-5.7724,-5.8207,-5.8611,-5.8532,-5.8579,-5.8435,-5.7768,-5.7448,-5.7303,-5.7303,-5.8406,-5.9306,-5.9306,-6.038,-6.1193,-6.1193,-6.1193,-6.1404,-6.2087,-6.3219,-6.4463,-6.5592,-6.6268,-6.6617,-6.6617,-6.6617,-6.6617,-6.6617,-6.847,-6.9599,-6.9599,-7.162,-7.2671,-7.2671,-7.2671,-7.2671,-7.2671,-7.2671,-7.2671,-7.2671,-7.2671,-7.3084,-7.3894,-7.6321,-7.7869,-7.8767,-8.1182,-8.2186,-8.2186,-8.2186,-8.2186,-8.2186,-8.2186,-8.2186,-8.2186,0.0,0.0,0.0,0.0,0.0,0.0,0.0,0.0,0.0,0.0,0.0,0.0,0.0,0.0,0.0,0.0,0.0,0.0,0.0,0.0,0.0,0.0,0.0,0.0,-5.35,-5.4749,-5.5416,-5.5416,-5.6694,-5.7303,-5.7303,-5.7303,-5.7303,-5.7303,-5.7303,-5.7303,0.0,0.0,0.0,0.0,0.0,0.0,-5.7303,0.0,0.0,0.0,0.0,0.0,0.0,0.0,0.0,0.0,0.0,0.0,0.0,0.0,-6.1041,-6.0045,-5.8703,-5.8473,-5.8581,-5.855,-5.8896,-5.904,-5.8484,-5.8291,-5.8116,-5.7448,-5.7303,-5.739,-5.7623,-5.8581,-5.9364,-5.9597,-6.0526,-6.1193,-6.1193,-6.1193,-6.1523,-6.2409,-6.4097,-6.5452,-6.6023,-6.6374,-6.6617,-6.6617,-6.6617,-6.6617,-6.6617,-6.847,-6.9599,-6.9599,-7.162,-7.2671,-7.2671,-7.2671,-7.2671,-7.2671,-7.2671,-7.2671,-7.2671,-7.2671,-7.3476,-7.4782,-7.6618,-7.8198,0.0,-8.1428,-8.2186,-8.2186,-8.2186,-8.2186,-8.2186,-8.2186,-8.2186,-8.2251,0.0,0.0,0.0,0.0,0.0,0.0,0.0,0.0,0.0,0.0,0.0,0.0,0.0,0.0,0.0,0.0,0.0,0.0,0.0,0.0,0.0,0.0,0.0,0.0,-5.35,-5.4749,-5.5416,-5.5416,-5.6694,-5.7303,-5.7303,-5.7303,-5.7303,-5.7303,-5.7303,-5.7303,0.0,0.0,0.0,0.0,0.0,0.0,0.0,0.0,0.0,0.0,0.0,0.0,0.0,0.0,0.0,0.0,0.0,0.0,0.0,0.0,0.0,0.0,0.0,-5.9547,-5.9791,-5.8929,-5.9626,-6.0092,-5.8602,-5.8233,0.0,-5.7448,-5.7332,-5.7565,-5.8203,-5.8871,-5.9539,-6.0119,-6.0758,-6.1193,-6.1193,-6.1313,-6.1642,-6.2409,-6.4097,-6.5235,-6.5235,-6.6023,-6.6617,-6.6617,-6.6617,-6.6617,-6.6617,-6.847,-6.9599,-6.9599,-7.162,-7.2671,-7.2671,-7.2671,-7.2671,-7.2671,-7.2671,-7.2671,-7.2671,-7.274,-7.4004,-7.6268,-7.7098,-7.8817,-8.0982,-8.1849,-8.2186,-8.2186,-8.2186,-8.2186,-8.2186,-8.2186,-8.2186,-8.2316,0.0,0.0,0.0,0.0,0.0,0.0,0.0,0.0,0.0,0.0,0.0,0.0,0.0,0.0,0.0,0.0,0.0,0.0,0.0,0.0,0.0,0.0,0.0,0.0,-5.35,-5.4749,-5.5416,-5.5416,-5.6694,-5.7303,-5.7303,-5.7303,-5.7303,-5.7303,-5.7303,-5.7303,0.0,0.0,0.0,0.0,0.0,0.0,0.0,0.0,0.0,0.0,-5.7303,-5.7751,0.0,0.0,0.0,0.0,0.0,0.0,0.0,0.0,-6.2446,0.0,-6.0939,0.0,-6.0536,-6.0316,-5.9605,-5.8697,0.0,-5.7886,-5.7507,-5.7332,-5.771,-5.8116,-5.8261,-5.9219,-6.0032,-6.0177,-6.0758,-6.1193,-6.1193,-6.2438,-6.3104,-6.2496,-6.4795,-6.6023,-6.5235,-6.6023,-6.6617,-6.6617,-6.6617,-6.6617,-6.6617,-6.847,-6.9599,-6.9599,-7.162,-7.2671,-7.2671,-7.2671,-7.2671,-7.2671,-7.2671,-7.2671,-7.2705,-7.3257,-7.449,-7.6268,-7.7702,-7.9281,-8.0982,-8.1849,-8.2186,-8.2186,-8.2186,-8.2186,-8.2186,-8.2186,-8.2186,-8.2316,0.0,0.0,0.0,0.0,0.0,0.0,0.0,0.0,0.0,0.0,0.0,0.0,0.0,0.0,0.0,0.0,0.0,0.0,0.0,0.0,0.0,0.0,0.0,-5.35,-5.35,-5.4749,-5.5416,-5.5416,-5.6694,-5.7303,-5.7303,-5.7303,-5.7303,-5.7303,-5.7303,-5.7303,-5.7303,-5.7303,0.0,0.0,-5.7303,0.0,0.0,0.0,0.0,0.0,-5.7303,-5.764,0.0,-5.9469,-6.0211,-6.0835,0.0,0.0,0.0,0.0,-6.2116,0.0,-6.1277,-6.1329,-6.1218,-6.0464,-5.9585,-5.8859,-5.8405,-5.7768,-5.739,-5.771,-5.8058,-5.8493,-5.9074,-5.9478,-5.9937,-6.0613,-6.0721,-6.0831,-6.1193,-6.2409,-6.3189,-6.3189,-6.4795,-6.5915,-6.5808,-6.6268,-6.6617,-6.6617,-6.6617,-6.6617,-6.6617,-6.847,-6.9599,-6.9599,-7.162,-7.2671,-7.2671,-7.2671,-7.2671,-7.2671,-7.2671,-7.2671,-7.2705,-7.3429,-7.4879,-7.6788,-7.8069,-7.9683,-8.1542,-8.2018,-8.2186,-8.2186,-8.2186,-8.2186,-8.2186,-8.2186,-8.2186,-8.2316,0.0,0.0,0.0,0.0,0.0,0.0,0.0,0.0,0.0,0.0,0.0,0.0,0.0,0.0,0.0,0.0,0.0,0.0,0.0,0.0,0.0,0.0,-5.35,-5.3559,-5.3675,-5.4807,-5.5474,-5.5562,-5.6723,-5.7303,-5.7303,-5.7303,-5.7303,-5.7303,-5.7303,-5.7303,-5.7303,-5.7303,-5.7303,-5.7303,-5.7303,0.0,0.0,0.0,0.0,0.0,0.0,0.0,0.0,-5.9469,-6.0106,-6.0316,-6.1885,0.0,0.0,0.0,0.0,0.0,-6.0835,-6.1225,-6.1294,-5.9797,-5.9503,-5.9398,-5.8402,-5.7797,-5.7623,-5.8174,-5.8464,-5.8929,-5.9885,-5.9788,-5.9778,-6.0865,-6.0681,-6.056,-6.1073,-6.2087,-6.2959,-6.3645,-6.4685,-6.57,-6.6268,-6.648,-6.6617,-6.6617,-6.6617,-6.6691,-6.6796,-6.8568,-6.9694,-6.9789,-7.1708,-7.2671,-7.2671,-7.2671,-7.2671,-7.2671,-7.2671,-7.2671,-7.2705,-7.3567,-7.5195,-7.7476,-7.8405,-8.0117,-8.2186,-8.2186,-8.2186,-8.2186,-8.2186,-8.2186,-8.2186,-8.2186,-8.2251,-8.2534,0.0,0.0,0.0,0.0,0.0,0.0,0.0,0.0,0.0,0.0,0.0,0.0,0.0,0.0,0.0,0.0,0.0,0.0,0.0,0.0,0.0,-5.35,-5.35,-5.3791,-5.4342,-5.5039,-5.5678,-5.6258,-5.6955,-5.7303,-5.7303,-5.7303,-5.7303,-5.7303,-5.7303,-5.7303,-5.7303,-5.7303,-5.7303,-5.7303,-5.7303,0.0,0.0,0.0,0.0,0.0,0.0,0.0,0.0,-6.042,-6.0969,-6.1175,-6.2116,0.0,0.0,0.0,0.0,0.0,-5.9147,-5.908,-5.9103,-5.8792,-5.9085,-5.9072,-5.771,-5.7826,-5.8174,-5.829,-5.9161,-5.9827,-5.9405,-6.0163,-6.0808,-6.0409,-6.0681,-6.1073,-6.1193,-6.2642,-6.3418,-6.2728,-6.4906,-6.6161,-6.5452,-6.6161,-6.6617,-6.6617,-6.6617,-6.6974,-6.7802,-6.8927,-7.001,-7.0906,-7.2124,-7.2671,-7.2671,-7.2671,-7.2671,-7.2671,-7.2671,-7.2671,-7.274,-7.4119,-7.572,-7.7512,-7.89,-8.0514,-8.2186,-8.2186,-8.2186,-8.2186,-8.2186,-8.2186,-8.2186,-8.2186,-8.2497,-8.3053,0.0,0.0,0.0,0.0,0.0,0.0,0.0,0.0,0.0,0.0,0.0,0.0,0.0,0.0,0.0,0.0,0.0,0.0,0.0,0.0,-5.35,-5.35,-5.3849,-5.4197,-5.4517,-5.5097,-5.5736,-5.6403,-5.7013,-5.7303,-5.7303,-5.7303,-5.7303,-5.7303,-5.7303,-5.7303,-5.7303,-5.7303,-5.7303,-5.7303,0.0,0.0,0.0,0.0,0.0,0.0,0.0,0.0,0.0,0.0,-6.1175,-6.1379,-6.2116,0.0,0.0,0.0,0.0,0.0,-5.8743,-5.8566,-5.8379,-5.7971,-5.806,-5.8047,-5.742,-5.7534,-5.7965,-5.8634,-5.9299,-5.9669,-5.9801,-5.9965,-6.0043,-5.9673,-6.056,-6.1404,-6.185,-6.2642,-6.3304,-6.3872,-6.5125,-6.5915,-6.5915,-6.6374,-6.6617,-6.6617,-6.6617,-6.7078,-6.8104,-6.9024,-7.0103,-7.121,-7.221,-7.2671,-7.2671,-7.2671,-7.2671,-7.2671,-7.2671,-7.2877,-7.3326,-7.443,-7.6069,-7.8155,0.0,-8.0623,-8.2186,-8.2186,-8.2186,-8.2186,-8.2186,-8.2186,-8.2251,-8.2497,-8.2972,-8.3618,0.0,0.0,0.0,0.0,0.0,0.0,0.0,0.0,0.0,0.0,0.0,0.0,0.0,0.0,0.0,0.0,0.0,0.0,0.0,-5.3328,-5.3308,-5.3308,-5.3942,-5.4396,-5.472,-5.5329,-5.5968,-5.6607,-5.7071,-5.7303,-5.7303,-5.7303,-5.7303,-5.7303,-5.7303,-5.7303,-5.7303,-5.7303,-5.7303,-5.7303,0.0,0.0,0.0,0.0,0.0,0.0,0.0,0.0,0.0,0.0,0.0,0.0,0.0,0.0,0.0,-6.0628,-5.9469,-5.8305,-5.8305,-5.8232,-5.79,-5.7391,-5.735,-5.7322,-5.7322,-5.7322,-5.7612,-5.8718,-5.9066,-5.9322,-5.9834,-5.9673,-5.955,-5.9673,-6.056,-6.1523,-6.2409,-6.2728,-6.3418,-6.5016,-6.5344,-6.5808,-6.648,-6.6617,-6.6617,-6.6617,-6.6796,-6.7356,-6.8371,-6.9409,-7.0473,-7.1478,-7.2296,-7.2671,-7.2671,-7.2671,-7.2671,-7.2671,-7.2671,-7.3084,-7.3809,-7.4568,-7.6279,-7.8615,-7.9364,-8.0623,-8.2186,-8.2186,-8.2186,-8.2186,-8.2186,-8.2186,-8.2316,-8.2972,-8.3508,-8.3989,0.0,0.0,0.0,0.0,0.0,0.0,0.0,0.0,0.0,0.0,0.0,0.0,0.0,0.0,0.0,0.0,0.0,0.0,0.0,-5.2731,-5.274,-5.274,-5.336,-5.4146,-5.5358,-5.5997,-5.6636,-5.7245,-5.7274,-5.7303,-5.7303,-5.7303,-5.7303,-5.7303,-5.7303,-5.7303,-5.7303,-5.7303,-5.7303,-5.7303,-5.7303,0.0,0.0,0.0,0.0,0.0,0.0,0.0,0.0,0.0,0.0,0.0,0.0,0.0,-5.9789,-5.9039,-5.8195,-5.7416,-5.7416,-5.7425,-5.7422,-5.7245,-5.735,-5.7322,-5.7322,-5.7322,-5.7519,-5.8109,-5.8823,-5.9245,-5.9273,-5.9797,-6.0316,-6.0952,-6.1193,-6.1523,-6.2409,-6.3189,-6.4097,-6.5125,-6.5915,-6.6512,-6.6617,-6.6617,-6.6617,-6.6617,-6.7427,-6.847,-6.9409,-7.0507,-7.1566,-7.2586,-7.2671,-7.2671,-7.2671,-7.2671,-7.2671,-7.2671,-7.2671,-7.3084,-7.3809,-7.4568,-7.6279,-7.8615,-7.9364,-8.0623,-8.2186,-8.2186,-8.2186,-8.2186,-8.2186,-8.2186,-8.2343,-8.3396,-8.3885,-8.4041,0.0,0.0,0.0,0.0,0.0,0.0,0.0,0.0,0.0,0.0,0.0,0.0,0.0,0.0,0.0,0.0,0.0,0.0,0.0,-5.2684,-5.2883,-5.3276,-5.3894,-5.4431,-5.4855,-5.5478,-5.6133,-5.6737,-5.6737,-5.6737,-5.6737,-5.7078,-5.7078,-5.6737,-5.7078,-5.7303,-5.7303,-5.7303,-5.7303,-5.7303,-5.7303,-5.7303,0.0,0.0,0.0,0.0,0.0,0.0,0.0,0.0,-6.0628,-6.042,-6.042,-5.9789,-5.9039,-5.8743,-5.7751,-5.6823,-5.7226,-5.7033,-5.6743,-5.7126,-5.7009,-5.6803,-5.7175,-5.7051,-5.685,-5.7068,-5.7442,-5.7861,-5.9024,-5.9426,-5.9797,-6.0438,-6.0952,-6.1761,-6.3189,-6.3645,-6.4432,-6.5915,-6.6374,-6.6617,-6.6617,-6.6617,-6.6617,-6.6617,-6.7529,-6.8568,-6.9504,-7.0599,-7.1654,-7.2671,-7.2671,-7.2671,-7.2671,-7.2671,-7.2671,-7.2671,-7.2671,-7.3326,-7.4499,-7.5338,-7.7017,-7.9293,-8.011,-8.1089,-8.2186,-8.2186,-8.2186,-8.2186,-8.2186,-8.2186,-8.2343,-8.3452,-8.3885,-8.4041,0.0,0.0,0.0,0.0,0.0,0.0,0.0,0.0,0.0,0.0,0.0,0.0,0.0,0.0,0.0,0.0,0.0,0.0,-5.2631,-5.2741,-5.2906,-5.3236,-5.3935,-5.4357,-5.4474,-5.4937,-5.5508,-5.6077,-5.6077,-5.6077,-5.6193,-5.6737,-5.6851,-5.6394,-5.7078,-5.7303,-5.7303,-5.7078,-5.6964,-5.6964,-5.6964,-5.6964,0.0,0.0,0.0,0.0,0.0,0.0,0.0,0.0,-5.9895,-5.9895,-5.9576,-5.9039,-5.8525,-5.8055,-5.7191,-5.6508,-5.6705,-5.6317,-5.6005,-5.6747,-5.662,-5.6495,-5.6658,-5.6522,-5.6488,-5.665,-5.699,-5.7505,-5.8676,-5.9177,-5.9673,-6.0165,-6.0802,-6.188,-6.3645,-6.3872,-6.4574,-6.6374,-6.6617,-6.6617,-6.6617,-6.6617,-6.6617,-6.6617,-6.7834,-6.883,-6.9599,-7.0872,-7.2038,-7.2671,-7.2671,-7.2671,-7.2671,-7.2671,-7.2671,-7.2671,-7.2912,-7.3705,-7.4947,-7.6021,-7.7691,-7.9685,-8.055,-8.1368,-8.2186,-8.2186,-8.2186,-8.2186,-8.2186,-8.2279,-8.256,-8.3563,-8.3989,-8.4292,0.0,0.0,0.0,0.0,0.0,0.0,0.0,0.0,0.0,0.0,0.0,0.0,0.0,0.0,0.0,0.0,0.0,0.0,-5.2586,-5.2752,-5.2723,-5.2723,-5.3293,-5.3833,-5.4497,-5.4497,-5.488,-5.5496,-5.5496,-5.5496,-5.5496,-5.6049,-5.6394,-5.6394,-5.6964,-5.7303,-5.7191,-5.6623,-5.6394,-5.6394,-5.6394,-5.6394,-5.6509,0.0,0.0,0.0,0.0,0.0,0.0,0.0,-5.9895,-5.9683,-5.8822,-5.8634,-5.8305,-5.6851,-5.6394,-5.6279,-5.5641,-5.5139,-5.5014,-5.6085,-5.6541,-5.6413,-5.5794,-5.5996,-5.6468,-5.7065,-5.7688,-5.8198,-5.8198,-5.9329,-6.0194,-6.0194,-6.0802,-6.188,-6.3645,-6.3872,-6.4574,-6.6374,-6.6617,-6.6617,-6.6617,-6.6617,-6.6586,-6.6617,-6.847,-6.9599,-6.9599,-7.162,-7.2671,-7.2671,-7.2671,-7.2671,-7.2671,-7.2671,-7.2671,-7.2671,-7.3429,-7.4188,-7.4947,-7.6545,-7.8186,-7.9798,-8.055,-8.1405,-8.2186,-8.2186,-8.2186,-8.2186,-8.2186,-8.256,-8.3053,-8.3672,-8.4242,-8.4803,0.0,0.0,0.0,0.0,0.0,0.0,0.0,0.0,0.0,0.0,0.0,0.0,0.0,0.0,0.0,0.0,0.0,0.0,-5.2634,-5.2734,-5.2913,-5.332,-5.351,-5.3713,-5.3833,-5.3833,-5.4433,-5.5496,-5.4998,-5.4762,-5.4762,-5.5468,-5.5468,-5.5088,-5.5701,-5.6077,-5.6077,-5.6308,-5.6394,-5.6394,-5.6851,-5.7078,-5.7078,0.0,0.0,0.0,0.0,0.0,0.0,0.0,0.0,0.0,-5.7303,-5.7303,-5.7528,-5.6623,-5.6049,-5.5664,-5.5032,-5.5057,-5.5267,-5.5788,-5.6482,-5.699,-5.6801,-5.5916,-5.5287,-5.4942,-5.5683,-5.6758,-5.7944,-5.8578,-5.9052,-6.0071,-6.0316,-6.1226,-6.3532,-6.3872,-6.4574,-6.6374,-6.6617,-6.6617,-6.6617,-6.6617,-6.6869,-6.7631,-6.8863,-6.9916,-7.069,-7.2004,-7.2671,-7.2671,-7.2671,-7.2671,-7.2671,-7.2671,-7.2671,-7.2705,-7.3981,-7.4705,-7.4947,-7.7203,-7.874,-7.9798,-8.116,-8.1952,-8.2186,-8.2186,-8.2186,-8.2186,-8.2186,-8.256,-8.3053,-8.3672,-8.4242,-8.4803,0.0,0.0,0.0,0.0,0.0,0.0,0.0,0.0,0.0,0.0,-5.058,-5.0878,0.0,0.0,0.0,0.0,0.0,0.0,-5.3022,-5.3076,-5.3212,-5.3565,-5.3592,-5.3592,-5.3592,-5.3592,-5.3954,-5.479,-5.4286,-5.4166,-5.4166,-5.4762,-5.488,-5.4497,-5.5261,-5.5496,-5.5496,-5.5584,-5.5701,-5.5701,-5.602,-5.6136,-5.6251,0.0,0.0,0.0,0.0,0.0,0.0,0.0,0.0,0.0,-5.6509,-5.6623,-5.6737,-5.5933,-5.5351,-5.4928,-5.4406,-5.4226,-5.4251,-5.4707,-5.534,-5.5947,-5.6497,-5.6209,-5.5631,-5.4727,-5.5419,-5.6497,-5.756,-5.8198,-5.8802,-5.9673,-6.0502,-6.1821,-6.3645,-6.4209,-6.5016,-6.6374,-6.6617,-6.6617,-6.6617,-6.6617,-6.6974,-6.8004,-6.9024,-7.0103,-7.1086,-7.2124,-7.2671,-7.2671,-7.2671,-7.2671,-7.2671,-7.2671,-7.2843,-7.3119,-7.4361,-7.5085,-7.543,-7.7903,-7.9257,-7.9762,-8.1474,-8.2186,-8.2186,-8.2186,-8.2186,-8.2186,-8.2186,-8.2647,-8.3396,-8.3779,-8.439,-8.5062,0.0,0.0,0.0,0.0,0.0,0.0,0.0,0.0,0.0,0.0,-5.1475,-5.1855,0.0,0.0,0.0,0.0,0.0,0.0,0.0,-5.3592,-5.3592,-5.3592,-5.3592,-5.3592,-5.3592,-5.3592,-5.3592,-5.3592,-5.3592,-5.3592,-5.3592,-5.4166,-5.4378,-5.4378,-5.4998,-5.5379,-5.5261,-5.4762,-5.4497,-5.4497,-5.4616,-5.4616,-5.4616,-5.5261,0.0,0.0,0.0,0.0,0.0,0.0,0.0,0.0,-5.6279,-5.6394,-5.6164,-5.4734,-5.4378,-5.4166,-5.3525,-5.2712,-5.2385,-5.3373,-5.3789,-5.4325,-5.5286,-5.6367,-5.6915,-5.5842,-5.6497,-5.7174,-5.7174,-5.8297,-5.9177,-5.9177,-6.0957,-6.2728,-6.3759,-6.4685,-6.5592,-6.648,-6.6617,-6.6617,-6.6617,-6.6617,-6.7078,-6.8172,-6.9024,-7.0103,-7.1266,-7.221,-7.2671,-7.2671,-7.2671,-7.2671,-7.2671,-7.2671,-7.305,-7.3809,-7.4568,-7.5326,-7.6295,-7.8655,-7.9762,-8.0028,-8.1579,-8.2186,-8.2186,-8.2186,-8.2186,-8.2186,-8.2186,-8.289,-8.3885,-8.3885,-8.458,-8.5511,0.0,0.0,0.0,0.0,0.0,0.0,0.0,0.0,0.0,0.0,0.0,0.0,0.0,0.0,0.0,0.0,0.0,0.0,0.0,-5.3592,-5.3592,-5.3592,-5.3592,-5.3592,-5.3592,-5.3592,-5.3592,-5.3592,-5.3592,-5.3592,-5.3592,-5.3713,-5.3833,-5.3833,-5.3954,-5.3954,-5.4074,-5.4405,-5.4497,-5.4497,-5.5116,-5.5261,-5.5261,-5.5496,-5.5496,0.0,0.0,0.0,0.0,0.0,0.0,0.0,-5.5845,-5.6077,-5.602,-5.3872,-5.3268,-5.2887,-5.1075,-5.1325,-5.2199,-5.1993,-5.3675,-5.4994,-5.4459,-5.5815,-5.6915,-5.5842,-5.6497,-5.7174,-5.7174,-5.7816,-5.855,-5.9177,-6.0566,-6.2233,-6.3645,-6.4685,-6.5592,-6.648,-6.6617,-6.6617,-6.6617,-6.6617,-6.7356,-6.9121,-6.9504,-7.0381,-7.2296,-7.2586,-7.2671,-7.2671,-7.2671,-7.2671,-7.2671,-7.2671,-7.305,-7.3809,-7.4568,-7.5638,-7.7097,-7.8895,-8.0402,-8.1647,-8.2018,-8.2186,-8.2186,-8.2186,-8.2186,-8.2186,-8.2186,-8.289,-8.3885,-8.3885,-8.458,-8.5511,0.0,0.0,0.0,0.0,0.0,0.0,0.0,0.0,0.0,0.0,0.0,0.0,0.0,0.0,0.0,0.0,0.0,0.0,0.0,0.0,-5.3592,-5.3592,-5.3592,-5.3592,-5.3592,-5.3592,-5.3592,-5.3592,-5.3592,-5.3592,-5.3592,-5.3592,-5.3592,-5.3592,-5.3592,-5.3592,-5.3592,-5.3926,-5.4047,-5.4047,-5.4433,-5.4552,-5.4552,-5.4552,-5.4552,-5.4671,-5.4998,0.0,0.0,0.0,0.0,0.0,0.0,0.0,-5.5205,-5.3658,-5.2929,-5.2368,-5.1151,-5.1198,-5.1506,-5.1793,-5.3284,-5.4727,-5.4727,-5.5947,-5.7044,-5.6497,-5.6785,-5.7174,-5.7174,-5.8071,-5.8802,-5.9177,-6.1168,-6.2929,-6.3759,-6.5016,-6.6023,-6.648,-6.6617,-6.6617,-6.6617,-6.6617,-6.7459,-6.9409,-6.9599,-7.0473,-7.2586,-7.2671,-7.2671,-7.2671,-7.2671,-7.2671,-7.2671,-7.2671,-7.3222,-7.4326,-7.474,-7.6118,-7.8487,-7.9737,-8.1018,-8.2186,-8.2186,-8.2186,-8.2186,-8.2186,-8.2186,-8.2251,-8.2497,-8.3148,-8.3937,-8.4193,-8.4803,-8.555,0.0,0.0,0.0,0.0,0.0,0.0,0.0,0.0,0.0,0.0,0.0,0.0,0.0,0.0,0.0,0.0,0.0,0.0,0.0,0.0,0.0,-5.3592,-5.3592,-5.3592,-5.3592,-5.3592,-5.3592,-5.3592,-5.3592,-5.3592,-5.3592,-5.3592,-5.3592,-5.3592,-5.3592,-5.3592,-5.3592,-5.3592,-5.3592,-5.3592,-5.3592,-5.3592,-5.3592,-5.3592,-5.3592,-5.3592,-5.3713,-5.3713,-5.3713,-5.4405,0.0,0.0,0.0,0.0,-5.4139,-5.3322,-5.2465,-5.157,-5.132,-5.0865,-5.0641,-5.2004,-5.3078,-5.4164,-5.5286,-5.6367,-5.7174,-5.7174,-5.7174,-5.7174,-5.7174,-5.8297,-5.9177,-5.9177,-6.188,-6.3872,-6.3872,-6.5483,-6.6617,-6.6617,-6.6617,-6.6617,-6.6617,-6.6796,-6.7631,-6.9409,-6.9789,-7.0657,-7.2586,-7.2671,-7.2671,-7.2671,-7.2671,-7.2671,-7.2671,-7.2671,-7.3429,-7.4947,-7.55,-7.7122,-7.9721,-8.0695,-8.1542,-8.2186,-8.2186,-8.2186,-8.2186,-8.2186,-8.2186,-8.2251,-8.2793,-8.3396,-8.3989,-8.4533,-8.5062,-8.5626,0.0,0.0,0.0,0.0,0.0,0.0,0.0,0.0,0.0,0.0,-5.3537,-5.3592,0.0,0.0,0.0,0.0,0.0,0.0,0.0,0.0,0.0,-5.3592,-5.3592,-5.3592,-5.3592,-5.3592,-5.3592,-5.3592,-5.3592,-5.3592,-5.3592,-5.3592,-5.3592,-5.3592,-5.3592,-5.3592,-5.3592,-5.3592,-5.3592,-5.3592,-5.3592,-5.3592,-5.3592,-5.3592,-5.3592,-5.3713,-5.4166,-5.4047,-5.3833,-5.5026,-5.4998,0.0,0.0,0.0,-5.2903,-5.1445,-5.0461,-4.9719,-4.8396,-4.8646,-4.9713,-5.1728,-5.3078,-5.4164,-5.5286,-5.6367,-5.7174,-5.7174,-5.7174,-5.7174,-5.7174,-5.8297,-5.9177,-5.9177,-6.188,-6.3872,-6.3872,-6.5483,-6.6617,-6.6617,-6.6617,-6.6617,-6.6617,-6.7356,-6.8371,-6.9504,-7.0507,-7.1478,-7.2671,-7.2671,-7.2671,-7.2671,-7.2671,-7.2671,-7.2671,-7.2671,-7.3429,-7.4912,-7.7731,-7.9273,-7.9762,-8.1336,-8.2121,-8.2186,-8.2186,-8.2186,-8.2186,-8.2186,-8.2186,-8.2251,-8.2793,-8.3396,-8.3989,-8.4589,-8.511,-8.5626,0.0,0.0,0.0,0.0,0.0,0.0,0.0,0.0,0.0,0.0,0.0,-5.3592,0.0,0.0,0.0,0.0,0.0,0.0,0.0,0.0,0.0,-5.3592,-5.3592,-5.3592,-5.3592,-5.3592,-5.3592,-5.3592,-5.3592,-5.3592,-5.3592,-5.3592,-5.3592,-5.3592,-5.3592,-5.3592,-5.3592,-5.3592,-5.3592,-5.3592,-5.3592,-5.3227,-5.2711,-5.2711,-5.2711,-5.2834,-5.3052,-5.2929,-5.2834,-5.3416,-5.3052,-5.2289,-5.2289,0.0,0.0,0.0,-5.0104,-4.9407,-4.8523,-4.9157,-5.0321,-5.1495,-5.3394,-5.4994,-5.5419,-5.6367,-5.7174,-5.7174,-5.7431,-5.7688,-5.7303,-5.8297,-5.9397,-5.9863,-6.2203,-6.4097,-6.4543,-6.5808,-6.6617,-6.6617,-6.6617,-6.6796,-6.7356,-6.7802,-6.8765,-7.0415,-7.0906,-7.1654,-7.2671,-7.2671,-7.2671,-7.2671,-7.2671,-7.2671,-7.2671,-7.2671,-7.3649,-7.561,-7.8425,-7.9952,-8.0366,-8.1647,-8.2186,-8.2186,-8.2186,-8.2186,-8.2186,-8.2186,-8.2407,-8.2708,-8.3284,-8.3885,-8.4438,-8.5067,-8.5393,-8.5702,0.0,0.0,0.0,0.0,0.0,0.0,0.0,0.0,0.0,0.0,0.0,0.0,0.0,0.0,0.0,0.0,0.0,0.0,0.0,0.0,0.0,0.0,-5.3592,-5.3592,-5.3592,-5.3592,-5.3592,-5.3592,-5.3592,-5.3592,-5.3592,-5.3592,-5.3592,-5.3592,-5.3592,-5.3592,-5.3592,-5.3592,-5.3592,-5.3592,-5.3349,-5.2711,-5.2068,-5.1819,-5.1695,-5.1695,-5.1695,-5.1695,-5.1695,-5.1695,-5.122,-5.0588,-5.0588,-5.0461,0.0,0.0,0.0,-4.9197,-4.8816,-4.9499,-5.0479,-5.1555,-5.3382,-5.5102,-5.5789,-5.6655,-5.7174,-5.7174,-5.7688,-5.8071,-5.756,-5.8774,-5.9986,-6.0658,-6.2668,-6.4432,-6.5125,-6.6023,-6.6617,-6.6617,-6.6796,-6.7253,-6.8004,-6.8568,-6.9537,-7.1086,-7.1478,-7.1951,-7.2671,-7.2671,-7.2671,-7.2671,-7.2671,-7.2671,-7.2671,-7.305,-7.4281,-7.6187,-7.8583,-8.0143,-8.0911,-8.1782,-8.2186,-8.2186,-8.2186,-8.2186,-8.2186,-8.2186,-8.2497,-8.3053,-8.3672,-8.4242,-8.4803,-8.5433,-8.5743,-8.6046,0.0,0.0,0.0,0.0,0.0,0.0,0.0,0.0,0.0,0.0,0.0,0.0,-5.347,-5.3592,-5.3592,-5.3592,-5.3592,0.0,0.0,0.0,0.0,0.0,0.0,0.0,-5.3592,-5.3592,-5.3592,-5.3592,-5.3592,-5.3592,-5.3592,-5.3592,-5.3592,-5.3592,-5.3592,-5.3592,-5.3592,-5.3592,-5.3592,-5.347,-5.2588,-5.2192,-5.1944,-5.1094,-5.0715,-5.0715,-5.0715,-5.0715,-5.0715,-5.0715,-5.0588,-5.0588,-5.0588,-4.995,-4.9023,0.0,0.0,0.0,-4.8682,-4.8853,-4.9499,-5.2394,-5.3074,-5.3918,-5.6493,-5.7174,-5.7174,-5.7174,-5.7688,-5.8198,-5.8198,-5.9957,-6.1377,-6.1496,-6.3471,-6.5125,-6.5235,-6.6023,-6.6617,-6.6617,-6.7427,-6.8104,-6.8072,-6.9822,-7.1086,-7.121,-7.2124,-7.2671,-7.2671,-7.2671,-7.2671,-7.2671,-7.2671,-7.2671,-7.2671,-7.4085,-7.5238,-7.6187,-7.8583,-8.0143,-8.0911,-8.1782,-8.2186,-8.2186,-8.2186,-8.2186,-8.2186,-8.2186,-8.2497,-8.3053,-8.3672,-8.4242,-8.4803,-8.5433,-8.6125,-8.6849,0.0,0.0,0.0,0.0,0.0,0.0,0.0,0.0,0.0,0.0,0.0,0.0,0.0,-5.2588,-5.2588,-5.2588,-5.3227,0.0,0.0,0.0,0.0,0.0,0.0,0.0,-5.3592,-5.3592,-5.3592,-5.3592,-5.3592,-5.3592,-5.3592,-5.3592,-5.3592,-5.3592,-5.3592,-5.3592,-5.3592,-5.3592,-5.3227,-5.2588,-5.2192,-5.132,-5.0053,-4.9668,-4.954,-4.954,-4.954,-4.954,-4.954,-4.954,-4.9177,-4.8657,-4.8657,-4.8396,-4.8133,-4.8264,-4.8158,-4.8075,-4.8533,-4.9962,-5.1717,-5.2775,-5.433,-5.5996,-5.7031,-5.7159,-5.7303,-5.7688,-5.8451,-5.9149,-6.0079,-6.0899,-6.1733,-6.232,-6.3954,-6.5452,-6.6023,-6.6374,-6.6901,-6.7529,-6.7903,-6.8667,-6.9916,-7.0815,-7.1478,-7.2124,-7.2501,-7.2671,-7.2671,-7.2671,-7.2671,-7.2671,-7.2671,-7.2671,-7.2671,-7.4188,-7.561,-7.6985,-7.8817,-8.0402,-8.1715,-8.2055,-8.2186,-8.2186,-8.2186,-8.2186,-8.2186,-8.2186,-8.2708,-8.3618,-8.3832,-8.4438,-8.5232,-8.559,-8.6163,-8.6925,0.0,0.0,0.0,0.0,0.0,0.0,0.0,0.0,-4.9282,-5.132,0.0,0.0,0.0,0.0,-5.2192,-5.2588,-5.32,-5.3592,-5.3592,-5.3592,0.0,0.0,0.0,0.0,-5.3592,-5.3402,-5.3402,-5.3592,-5.3402,-5.3402,-5.3592,-5.3592,-5.3592,-5.3592,-5.3592,-5.3592,-5.3592,-5.3592,-5.2956,-5.2068,-5.1695,-5.0563,-4.8893,-4.8657,-4.8526,-4.8526,-4.8526,-4.8526,-4.8526,-4.8526,-4.8002,-4.7497,-4.7497,-4.7497,-4.7497,-4.7762,-4.7894,-4.8158,-4.8918,-5.0563,-5.2371,-5.3308,-5.4976,-5.6583,-5.7024,-5.7185,-5.7314,-5.7761,-5.855,-5.9617,-6.0899,-6.1733,-6.2553,-6.3501,-6.4764,-6.5915,-6.648,-6.6617,-6.6974,-6.8004,-6.8371,-6.925,-7.0996,-7.1478,-7.1951,-7.2671,-7.2671,-7.2671,-7.2671,-7.2671,-7.2671,-7.2671,-7.2671,-7.2671,-7.2671,-7.4495,-7.607,-7.7441,-7.924,-8.0876,-8.2186,-8.2186,-8.2186,-8.2186,-8.2186,-8.2186,-8.2186,-8.2407,-8.3032,-8.3937,-8.4092,-8.4711,-8.5511,-8.559,-8.6316,-8.7307,0.0,0.0,0.0,0.0,0.0,0.0,0.0,0.0,-4.8264,-5.0334,0.0,0.0,0.0,0.0,0.0,-5.3349,-5.347,-5.347,-5.347,-5.3592,0.0,0.0,0.0,0.0,-5.3592,-5.3049,-5.3022,-5.3592,-5.3022,-5.3049,-5.3592,-5.3592,-5.3592,-5.3592,-5.3592,-5.3592,-5.3592,-5.3592,-5.2956,-5.1944,-5.0968,-4.995,-4.8893,-4.7894,-4.7497,-4.7497,-4.7497,-4.7497,-4.7497,-4.7497,-4.7497,-4.7497,-4.7497,-4.7497,-4.7497,-4.7497,-4.7762,-4.8264,0.0,0.0,0.0,-5.4162,-5.4813,-5.5264,-5.6927,-5.7231,-5.7174,-5.7295,-5.8297,-5.9521,-6.0416,-6.2436,-6.4209,-6.5125,-6.6023,-6.6617,-6.6617,-6.6617,-6.6974,-6.8004,-6.9024,-7.001,-7.1086,-7.2124,-7.2671,-7.2671,-7.2671,-7.2671,-7.2671,-7.2671,-7.2671,-7.2671,-7.2671,-7.2705,-7.2705,-7.5043,-7.6631,-7.7476,-7.9793,-8.1405,-8.2186,-8.2186,-8.2186,-8.2186,-8.2186,-8.2186,-8.2251,-8.283,-8.334,-8.3937,-8.4486,-8.5062,-8.5511,-8.555,-8.6619,-8.811,0.0,0.0,0.0,0.0,0.0,0.0,-4.7894,-4.763,-4.8026,0.0,0.0,0.0,-4.9411,-4.9668,-4.9925,-5.0283,-5.0942,-5.1471,-5.1471,-5.2094,-5.2439,-5.2439,-5.3227,-5.3592,-5.3592,-5.3429,-5.3429,-5.3592,-5.3429,-5.3429,-5.3592,-5.3592,-5.3592,-5.3592,-5.3592,-5.3227,-5.2588,-5.3349,-5.2588,-5.0968,-5.0715,-4.9565,-4.7894,-4.763,-4.7497,-4.7497,-4.7497,-4.7497,-4.7497,-4.7497,-4.7497,-4.7497,-4.7497,-4.7497,-4.7497,-4.7497,-4.7762,-4.8396,-4.9874,0.0,0.0,0.0,0.0,0.0,-5.7768,-5.794,-5.8171,-5.9161,-6.0108,-6.1258,-6.2698,-6.3954,-6.5125,-6.6023,-6.6374,-6.6617,-6.6617,-6.6617,-6.6974,-6.8004,-6.9024,-7.001,-7.1086,-7.2124,-7.2671,-7.2671,-7.2671,-7.2671,-7.2671,-7.2671,-7.2671,-7.2671,-7.2671,-7.2946,-7.3464,-7.5288,-7.6914,-7.8298,-8.0045,-8.1405,-8.2186,-8.2186,-8.2186,-8.2186,-8.2186,-8.2407,-8.2793,-8.2972,-8.334,-8.3937,-8.4486,-8.5062,-8.5588,-8.6199,-8.7154,-8.8227,0.0,0.0,0.0,0.0,0.0,0.0,-4.7497,-4.7497,-4.7762,0.0,0.0,0.0,-4.8893,-4.9023,-4.9152,-4.9694,-5.0206,-5.0588,-5.0588,-5.1094,-5.1445,-5.1445,-5.2465,-5.2956,-5.2956,-5.3106,-5.3347,-5.3592,-5.3347,-5.3347,-5.3592,-5.3592,-5.3349,-5.2956,-5.2956,-5.2465,-5.1445,-5.2094,-5.1471,-4.995,-4.995,-4.8918,-4.7497,-4.7497,-4.7497,-4.7497,-4.7497,-4.7497,-4.7497,-4.7497,-4.7497,-4.7497,-4.7497,-4.7497,-4.763,-4.8371,-4.8632,-4.9386,-5.1714,-5.3066,-5.4176,-5.5761,0.0,0.0,-5.7724,-5.7845,-5.8231,-5.9475,-6.0445,-6.1615,-6.3501,-6.4543,-6.5483,-6.648,-6.6617,-6.6617,-6.6617,-6.6617,-6.6974,-6.8004,-6.9024,-7.001,-7.1086,-7.2124,-7.2671,-7.2671,-7.2671,-7.2671,-7.2671,-7.2671,-7.2671,-7.2671,-7.2671,-7.3015,-7.3774,-7.5765,-7.7298,-7.8655,-8.0549,-8.1715,-8.2186,-8.2186,-8.2186,-8.2186,-8.2186,-8.2497,-8.2994,-8.3284,-8.3688,-8.4292,-8.4848,-8.519,-8.5626,-8.6505,-8.7345,-8.8227,0.0,0.0,0.0,0.0,0.0,0.0,0.0,-4.7497,-4.7497,0.0,-4.7497,-4.7894,-4.8787,-4.8763,-4.9152,-5.0206,-5.0206,-5.0206,-5.0206,-5.0334,-5.0461,-5.0461,-5.1445,-5.2068,-5.1944,-5.2447,-5.3076,-5.347,-5.3076,-5.3076,-5.3592,-5.3592,-5.3078,-5.2068,-5.2068,-5.1445,-5.0461,-5.0461,-4.9822,-4.8893,-4.8893,-4.8396,-4.7497,-4.7497,-4.7497,-4.7497,-4.7497,-4.7497,-4.7497,-4.7497,-4.7497,-4.7497,-4.7497,-4.7497,-4.7738,-4.9232,-4.9849,-5.0713,-5.3763,-5.4741,-5.5239,-5.6936,-5.7303,0.0,-5.7435,-5.7535,-5.7902,-5.9031,-6.0144,-6.1467,-6.3471,-6.4654,-6.5592,-6.648,-6.6617,-6.6617,-6.6617,-6.6617,-6.6974,-6.7802,-6.8863,-6.9822,-7.0815,-7.183,-7.2501,-7.2501,-7.2671,-7.2671,-7.2671,-7.2671,-7.2671,-7.2671,-7.2671,-7.3169,-7.4048,-7.6321,-7.7869,-7.8838,-8.1146,-8.2186,-8.2186,-8.2186,-8.2186,-8.2186,-8.2251,-8.2622,-8.3169,-8.3779,-8.4292,-8.4757,-8.5311,-8.5511,-8.5626,-8.6581,-8.7462,-8.8307,0.0,0.0,0.0,0.0,0.0,0.0,0.0,-4.7497,-4.7497,-4.7497,-4.7497,-4.763,-4.7762,-4.7762,-4.7894,-4.8158,-4.8133,-4.8133,-4.8133,-4.8918,-4.9282,-4.9282,-5.1068,-5.1695,-5.0968,-5.2604,-5.3093,-5.2439,-5.3093,-5.3483,-5.3592,-5.3592,-5.3078,-5.2068,-5.2068,-5.1068,-4.9282,-4.9282,-4.8787,-4.7894,-4.8632,-4.8396,-4.7497,-4.7497,-4.7497,-4.7497,-4.7497,-4.7497,-4.7497,-4.7497,-4.7497,-4.7497,-4.7497,-4.7497,-4.7497,-4.787,-4.8998,-5.046,-5.2402,-5.3882,-5.5239,-5.6936,-5.7303,0.0,-5.7946,-5.8552,-5.9129,-5.985,-6.1791,-6.3388,-6.3759,-6.5235,-6.6374,-6.6617,-6.6617,-6.6617,-6.6617,-6.6617,-6.6691,-6.6869,-6.7802,-6.847,-6.8667,-7.0415,-7.1478,-7.1478,-7.221,-7.2671,-7.2671,-7.2671,-7.2671,-7.2671,-7.2671,-7.3712,-7.5697,-7.6837,-7.8418,-8.0443,-8.1641,-8.2186,-8.2186,-8.2186,-8.2186,-8.2251,-8.2647,-8.3169,-8.3779,-8.4341,-8.458,-8.4757,-8.5311,-8.5511,-8.5702,-8.7269,-8.804,-8.861,0.0,-4.7497,0.0,0.0,0.0,0.0,0.0,-4.7906,-4.8002,-4.8243,-4.8291,-4.8291,-4.8291,-4.8291,-4.8291,-4.8291,-4.8291,-4.8291,-4.8291,-4.8561,-4.8656,-4.8656,-4.9794,-5.0308,-4.9822,-5.132,-5.1846,-5.1346,-5.1846,-5.2094,-5.2094,-5.2094,-5.157,-5.0537,-5.0537,-4.9668,-4.8289,-4.8558,-4.8415,-4.7858,-4.8123,-4.8002,-4.7497,-4.7497,-4.7497,-4.7497,-4.7497,-4.7497,-4.7497,-4.7497,-4.7497,-4.7497,-4.7497,-4.7497,-4.7738,-4.9127,-5.0359,-5.1688,-5.379,-5.5239,-5.6337,-5.7049,-5.7303,0.0,0.0,-5.8579,-5.9304,-6.1028,-6.249,-6.3759,-6.4795,-6.5947,-6.6617,-6.6617,-6.6617,-6.6617,-6.6617,-6.6617,-6.6617,-6.6617,-6.7529,-6.8072,-6.8072,-6.9949,-7.1389,-7.1951,-7.2416,-7.2671,-7.2671,-7.2671,-7.2671,-7.2671,-7.2671,-7.3865,-7.6152,-7.6985,-7.8564,-8.0911,-8.1782,-8.2186,-8.2186,-8.2186,-8.2186,-8.2251,-8.2769,-8.334,-8.3937,-8.4486,-8.4848,-8.5105,-8.5393,-8.5511,-8.5702,-8.746,-8.8232,-8.8679,-4.7666,-4.7642,0.0,0.0,0.0,0.0,0.0,0.0,-4.8603,-4.9012,-4.9084,-4.9084,-4.9084,-4.9084,-4.9084,-4.9084,-4.9084,-4.9084,-4.9084,-4.8676,-4.8435,-4.8435,-4.9067,-4.9165,-4.8936,0.0,-5.0563,-5.0334,-5.0461,-5.0588,-5.0588,-5.0588,-5.0078,-4.9023,-4.9147,-4.8543,-4.769,-4.8219,-4.8435,-4.8411,-4.7978,-4.781,-4.781,-4.781,-4.781,-4.781,-4.781,-4.781,-4.781,-4.781,-4.7738,-4.7642,-4.7642,-4.7642,-4.8148,-5.041,-5.1669,-5.2929,-5.5323,-5.6394,-5.6964,-5.7191,-5.7278,-5.754,0.0,0.0,0.0,-6.1848,-6.2839,-6.3841,-6.5731,-6.6299,-6.6617,-6.6617,-6.6617,-6.6617,-6.6617,-6.6617,-6.6617,-6.6617,-6.7356,-6.7802,-6.7802,-6.9633,-7.1266,-7.2296,-7.2586,-7.2671,-7.2671,-7.2671,-7.2671,-7.2671,-7.2671,-7.3878,-7.6146,-7.6991,-7.8565,-8.0942,-8.1812,-8.2186,-8.2186,-8.2186,-8.2251,-8.2407,-8.2913,-8.3508,-8.4092,-8.4627,-8.5105,-8.5511,-8.5511,-8.5511,-8.5702,-8.7502,-8.8308,-8.8748,-4.8291,-4.8195,-4.8339,0.0,0.0,0.0,0.0,0.0,-4.9012,-4.906,-4.9084,-4.9084,-4.9084,-4.9084,-4.9084,-4.9084,-4.9084,-4.9084,-4.9084,-4.9012,-4.8988,-4.8988,-4.9842,-4.9731,-4.8463,0.0,-5.0535,-4.9152,-5.0078,-5.0588,-5.0588,-5.0588,-5.0078,-4.9047,-4.9544,-4.9107,-4.8243,-4.8772,-4.8988,-4.8988,-4.8916,-4.8892,-4.8892,-4.8892,-4.8892,-4.8892,-4.8892,-4.8892,-4.8892,-4.8892,-4.8579,-4.8195,-4.8195,-4.8195,-4.8367,-4.9041,-5.0742,-5.2648,-5.3861,-5.497,-5.5961,-5.7078,-5.7283,-5.7541,-5.8147,0.0,-6.1371,-6.1634,0.0,-6.5016,-6.5235,0.0,0.0,-6.6617,-6.6617,-6.6617,-6.6617,-6.6617,-6.6617,-6.6617,-6.6691,-6.6796,-6.6796,-6.8568,-7.0196,-7.13,-7.221,-7.2671,-7.2671,-7.2671,-7.2671,-7.2671,-7.2671,-7.381,-7.6221,-7.7009,-7.8639,-8.0992,-8.1791,-8.2186,-8.2186,-8.2186,-8.2434,-8.2972,-8.3563,-8.4092,-8.4627,-8.519,-8.5471,-8.5511,-8.5511,-8.5511,-8.5742,-8.7656,-8.8517,-8.9038,-4.8796,-4.8748,-4.882,-4.9036,0.0,0.0,0.0,-4.9806,-5.0022,-5.0022,-5.0022,-5.0022,-5.0022,-5.0022,-4.9859,-4.9438,-4.9274,-4.9274,-4.9274,-4.9013,-4.9125,-4.9541,-4.964,-4.9373,-4.8748,-4.9536,-4.9682,-4.906,-4.9141,-4.9257,-4.9257,-4.9257,-4.8993,-4.8621,-4.9157,-4.9131,-4.8772,-4.9325,-4.9541,-4.9565,-4.9902,-5.0022,-4.995,-4.9325,-4.9084,-4.9084,-4.9084,-4.9084,-4.9084,-4.9084,-4.894,-4.8748,-4.8748,-4.8531,-4.8646,-4.9962,-5.1075,-5.2181,-5.3806,-5.513,-5.6148,-5.6588,-5.7334,-5.8258,-5.9394,-6.0701,-6.1978,-6.3386,0.0,0.0,0.0,0.0,0.0,0.0,-6.6617,-6.6617,-6.6617,-6.6617,-6.6796,-6.7427,-6.6974,-6.6796,-6.7427,-6.8765,-7.001,-7.1086,-7.2124,-7.2671,-7.2671,-7.2671,-7.2671,-7.2671,-7.2671,-7.3856,-7.6152,-7.7012,-7.8567,-8.1012,-8.1819,-8.2186,-8.2186,-8.2186,-8.2497,-8.2994,-8.3672,-8.4193,-8.4757,-8.5311,-8.5511,-8.5511,-8.5511,-8.5511,-8.5665,-8.7156,-8.8166,-8.903,-4.9517,-4.9397,-4.9349,-4.9493,0.0,0.0,0.0,-5.0455,-5.0696,-5.0696,-5.0696,-5.0696,-5.0696,-5.0554,-5.0104,-4.9509,-4.9365,-4.9221,-4.9221,-4.9014,-4.9086,-4.9533,-4.9595,-4.9307,-4.9025,-4.9163,-4.9229,-4.9084,-4.87,-4.8507,-4.8507,-4.8507,-4.8507,-4.8531,-4.906,-4.9301,-4.9325,-4.9878,-5.0095,-5.0143,-5.0527,-5.0696,-5.0624,-4.983,-4.9517,-4.9517,-4.9517,-4.9517,-4.9517,-4.9517,-4.9421,-4.9438,-4.9689,-4.9422,-4.9597,-5.1405,-5.2204,-5.2701,-5.4539,-5.5594,-5.6196,-5.6795,-5.7633,-5.877,-6.0501,-6.1549,-6.2845,-6.4782,-6.5344,0.0,0.0,0.0,-6.6617,-6.6617,0.0,-6.6617,-6.6617,-6.6617,-6.6869,-6.7631,-6.7253,-6.7459,-6.8371,-6.9442,-7.0381,-7.1086,-7.2124,-7.2671,-7.2671,-7.2671,-7.2671,-7.2671,-7.2887,-7.3957,-7.5831,-7.7126,-7.8707,-8.0681,-8.1709,-8.2186,-8.2186,-8.2343,-8.2708,-8.3284,-8.3885,-8.4438,-8.4937,-8.5352,-8.5511,-8.5511,-8.5552,-8.559,-8.5743,-8.6841,-8.7988,-8.904,-5.0648,-5.0215,-5.0022,-5.0551,-5.0648,-5.0648,0.0,-5.0696,-5.0696,-5.0696,-5.0696,-5.0696,-5.0696,-4.9961,-4.9509,-4.9509,-4.8812,-4.84,-4.84,-4.9078,-4.9198,-4.8523,-4.9795,-5.0101,-4.8709,-4.9411,-4.9589,-4.9084,-4.906,-4.906,-4.906,-4.906,-4.906,-4.9084,-4.9614,-4.983,-4.9878,-5.0431,-5.0672,-5.0672,-5.0696,-5.0696,-5.0696,-5.0672,-5.0648,-5.0648,-5.0648,-5.0648,-5.0648,-5.0648,-5.0287,0.0,-5.1048,-5.1433,-5.1715,-5.3322,-5.4205,-5.4884,-5.5936,-5.5826,-5.5881,-5.7803,-5.8256,-5.8803,-6.1084,-6.2709,-6.4066,-6.5016,-6.5915,-6.6586,-6.6617,-6.6617,-6.6617,-6.6617,-6.6617,0.0,0.0,-6.6617,-6.6617,-6.6586,-6.7427,-6.847,-6.9409,-7.0507,-7.1176,-7.121,-7.2124,-7.2671,-7.2671,-7.2671,-7.2671,-7.2671,-7.3392,-7.4187,-7.5046,-7.7413,-7.8971,-7.9837,-8.1415,-8.2186,-8.2186,-8.2769,-8.3284,-8.3885,-8.4438,-8.498,-8.5471,-8.5511,-8.5511,-8.5551,-8.5813,-8.5881,-8.6031,-8.7102,-8.819,-8.9333,-5.0696,-5.0551,-5.0479,-5.0672,-5.0696,-5.0696,-5.0696,-5.0696,-5.0554,-4.9961,-4.9961,-4.9675,-4.9245,-4.8957,-4.8523,-4.8064,-4.7772,-4.7648,-4.7648,-4.8377,-4.8667,-4.84,-4.9842,-5.0175,-4.925,-4.9984,-5.0335,-5.0143,-4.9782,-4.9589,-4.9589,-4.9589,-4.9589,-4.9614,-5.0167,-5.0431,-5.0431,-5.0624,-5.0696,-5.0696,-5.0696,-5.0696,-5.0696,-5.0696,-5.0696,-5.0696,-5.0696,-5.0696,0.0,-5.0696,-5.1114,-5.159,-5.1866,-5.2277,-5.2756,-5.4053,-5.4285,-5.4357,-5.5437,-5.5807,-5.6106,-5.6858,-5.7924,-5.9428,-6.1381,-6.2864,-6.432,-6.5808,-6.6374,-6.6617,-6.6617,-6.6617,-6.6617,-6.6617,-6.6617,-6.6617,0.0,-6.7149,-6.8104,-6.9475,-6.9949,-7.001,-6.9599,-7.0599,-7.121,-7.121,-7.2124,-7.2671,-7.2671,-7.2671,-7.2671,-7.2671,-7.3392,-7.4187,-7.501,-7.7413,-7.9038,-7.98,-8.1415,-8.2186,-8.2186,-8.2769,-8.334,-8.3937,-8.4486,-8.498,-8.5511,-8.5511,-8.5511,-8.5551,-8.5813,-8.5983,-8.6215,-8.6721,-8.79,-8.9435,-5.0696,-5.0696,-5.0696,-5.0696,-5.0696,-5.0696,-5.0696,-5.0412,-5.0104,-4.9509,-4.9221,-4.8957,-4.84,-4.8086,-4.7794,-4.7208,-4.6891,-4.6891,-4.7186,-4.7648,-4.7941,-4.7941,-4.9245,-4.9532,-4.8644,-4.9675,-5.0246,-5.0246,-5.0194,-5.0167,-5.0167,-5.0167,-5.0167,-5.0191,-5.0551,-5.0696,-5.0696,-5.0696,-5.0696,-5.0696,-5.0696,-5.0696,-5.0696,-5.0696,-5.0696,-5.0696,-5.0696,-5.0696,-5.0696,-5.0696,-5.1352,-5.2416,-5.2692,-5.3394,-5.4181,-5.5258,-5.5279,-5.5243,-5.5907,-5.6332,0.0,-5.7437,-5.8591,-5.9986,-6.1704,-6.3129,-6.4351,-6.5344,-6.5915,-6.6268,-6.6268,-6.6374,-6.6512,-6.6512,-6.6512,-6.6691,0.0,-6.8304,-6.9727,-7.0996,-7.121,-7.1086,-7.0748,-7.1355,-7.1742,-7.1742,-7.2296,-7.2671,-7.2671,-7.2671,-7.2671,-7.2671,-7.3677,-7.4492,-7.501,-7.7691,-7.9274,-7.98,-8.1415,-8.2279,-8.2497,-8.309,-8.3672,-8.4193,-8.4757,-8.519,-8.5511,-8.5511,-8.5511,-8.5551,-8.5881,-8.6153,-8.6336,-8.652,-8.7754,-8.9577,-5.0696,-5.0696,-5.0696,-5.0696,-5.0696,-5.0696,-5.0696,-4.9961,-4.9509,-4.9509,-4.8812,-4.84,-4.8255,-4.7648,-4.7186,-4.7186,-4.6448,-4.6299,-4.7038,-4.7186,-4.7186,-4.7186,-4.7941,-4.8086,-4.7208,-4.8789,-4.9509,-4.9509,-5.0246,-5.0696,-5.0696,-5.0696,-5.0696,-5.0696,-5.0696,-5.0696,-5.0696,-5.0696,-5.0696,-5.0696,-5.0744,-5.0744,-5.0744,-5.0768,-5.0792,-5.0768,-5.072,-5.072,-5.0744,-5.072,-5.1492,-5.2554,-5.3623,-5.4727,-5.5842,-5.6915,-5.7174,-5.7174,-5.7174,-5.7303,-5.7788,-5.9588,-6.0079,-6.0566,-6.2233,-6.3532,-6.4239,-6.3954,-6.4875,-6.57,-6.57,-6.5947,-6.6192,-6.6192,-6.6406,-6.6974,-6.8004,-6.9822,-7.1176,-7.13,-7.13,-7.1654,-7.2586,-7.2671,-7.2671,-7.2671,-7.2671,-7.2671,-7.2671,-7.2671,-7.2671,-7.2671,-7.4223,-7.501,-7.501,-7.8201,-7.98,-7.98,-8.1415,-8.2497,-8.2994,-8.3618,-8.4193,-8.4757,-8.527,-8.5511,-8.5511,-8.5511,-8.5511,-8.5552,-8.612,-8.6307,-8.6366,-8.6584,-8.7929,-8.9735,-5.0696,-5.0696,-5.0696,-5.0696,-5.0696,-5.0696,-5.0696,-4.9961,-4.9365,-4.8812,-4.7941,-4.7355,-4.6743,-4.6448,-4.6299,-4.6299,-4.6151,-4.6151,-4.6299,-4.6891,-4.6891,-4.6299,-4.7648,-4.8086,-4.7208,-4.8789,-4.9509,-4.9509,-5.0246,-5.0696,-5.0696,-5.0696,-5.0696,-5.0696,-5.0696,-5.0696,-5.0696,-5.0696,-5.0696,-5.0744,-5.1129,-5.1297,-5.1345,-5.173,-5.1874,-5.1778,-5.0984,-5.096,-5.1225,-5.084,-5.1886,-5.3487,-5.3759,-5.526,-5.6785,-5.7174,-5.7174,-5.7174,-5.7174,-5.7916,-5.8746,-5.9245,-6.0445,-6.1762,0.0,-6.3759,-6.4604,-6.5125,-6.5452,-6.57,-6.57,-6.5947,-6.6192,-6.6192,-6.6406,-6.7149,-6.896,-6.9694,-7.0565,-7.2124,-7.2296,-7.2416,-7.2671,-7.2671,-7.2671,-7.2671,-7.2671,-7.2671,-7.2671,-7.2671,-7.2671,-7.2671,-7.4223,-7.501,-7.501,-7.8201,-7.98,-7.98,-8.1415,-8.2497,-8.2994,-8.3618,-8.4193,-8.4757,-8.527,-8.5511,-8.5511,-8.5511,-8.559,-8.5849,-8.6184,-8.6505,-8.6916,-8.7662,-8.8723,-8.9884,-5.0696,-5.0696,-5.0696,-5.0696,-4.9938,-4.9342,-4.9342,-4.9485,-4.9078,-4.7749,-4.7332,-4.7038,-4.6596,-4.6151,-4.6002,-4.6002,-4.6002,-4.6151,-4.6448,-4.6596,-4.6596,-4.6596,-4.7061,-4.7186,-4.6743,-4.7918,-4.8644,-4.9101,-4.9818,-5.0412,-5.0696,-5.0696,-5.0696,-5.0696,-5.0696,-5.0696,-5.072,-5.096,-5.1177,-5.1417,-5.173,-5.1826,0.0,-5.2163,-5.2427,-5.2524,-5.1682,-5.1586,-5.1922,-5.2038,-5.3303,-5.4749,-5.4899,-5.6187,-5.7526,-5.7255,-5.7174,-5.7174,-5.7174,-5.8143,-5.9217,-5.9806,-6.1139,-6.2582,-6.3014,-6.3902,-6.4604,-6.4543,-6.4906,-6.5406,-6.5406,-6.5731,-6.6085,-6.6192,-6.7046,-6.8104,-6.9313,-7.0255,-7.141,-7.2586,-7.2671,-7.2671,-7.2671,-7.2671,-7.2671,-7.2671,-7.3053,-7.3018,-7.2755,-7.3053,-7.3183,-7.3183,-7.434,-7.5155,-7.5512,-7.837,-7.98,-7.98,-8.1697,-8.289,-8.3396,-8.3989,-8.4533,-8.5062,-8.5352,-8.5511,-8.5511,-8.5511,-8.5666,-8.5915,-8.6298,-8.6684,-8.7097,-8.765,-8.8452,-8.9365,-5.072,-5.0696,-5.072,-5.0792,-4.9124,-4.7772,-4.7547,-4.8232,-4.8163,-4.6359,-4.6551,-4.6743,-4.6743,-4.6299,-4.6024,-4.609,-4.609,-4.6431,-4.7239,-4.658,-4.6387,-4.715,-4.6492,-4.6002,-4.6002,-4.6743,-4.7648,-4.84,-4.9078,-4.9961,-5.0696,-5.0696,-5.0696,-5.0696,-5.0768,-5.084,-5.0936,-5.1393,-5.185,-5.2283,-5.2355,-5.2379,-5.2379,-5.2451,-5.2764,-5.3101,-5.2644,-5.2451,-5.2501,-5.3706,-5.4653,-5.5673,-5.6389,-5.733,-5.8069,-5.7472,-5.7309,-5.7282,-5.7459,-5.8396,-5.9711,-6.087,-6.2203,-6.3159,-6.3159,-6.4015,-6.4524,-6.3418,-6.4158,-6.4888,-6.4888,-6.5297,-6.5808,-6.6268,-6.7701,-6.8927,-6.9313,-7.1053,-7.2296,-7.2586,-7.2671,0.0,-7.2804,-7.2755,-7.2755,-7.2838,-7.3472,-7.3517,-7.2887,-7.3437,-7.3799,-7.3799,-7.4567,-7.537,-7.6203,-7.8492,-7.9753,-7.9889,-8.1904,-8.3228,-8.4041,-8.4486,-8.498,-8.5511,-8.5511,-8.5511,-8.5511,-8.5551,-8.5741,-8.6049,-8.6494,-8.6842,-8.7105,-8.7167,-8.7676,-8.8456,-5.0792,-5.0696,-5.084,-5.1273,-4.966,-4.7813,-4.6528,-4.5318,-4.4398,-4.4096,-4.444,-4.4762,-4.4762,-4.5533,-4.6155,-4.657,-4.6614,-4.6789,-4.7356,-4.6832,-4.6614,-4.6743,-4.6221,-4.6002,-4.6002,-4.6743,-4.7648,-4.84,-4.9078,-4.9961,-5.0696,-5.0696,-5.0696,-5.072,-5.1153,-5.1586,-5.2018,-5.2091,-5.2187,-5.2331,-5.2764,-5.2932,-5.298,-5.3389,-5.3606,-5.3678,-5.3582,-5.3293,-5.3008,-5.3829,-5.4653,-5.5725,-5.6888,-5.7973,-5.872,-5.8096,-5.7906,-5.8058,-5.8661,-5.9683,-6.099,-6.2203,-6.3532,-6.4524,-6.4524,-6.4777,-6.4777,-6.4635,-6.4777,-6.4888,-6.4888,-6.5187,-6.5808,-6.691,-6.6701,-6.7292,-6.9855,-6.9855,-7.0289,-7.2124,-7.2416,-7.272,-7.3517,-7.3018,-7.297,-7.3597,-7.3721,-7.3721,-7.3597,-7.3721,-7.3799,-7.3799,-7.4567,-7.537,-7.6203,-7.7943,-7.9375,-8.0502,-8.1487,-8.2944,-8.4533,-8.4665,-8.498,-8.5511,-8.5511,-8.5511,-8.5511,-8.5741,-8.6114,-8.652,-8.6816,-8.6982,-8.7089,-8.7105,-8.723,-8.7573,-5.1562,-5.1513,-5.1297,-5.0467,-4.8516,-4.6572,-4.4795,-4.2763,-4.2191,-4.3885,-4.5464,-4.6399,-4.6399,-4.6594,-4.6876,-4.7094,-4.7116,-4.7225,-4.7466,-4.7269,-4.7116,-4.7116,-4.6898,-4.6767,-4.6767,-4.722,-4.797,-4.9158,-4.9577,-5.0331,-5.1513,-5.1513,-5.1513,-5.1537,-5.1343,-5.1749,-5.2692,-5.2225,-5.2369,-5.3101,-5.3365,-5.3293,-5.3101,-5.3341,-5.3269,-5.3029,-5.3029,-5.3278,-5.3691,-5.5265,-5.6482,-5.7556,-5.8396,-5.9022,-5.9344,-5.872,-5.8811,-5.91,-5.9431,-6.0768,-6.2173,-6.2784,-6.3902,-6.4888,-6.4888,-6.4888,-6.4888,-6.4888,-6.4888,-6.4888,-6.5108,-6.5108,0.0,-6.6878,-6.7086,-6.7838,-6.9949,-7.0415,-7.0906,-7.2124,-7.2331,-7.2552,-7.3183,-7.3229,-7.3597,-7.434,-7.4416,-7.4264,-7.3799,-7.4187,-7.4416,-7.4416,-7.5227,-7.5963,-7.6765,-7.8223,-7.9512,-8.0636,-8.1986,-8.3363,-8.4711,-8.5018,-8.527,-8.5511,-8.5511,-8.5511,-8.5551,-8.5954,-8.6298,-8.6621,-8.6881,-8.7076,-8.7152,-8.7105,-8.7167,-8.7376,-5.1673,-5.1649,-5.0912,-4.9012,-4.6764,-4.4857,-4.3241,-4.1798,-4.1579,-4.3913,-4.6124,-4.7706,-4.7881,-4.7619,-4.7531,-4.7619,-4.7641,-4.7684,-4.7793,-4.7684,-4.7641,-4.7641,-4.7553,-4.7488,-4.7488,-4.7488,-4.8231,-4.9547,-4.987,-5.0569,-5.1823,-5.2211,-5.2331,-5.2134,-5.1521,-5.1805,-5.2774,0.0,-5.2372,-5.333,-5.3384,-5.3245,-5.2908,-5.2908,-5.2644,-5.2283,-5.2283,-5.313,-5.4495,-5.6351,-5.7655,-5.8726,-5.9426,-5.9697,-5.9616,-5.9127,-5.9634,-6.0216,-6.0596,-6.1837,-6.3254,-6.3484,-6.4249,-6.4888,-6.4888,-6.4888,-6.4888,-6.4888,-6.4888,-6.4998,-6.5218,-6.5187,0.0,-6.6701,-6.7668,-6.8732,-6.9822,-7.0815,-7.1688,-7.2124,-7.2124,-7.2296,-7.2804,-7.3517,-7.434,-7.5227,-7.5227,-7.501,-7.434,-7.4937,-7.5263,-7.544,-7.5963,-7.6664,-7.7592,-7.859,-7.9651,-8.0933,-8.2443,-8.3733,-8.4892,-8.5311,-8.5511,-8.5511,-8.5511,-8.5552,-8.5704,-8.6146,-8.6467,-8.6708,-8.6941,-8.7072,-8.7195,-8.7105,-8.7167,-8.7348,-4.9801,-4.9328,-4.8861,-4.7281,-4.481,-4.3261,-4.3659,-4.344,-4.3042,-4.2242,-4.336,-4.4625,-4.5721,-4.685,-4.7662,-4.8077,-4.8099,-4.8296,-4.8733,-4.8361,-4.8099,-4.8099,-4.7706,-4.7488,-4.7488,-4.7488,-4.7925,-4.8642,-4.9547,-5.0086,-5.0378,-5.1751,-5.2082,-5.1915,-5.1765,0.0,0.0,-5.1722,-5.1859,-5.2009,-5.2301,-5.2403,-5.2355,-5.2355,-5.2331,-5.2283,-5.2283,-5.3681,-5.5497,-5.5739,-5.6487,-5.7588,-5.8671,-5.9073,-5.9073,-5.9019,-5.9938,-6.1119,-6.2352,-6.3234,-6.4206,-6.5329,-6.5238,-6.4888,-6.4888,-6.4888,-6.4888,-6.4888,-6.4888,-6.4888,-6.4888,-6.57,-6.6385,-6.6491,-6.7395,-6.847,-6.9571,-6.9855,-7.0356,-7.1512,-7.1688,-7.2176,-7.3322,-7.4152,-7.4975,-7.5963,-7.6068,-7.6032,-7.5963,-7.6068,-7.633,-7.6825,-7.6425,-7.6997,-7.8741,-7.8383,-7.9486,-8.2082,-8.2203,-8.3378,-8.5431,-8.5471,-8.5511,-8.5511,-8.5511,-8.5777,-8.6246,-8.6467,-8.6731,-8.6961,-8.6982,-8.7072,-8.7195,-8.7076,-8.7089,-8.7195,-4.8342,-4.8187,-4.7604,-4.5571,-4.4502,-4.3327,-4.2226,-4.277,-4.3327,-4.3652,-4.536,-4.672,-4.749,-4.8005,-4.8405,-4.8602,-4.8602,-4.8689,-4.8886,-4.8711,-4.8602,-4.8602,-4.8143,-4.7903,-4.7903,-4.6824,-4.6807,-4.7553,-4.8446,-4.8613,-4.8261,-4.9835,-5.0215,0.0,0.0,-4.9784,-5.1221,-5.1164,-5.1686,-5.2607,-5.3,-5.3029,-5.2764,-5.2764,-5.2355,-5.1947,-5.2498,-5.3528,-5.4723,-5.5429,-5.6712,-5.8429,-5.8858,-5.8992,-5.8992,-5.8992,-6.0208,-6.17,-6.2695,-6.3951,-6.5399,-6.6283,-6.5996,-6.5503,-6.5503,-6.5195,-6.4888,-6.4888,-6.4888,-6.4888,-6.4888,-6.5808,-6.6701,-6.7395,-6.8371,-6.9475,-7.0482,-7.0699,-7.0882,-7.1512,-7.1688,-7.2124,-7.2769,-7.4033,-7.5083,-7.5441,-7.5895,-7.6203,-7.6203,-7.6203,-7.6461,-7.7011,-7.7206,-7.7829,-7.8891,-7.8989,-7.9877,-8.1496,-8.2285,-8.3404,-8.4785,-8.5282,-8.5511,-8.5511,-8.5666,-8.595,-8.6307,-8.652,-8.6754,-8.6982,-8.6982,-8.7076,-8.7121,-8.704,-8.7076,-8.7137,-4.6664,-4.6504,-4.5879,-4.3778,-4.3186,-4.2798,-4.1694,-4.2392,-4.3667,-4.5271,-4.7103,-4.8361,-4.8842,-4.8907,-4.8907,-4.8907,-4.8907,-4.8907,-4.8907,-4.8907,-4.8907,-4.8907,-4.858,-4.8383,-4.8383,-4.7254,-4.6748,-4.6883,-4.7639,-4.753,-4.645,-4.7838,-4.8386,0.0,-4.7793,-4.8892,-5.0758,-5.0967,-5.1686,-5.278,-5.3144,-5.3149,-5.2836,-5.2836,-5.2647,-5.2281,-5.3113,-5.3974,-5.4827,-5.5523,-5.7063,-5.8476,-5.8476,-5.8476,-5.8635,-5.9166,-6.0512,-6.2093,-6.3222,-6.4661,-6.6057,-6.6735,-6.6396,-6.5903,-6.5903,-6.5534,-6.5134,-6.4949,-6.4888,-6.4888,-6.4888,-6.5991,-6.7086,-6.7599,-6.909,-7.0296,-7.0791,-7.1098,-7.1401,-7.1546,-7.1634,-7.1898,-7.2159,-7.3799,-7.4828,-7.501,-7.5963,-7.6534,-7.6534,0.0,0.0,-7.7509,-7.8071,-7.8639,-7.9358,-7.9583,-8.0249,-8.125,-8.2453,-8.3448,-8.4327,-8.5129,-8.5551,-8.5628,-8.5881,-8.6146,-8.6423,-8.6635,-8.6838,-8.6982,-8.6982,-8.704,-8.7072,-8.7021,-8.7058,-8.7105,-4.4742,-4.4415,-4.3613,-4.1546,-4.073,-4.0952,-4.2231,-4.3178,-4.4315,-4.6016,-4.7361,-4.8361,-4.8842,-4.8907,-4.8907,-4.8907,-4.8907,-4.8907,-4.8907,-4.8907,-4.8907,-4.8907,-4.8886,-4.8886,-4.8886,-4.8886,-4.823,-4.6909,-4.7709,-4.7273,-4.5381,-4.6311,-4.7197,-4.8165,-4.9091,-4.9584,-5.0232,-5.1268,-5.1836,-5.1789,-5.2206,-5.2283,-5.2283,-5.2283,-5.2985,-5.3942,-5.3942,-5.4949,-5.6369,-5.6369,-5.669,-5.7201,-5.7201,-5.7201,-5.7568,-5.95,-6.0994,-6.2458,-6.4308,-6.5274,-6.6057,-6.6735,-6.6396,-6.5903,-6.5903,-6.5903,-6.5719,-6.5042,-6.4888,-6.4888,-6.4888,-6.6596,-6.7802,-6.6701,-6.922,-7.0916,-6.9888,-7.0608,-7.1312,-7.1312,-7.1312,-7.1491,-7.1985,-7.3367,-7.4496,-7.501,-7.6432,-7.7243,-7.7243,0.0,0.0,-7.8841,-7.8891,0.0,-8.0468,-7.9958,-8.0376,-8.1805,-8.2607,-8.3448,-8.4327,-8.5129,-8.5628,-8.5881,-8.6184,-8.6384,-8.6596,-8.6881,-8.6982,-8.6982,-8.6982,-8.704,-8.7072,-8.7021,-8.7058,-8.7105,-4.2178,-4.2178,-4.1863,-4.1229,-4.095,-4.1026,-4.1528,-4.2537,-4.3791,-4.5251,-4.656,-4.774,-4.8727,-4.8907,-4.8907,-4.8907,-4.8907,-4.8907,-4.8907,-4.8907,-4.8907,-4.8907,-4.858,-4.7913,-4.7103,-4.6016,-4.4739,-4.3438,-4.4199,0.0,0.0,-4.288,-4.346,-4.5195,-4.5354,-4.7216,-5.0049,-5.0687,-5.1686,-5.278,-5.3096,-5.3317,-5.3317,-5.3317,-5.3815,-5.4633,-5.5349,-5.6235,-5.7059,-5.749,-5.7671,-5.7716,-5.7309,-5.7174,-5.7459,-5.8997,-6.0337,-6.1786,-6.3683,-6.5086,-6.6057,-6.6735,-6.6396,-6.6027,-6.6488,-6.6242,-6.5842,-6.5626,-6.5226,-6.5077,-6.5915,-6.7189,-6.8172,-6.8568,-7.0203,-7.1222,-7.0791,-7.1098,-7.1312,-7.1312,-7.1457,-7.183,-7.27,-7.3842,-7.4902,-7.5757,-7.6765,-7.7304,-7.7304,0.0,0.0,0.0,-7.9227,0.0,-8.0506,-8.0354,-8.0469,-8.0926,-8.234,-8.3754,-8.5129,-8.5589,-8.5849,-8.5915,-8.6327,-8.6546,-8.6621,-8.6881,-8.6982,-8.6982,-8.6982,-8.7001,-8.704,-8.7001,-8.7055,-8.7117,-4.106,-4.106,-4.106,-4.106,-4.106,-4.1229,-4.1714,-4.2512,-4.3507,-4.4842,-4.5637,-4.6467,-4.7272,-4.7432,0.0,-4.8727,-4.8907,-4.8907,-4.8907,-4.841,-4.8092,-4.8092,-4.7474,-4.6669,-4.5711,-4.4803,0.0,-4.2221,-4.2202,-4.2202,-4.2202,-4.126,-4.1914,-4.4181,-4.4481,-4.6834,-5.0444,-5.107,-5.2118,-5.3365,-5.3702,-5.3822,-5.3822,-5.4248,-5.5065,-5.593,-5.6907,-5.7808,-5.8265,-5.8589,-5.8449,-5.7988,-5.7635,-5.7724,-5.8143,-5.9465,-6.0416,-6.1436,-6.37,-6.4911,-6.5688,-6.6365,-6.6211,-6.6088,-6.6765,-6.6396,-6.5903,-6.5903,-6.5565,-6.5496,-6.6343,-6.7395,-6.847,-6.9571,-7.0608,-7.1312,-7.1312,-7.1312,-7.1312,-7.1312,-7.1367,-7.1917,-7.2914,-7.3998,-7.4975,-7.6032,-7.6829,-7.7304,0.0,0.0,-7.8536,-7.8891,-7.9621,-8.0159,-8.0506,-8.0506,-8.0506,-8.0506,-8.2187,-8.3715,-8.5053,-8.5624,-8.595,-8.6049,-8.644,-8.6684,-8.6754,-8.6941,-8.6982,-8.6982,-8.6982,-8.6982,-8.6982,-8.6982,-8.7033,-8.7118,-4.106,-4.106,-4.106,-4.106,-4.106,-4.1546,-4.2678,-4.2844,-4.3341,-4.4678,-4.4842,-4.4842,-4.5005,-4.5005,-4.5982,-4.841,0.0,0.0,-4.8569,-4.7432,-4.6769,-4.6769,-4.5657,-4.5005,-4.4842,-4.4842,-4.4166,-4.2844,-4.1714,-4.106,-4.106,-4.106,-4.255,-4.5005,-4.5758,-4.8165,-5.1385,-5.213,-5.3044,-5.3822,-5.3822,-5.3822,-5.3972,-5.514,-5.6289,-5.7446,-5.8586,-5.9387,-5.9941,-5.9887,-5.91,-5.8123,-5.8069,-5.8512,-5.9217,-6.0629,-6.111,-6.1704,-6.4158,-6.4888,-6.5042,-6.5688,-6.5873,-6.6057,-6.6704,-6.6396,-6.5965,-6.5965,-6.5934,-6.6022,-6.6575,-6.7427,-6.8502,-6.9571,-7.0608,-7.1312,-7.1312,-7.1312,-7.1312,-7.1312,-7.1401,0.0,-7.2866,-7.3807,-7.4866,-7.5963,-7.6829,-7.7304,0.0,0.0,-7.8891,-7.8891,-7.9958,-8.0506,-8.0506,-8.0506,-8.0544,-8.0621,-8.2225,-8.3448,-8.4366,-8.543,-8.6049,-8.6336,-8.652,-8.6754,-8.6982,-8.6982,-8.6982,-8.6982,-8.6982,-8.6982,-8.6982,-8.6982,-8.7033,-8.713,0.0,0.0,-4.106,-4.106,-4.106,-4.1229,-4.1546,-4.1546,-4.203,-4.3341,-4.3507,-4.3837,-4.4842,-4.5005,-4.5332,-4.582,-4.5982,-4.5982,-4.5982,-4.5657,-4.5495,-4.5495,-4.5169,-4.4494,-4.3507,-4.3507,-4.2844,-4.1546,-4.1229,-4.106,-4.106,-4.106,-4.255,-4.5005,-4.5148,-4.7549,-5.1385,-5.1539,-5.2436,-5.3822,-5.3822,-5.3822,-5.3972,-5.514,-5.6289,-5.7446,-5.8586,-5.9654,-6.0484,-6.005,-5.9399,-5.8693,-5.8232,-5.7895,-5.8143,-6.0387,-6.1704,-6.2814,-6.4412,-6.4888,-6.4949,-6.5103,-6.5534,-6.5934,-6.6119,-6.6427,-6.6673,-6.6673,-6.6273,-6.6478,-6.8124,-6.8258,-6.8699,-7.0608,-7.1098,-7.1312,-7.1312,-7.1312,-7.1312,-7.1312,-7.183,-7.2666,-7.3885,-7.4719,-7.579,-7.6893,-7.7181,-7.7304,-7.7304,-7.8309,-7.8891,-7.8891,-7.9958,-8.0506,-8.0506,-8.0506,-8.0812,-8.1499,-8.2531,-8.3524,-8.4547,-8.5665,-8.6298,-8.6546,-8.6816,-8.6941,-8.6982,-8.6982,-8.6982,-8.6982,-8.6982,-8.6982,-8.6982,-8.6982,-8.7074,-8.719,-4.106,-4.106,-4.106,-4.106,-4.106,-4.106,-4.106,-4.106,-4.1378,-4.203,-4.2197,-4.2364,-4.3195,-4.3195,-4.3195,-4.3195,-4.435,-4.5005,-4.5005,-4.4494,-4.4166,-4.4166,-4.3526,-4.2863,-4.2197,-4.2197,-4.1863,-4.106,-4.106,-4.106,-4.106,-4.1714,-4.3029,-4.5005,-4.5657,-4.7868,-5.1385,-5.1385,-5.2283,-5.3822,-5.3822,-5.3822,-5.3972,-5.5704,-5.6725,-5.759,-5.9175,-6.0177,-6.0728,-6.0403,-5.9887,-5.9424,-5.9429,-5.9412,-5.9708,-6.1316,-6.1939,-6.2436,-6.4412,-6.4888,-6.4888,-6.4888,-6.5165,-6.5534,-6.5842,-6.618,-6.655,-6.6858,-6.7032,-6.7589,-6.8898,-6.9251,-6.9775,-7.1074,-7.1312,-7.1312,-7.1312,-7.1312,-7.1457,-7.1742,-7.2228,-7.3078,-7.4531,-7.5227,-7.6032,-7.6993,-7.7181,0.0,-7.7304,-7.8309,-7.8891,-7.8891,-7.9958,-8.0506,-8.0506,-8.0506,-8.0735,-8.1232,-8.2034,-8.2987,-8.4076,-8.5183,-8.5998,-8.6596,-8.6881,-8.6982,-8.6982,-8.6982,-8.6982,-8.6982,-8.6982,-8.6982,-8.6982,-8.6982,-8.7064,-8.7212,-4.1244,-4.1244,-4.1244,-4.1244,-4.1189,-4.1152,-4.1152,-4.1097,-4.106,-4.106,-4.106,-4.106,-4.106,-4.106,-4.106,-4.106,-4.3195,-4.435,-4.435,-4.3341,-4.2678,-4.2678,-4.1714,-4.106,-4.106,-4.106,-4.106,-4.106,-4.106,-4.106,-4.106,-4.2345,-4.3672,-4.5005,-4.6285,-4.8525,-5.1385,-5.1385,-5.2283,-5.3822,-5.3822,-5.3972,-5.4248,-5.6435,-5.7446,-5.7876,-6.0039,-6.0782,-6.0782,-6.0782,-6.0375,-6.0048,-6.0765,-6.1342,-6.1739,-6.2763,-6.2262,-6.1851,-6.427,-6.4888,-6.4888,-6.4888,-6.4888,-6.5042,-6.5626,-6.5842,-6.6057,-6.6642,-6.7777,-6.8786,-6.9194,-7.0141,-7.0975,-7.1367,-7.1379,-7.1312,-7.1312,-7.1312,-7.1634,-7.2364,-7.2617,-7.3322,-7.4973,-7.5548,-7.6068,-7.6801,-7.7118,-7.7304,-7.7426,-7.8363,-7.894,-7.8989,-7.9999,-8.0506,-8.0506,-8.0506,-8.0506,-8.0506,-8.1385,-8.2373,-8.3451,-8.452,-8.5601,-8.6645,-8.6881,-8.6982,-8.6982,-8.6982,-8.6982,-8.6982,-8.6982,-8.6982,-8.6982,-8.7021,-8.7078,-8.7212,-4.2087,-4.2087,-4.2087,-4.2087,-4.1812,-4.1592,-4.1592,-4.1299,-4.106,-4.106,-4.106,-4.106,-4.106,-4.106,-4.106,-4.106,-4.1378,-4.1714,-4.1714,-4.1546,-4.1378,-4.1378,-4.1229,-4.106,-4.106,-4.106,-4.106,-4.106,-4.106,-4.106,-4.106,-4.2345,-4.3672,-4.5005,-4.6285,-4.8525,-5.1385,-5.1385,-5.2283,-5.3822,-5.3822,-5.4397,-5.5435,-5.687,-5.7876,-5.8868,-6.0315,-6.0782,-6.0782,-6.0782,-6.0375,-6.013,-6.137,-6.1075,-6.0745,-6.3091,-6.3262,-6.2929,-6.4524,-6.4888,-6.4888,-6.4888,-6.4888,-6.4918,-6.5042,-6.5503,-6.5934,-6.6027,-6.7433,-6.8913,-6.984,-7.0469,-7.1142,-7.2042,-7.1718,-7.1312,-7.1312,-7.1312,-7.1634,-7.2364,-7.316,-7.4033,-7.5155,-7.6068,-7.6737,-7.7029,-7.7217,-7.751,-7.796,-7.8536,-7.9085,-7.9538,-8.0199,-8.0506,-8.0506,-8.0506,-8.0506,-8.0506,-8.1385,-8.2441,-8.3693,-8.4609,-8.5681,-8.6941,-8.6982,-8.6982,-8.6982,-8.6982,-8.6982,-8.6982,-8.6982,-8.6982,-8.7001,-8.7044,-8.7114,-8.7225,-4.2271,-4.2271,-4.2271,-4.2271,-4.2124,-4.1996,-4.1996,-4.1849,-4.1721,-4.1721,-4.1537,-4.139,-4.139,-4.1189,-4.106,-4.106,-4.106,-4.106,-4.106,-4.106,-4.106,-4.106,-4.106,-4.106,-4.106,-4.106,-4.106,-4.106,-4.106,-4.106,-4.106,-4.3195,-4.433,-4.5169,-4.7571,-4.9629,-5.1385,-5.1824,-5.2764,-5.3822,-5.3822,-5.4546,-5.5729,-5.687,-5.8018,-5.9149,-6.0342,-6.0782,-6.0782,-6.0782,-6.1083,-6.1691,-6.2608,-6.2726,-6.29,-6.4533,-6.4562,-6.4158,-6.4777,-6.4888,-6.4888,-6.4888,-6.4888,-6.4888,-6.4888,-6.5134,-6.5472,-6.5842,-6.7463,-6.9134,-7.0041,-7.0963,-7.1774,-7.2303,-7.1785,-7.1312,-7.1312,-7.1312,-7.1776,-7.3078,-7.3562,-7.434,-7.5724,-7.6439,-7.6801,-7.6929,-7.7118,-7.751,-7.8072,-7.8588,-7.9133,-7.9665,-8.0199,-8.0506,-8.0506,-8.0506,-8.0506,-8.0506,-8.0997,-8.1881,-8.3094,-8.4055,-8.5149,-8.6321,-8.6787,-8.6982,-8.6982,-8.6982,-8.6982,-8.6982,-8.6982,-8.6982,-8.7021,-8.7074,-8.7136,-8.7225,-4.2564,-4.2564,-4.2564,-4.2564,-4.2472,-4.2417,-4.2417,-4.2344,-4.2271,-4.2271,-4.2014,-4.1831,-4.1831,-4.1537,-4.1335,-4.1335,-4.1335,-4.1299,-4.1207,-4.1207,-4.117,-4.106,-4.106,-4.106,-4.106,-4.106,-4.106,-4.106,-4.106,-4.106,-4.1229,-4.3856,-4.5005,-4.5169,-4.8525,-5.0588,-5.1385,-5.2307,-5.3044,-5.3822,-5.4122,-5.4992,-5.6143,-5.7277,-5.8444,-5.9595,-6.048,-6.0782,-6.0782,-6.0782,-6.1654,-6.2953,-6.3734,-6.4529,-6.5231,-6.5963,-6.5565,-6.4888,-6.4888,-6.4888,-6.4888,-6.4888,-6.4888,-6.4888,-6.4888,-6.4888,-6.5152,-6.5868,-6.7726,-6.9469,-7.0387,-7.1712,-7.2665,-7.2665,0.0,-7.1515,-7.1345,-7.1312,-7.1951,-7.3562,-7.3799,-7.4416,-7.614,-7.6578,-7.6773,-7.6801,-7.7056,-7.757,-7.8255,-7.869,-7.918,-7.9874,-8.0315,-8.0506,-8.0506,-8.0506,-8.0506,-8.0506,-8.0716,-8.14,-8.2554,-8.3618,-8.4699,-8.5738,-8.6632,-8.6982,-8.6982,-8.6982,-8.6982,-8.6982,-8.6982,-8.6982,-8.7021,-8.7078,-8.7156,-8.7225,-4.3408,-4.3408,-4.3408,-4.3408,-4.3078,-4.2821,-4.2821,-4.2509,-4.2271,-4.2271,-4.2252,-4.2234,-4.2234,-4.2216,-4.2179,-4.2179,-4.2179,-4.2032,-4.1666,-4.1647,-4.1464,-4.1079,-4.106,-4.106,-4.106,-4.106,-4.106,-4.106,-4.106,-4.106,-4.1229,-4.3856,-4.5005,-4.5169,-4.8525,-5.0588,-5.1385,-5.2307,-5.3044,-5.3972,-5.4992,-5.6143,-5.7303,-5.8444,-5.9595,-6.0618,-6.0782,-6.0782,-6.0782,-6.0782,-6.1654,-6.3037,-6.4252,-6.5205,-6.5952,-6.6667,-6.5903,-6.4888,-6.4888,-6.4888,-6.4888,-6.4888,-6.4888,-6.4888,-6.4888,-6.4888,-6.5218,-6.6268,-6.79,-6.9672,-7.149,-7.272,-7.3409,-7.3409,0.0,0.0,-7.1413,-7.1312,-7.1951,-7.3562,-7.3799,-7.4416,-7.614,-7.6512,-7.6643,-7.6801,-7.7029,-7.7651,-7.8791,-7.8891,-7.9403,-8.0392,-8.0506,-8.0506,-8.0506,-8.0506,-8.0506,-8.0506,-8.0716,-8.14,-8.2554,-8.3618,-8.4699,-8.5738,-8.6632,-8.6982,-8.6982,-8.6982,-8.6982,-8.6982,-8.6982,-8.6982,-8.704,-8.7136,-8.7212,-8.723,-4.3499,-4.3499,-4.3499,-4.3499,-4.3371,-4.3261,-4.3261,-4.3133,-4.3041,-4.3041,-4.2803,-4.2637,-4.2637,-4.2417,-4.2271,-4.2271,-4.2271,-4.2216,-4.2069,-4.2051,-4.1757,-4.1097,-4.106,-4.106,-4.106,-4.106,-4.106,-4.106,-4.106,-4.1546,-4.2364,-4.4186,-4.5495,-4.6285,-4.9472,-5.1053,-5.1539,-5.2764,-5.3521,-5.3972,-5.514,-5.6289,-5.7421,-5.8586,-5.9734,-6.0782,-6.0782,-6.0782,-6.0892,-6.1789,-6.2906,-6.431,-6.5735,-6.6552,-6.7077,-6.6498,-6.5626,-6.4888,-6.4888,-6.4888,-6.4888,-6.4888,-6.4888,-6.4888,-6.4888,-6.4888,-6.5187,-6.628,-6.7619,-6.9251,-7.1522,-7.2384,-7.2969,-7.3409,0.0,-7.2157,-7.1413,-7.1312,-7.1951,-7.3562,-7.3799,-7.4416,-7.614,-7.6445,-7.6614,-7.6643,-7.7056,-7.7768,-7.8741,-7.9494,-8.0081,-8.0506,-8.0506,-8.0506,-8.0506,-8.0506,-8.0506,-8.0506,-8.0882,-8.1282,-8.1716,-8.2925,-8.4008,-8.4923,-8.5816,-8.6515,-8.6982,-8.6982,-8.6982,-8.6982,-8.6982,-8.7019,-8.7074,-8.7174,-8.7236,-8.7262,-4.3499,-4.3499,-4.3499,-4.3499,-4.3499,-4.3499,-4.3499,-4.3499,-4.3499,-4.3499,-4.3243,-4.3059,-4.3059,-4.2821,-4.2656,-4.2656,-4.2656,-4.2601,-4.2472,-4.2344,-4.1977,-4.128,-4.1262,-4.1189,-4.106,-4.106,-4.106,-4.106,-4.106,-4.1714,-4.2991,-4.433,-4.5657,-4.709,-4.9786,-5.1076,-5.1539,-5.2892,-5.3822,-5.4397,-5.5704,-5.687,-5.8018,-5.9149,-6.0039,-6.0782,-6.0782,-6.0782,-6.1029,-6.2403,-6.3663,-6.5076,-6.651,-6.7334,-6.7689,-6.655,-6.575,-6.5165,-6.4949,-6.4888,-6.4888,-6.4888,-6.4888,-6.4888,-6.4888,-6.4888,-6.5297,-6.6701,-6.7599,-6.9025,-7.1878,-7.2573,-7.2902,-7.3409,-7.3071,-7.2394,-7.1447,-7.1546,-7.2228,-7.3641,-7.4033,-7.4752,-7.614,-7.6445,-7.6548,-7.6614,-7.7118,-7.7826,-7.8728,-7.9832,-8.0431,-8.0431,-8.0468,-8.0506,-8.0506,-8.0506,-8.0506,-8.0506,-8.0977,-8.1214,-8.1214,-8.2527,-8.3446,-8.4068,-8.5195,-8.6049,-8.6593,-8.6904,-8.6982,-8.6982,-8.6982,-8.7033,-8.7105,-8.7182,-8.7249,-8.7304,-4.3499,-4.3499,-4.3499,-4.3499,-4.3499,-4.3499,-4.3499,-4.3499,-4.3499,-4.3499,-4.3499,-4.3499,-4.3499,-4.3499,-4.3499,-4.3499,-4.3499,-4.3316,-4.2894,-4.2509,-4.2106,-4.1721,-4.1702,-4.15,-4.1079,-4.106,-4.106,-4.106,-4.106,-4.1714,-4.2991,-4.433,-4.5657,-4.693,-4.9179,-5.0588,-5.1385,-5.2307,-5.3798,-5.5729,-5.687,-5.8018,-5.9149,-6.0315,-6.0782,-6.0782,-6.0782,-6.0782,-6.1029,-6.2403,-6.3663,-6.5076,-6.6481,-6.7334,-6.7781,-6.7104,-6.6427,-6.575,-6.5072,-6.4888,-6.4888,-6.4888,-6.4888,-6.4888,-6.4888,-6.4888,-6.5483,-6.7701,-6.8072,-6.9223,-7.2801,-7.3477,-7.3477,-7.3477,-7.3477,-7.2969,-7.1515,-7.2004,-7.2832,-7.3721,-7.4602,-7.5407,-7.6208,-7.6275,-7.6378,-7.6614,-7.7056,-7.7826,-7.8954,-7.974,-8.0195,-8.0195,-8.0392,-8.0506,-8.0506,-8.0506,-8.0506,-8.0506,-8.0977,-8.1214,-8.1214,-8.2527,-8.3097,-8.3213,-8.4923,-8.57,-8.5777,-8.6632,-8.6982,-8.6982,-8.6982,-8.7033,-8.7105,-8.7182,-8.7249,-8.7304,-4.3554,-4.3499,-4.3499,-4.3499,-4.3499,-4.3499,-4.3499,-4.3499,-4.3499,-4.3499,-4.3499,-4.3499,-4.3499,-4.3499,-4.3499,-4.3499,-4.3499,-4.3444,-4.3316,-4.3206,-4.2949,-4.2527,-4.1977,-4.1629,-4.15,-4.1207,-4.106,-4.106,-4.106,-4.2197,-4.433,-4.4842,-4.6144,-4.841,-4.9494,-5.0588,-5.1385,-5.2307,-5.3798,-5.5729,-5.687,-5.8018,-5.9149,-6.0315,-6.0782,-6.0782,-6.0782,-6.0782,-6.1166,-6.3431,-6.4438,-6.5202,-6.7608,-6.8076,-6.7781,-6.7104,-6.6427,-6.575,-6.5072,-6.4888,-6.4888,-6.4888,-6.4888,-6.4888,-6.4888,-6.5483,-6.6385,-6.777,-6.8667,-7.0129,-7.2987,-7.3477,-7.3477,-7.3477,-7.3477,-7.2969,-7.1515,-7.2004,-7.2832,-7.3721,-7.4602,-7.5407,-7.6208,-7.6275,-7.6275,-7.6378,-7.7292,-7.8292,-7.9321,-7.9734,-7.9908,-7.9908,-7.9992,-8.0034,-8.0034,-8.0315,-8.0506,-8.0506,-8.0977,-8.1214,-8.1214,-8.1945,-8.2553,-8.3136,-8.3641,-8.4573,-8.57,-8.5972,-8.6438,-8.6982,-8.6982,-8.7059,-8.7182,-8.7205,-8.7262,-8.7353,-4.4013,-4.3958,-4.3903,-4.3756,-4.3738,-4.3683,-4.3518,-4.3499,-4.3499,-4.3499,-4.3499,-4.3499,-4.3499,-4.3499,-4.3499,-4.3499,-4.3499,-4.3499,-4.3499,-4.3499,-4.3371,-4.3133,-4.2344,-4.1849,-4.1702,-4.128,-4.106,-4.106,-4.1546,-4.2863,-4.5005,-4.5495,-4.6951,-4.8907,-4.9359,-5.0299,-5.1539,-5.2412,-5.4199,-5.6435,-5.7564,-5.8727,-5.9734,-6.048,-6.0782,-6.0782,-6.0782,-6.1138,-6.1896,-6.4052,-6.5455,-6.6727,-6.8386,-6.8612,-6.812,-6.7196,-6.6611,-6.6088,-6.5165,-6.4888,-6.4888,-6.4888,-6.4888,-6.4888,-6.4888,-6.57,-6.6774,-6.7871,-6.896,-7.0509,-7.3021,-7.3477,-7.3477,-7.3477,-7.3477,-7.2969,-7.1515,-7.2313,-7.3241,-7.3721,-7.4826,-7.576,-7.6275,-7.6275,-7.6475,-7.6829,-7.7673,-7.8544,-7.9311,-7.9554,-7.969,-7.969,-7.9778,-7.9784,-7.9784,-8.0075,-8.0315,-8.0468,-8.0876,-8.1147,-8.1285,-8.1734,-8.2164,-8.2631,-8.2941,-8.3679,-8.469,-8.5039,-8.57,-8.6496,-8.6532,-8.6793,-8.7219,-8.724,-8.7304,-8.7393,-4.4673,-4.4673,-4.4563,-4.4196,-4.4141,-4.4013,-4.3646,-4.3573,-4.3554,-4.3554,-4.3518,-4.3499,-4.3499,-4.3499,-4.3499,-4.3499,-4.3499,-4.3499,-4.3499,-4.3499,-4.3499,-4.3499,-4.2711,-4.2106,-4.1739,-4.1299,-4.106,-4.106,-4.2345,-4.3672,-4.5005,-4.6285,-4.7592,-4.8907,-4.9065,-4.983,-5.1539,-5.2518,-5.4745,-5.7446,-5.8444,-5.9595,-6.0782,-6.0782,-6.0782,-6.0782,-6.0782,-6.1654,-6.3037,-6.4438,-6.6727,-6.8889,-6.8889,-6.8889,-6.8643,-6.7381,-6.6981,-6.6642,-6.5349,-6.4949,-6.4888,-6.4888,-6.4998,-6.4998,-6.4888,-6.5777,-6.6878,-6.7871,-6.8993,-7.0603,-7.3021,-7.3477,-7.351,-7.3578,-7.3544,-7.3003,-7.1616,-7.2735,-7.3799,-7.3799,-7.5263,-7.6275,-7.6275,-7.6342,-7.67,-7.7651,-7.8109,-7.8633,-7.9029,-7.9359,-7.9453,-7.9453,-7.9645,-7.9778,-7.9778,-7.9778,-7.9954,-8.0391,-8.0668,-8.1012,-8.1387,-8.1755,-8.1892,-8.1931,-8.2669,-8.3019,-8.3174,-8.3951,-8.4806,-8.5621,-8.575,-8.6317,-8.7113,-8.7264,-8.7327,-8.7377,-4.4728,-4.4673,-4.4636,-4.4563,-4.4545,-4.4508,-4.4435,-4.416,-4.3958,-4.3958,-4.3683,-4.3499,-4.3499,-4.3499,-4.3499,-4.3499,-4.3499,-4.3499,-4.3499,-4.3499,-4.3499,-4.3499,-4.2711,-4.2234,-4.2161,-4.1427,-4.106,-4.106,-4.2345,-4.3672,-4.5005,-4.6285,-4.7592,-4.8907,-4.9516,-5.0432,-5.1539,-5.2283,-5.4497,-5.7303,-5.759,-5.8894,-6.0782,-6.0782,-6.0782,-6.0782,-6.0782,-6.1654,-6.3169,-6.561,-6.7487,-6.8889,-6.8889,-6.8889,-6.8735,-6.7935,-6.7319,-6.6735,-6.5903,-6.5288,-6.4888,-6.4888,-6.5483,-6.5884,-6.5108,-6.6385,-6.777,-6.8072,-6.9604,-7.1445,-7.3206,-7.3477,-7.368,-7.4289,-7.3883,-7.3172,-7.2293,-7.308,-7.3799,-7.3799,-7.5263,-7.6275,-7.6275,-7.6636,-7.7082,-7.7651,-7.8109,-7.8633,-7.9029,-7.9165,-7.9214,-7.9214,-7.9225,-7.9225,-7.9225,-7.9225,-7.9652,-8.0391,-8.0673,-8.0962,-8.1311,-8.1652,-8.1834,-8.1834,-8.2068,-8.2514,-8.3097,-8.3291,-8.3926,-8.4816,-8.552,-8.6012,-8.6326,-8.703,-8.7323,-8.7369,-4.5297,-4.526,-4.5187,-4.5003,-4.4966,-4.4911,-4.471,-4.449,-4.4306,-4.4105,-4.3903,-4.3701,-4.3518,-4.3499,-4.3499,-4.3499,-4.3499,-4.3499,-4.3499,-4.3499,-4.3499,-4.3499,-4.2711,-4.2271,-4.2271,-4.1482,-4.1378,-4.203,-4.3341,-4.4658,-4.5961,-4.7272,-4.8251,-4.8907,-4.9673,-5.0588,-5.1539,-5.3449,-5.5361,-5.7446,-5.8444,-5.9761,-6.0782,-6.0782,-6.0782,-6.0782,-6.0782,-6.203,-6.4181,-6.7001,-6.8268,-6.8889,-6.8889,-6.8889,-6.8766,-6.812,-6.7442,-6.6765,-6.6088,-6.5411,-6.4888,-6.4888,-6.57,-6.6205,-6.5077,-6.6982,-6.8667,-6.8172,-6.9794,-7.1751,-7.3206,-7.3477,-7.3713,-7.4492,-7.3984,-7.339,-7.3092,-7.3517,-7.3956,-7.4376,-7.5513,-7.6275,-7.6275,-7.6956,-7.7413,-7.7651,-7.8329,-7.8878,-7.9116,-7.9116,-7.9116,-7.9116,-7.9116,-7.9116,-7.9116,-7.9116,-7.9524,-8.0353,-8.0535,-8.09,-8.1465,-8.1691,-8.1814,-8.1775,-8.1873,-8.2126,-8.2514,-8.2514,-8.3048,-8.3935,-8.4434,-8.4921,-8.5507,-8.6389,-8.6971,-8.7341,-4.5883,-4.5883,-4.5792,-4.5462,-4.5407,-4.5278,-4.493,-4.482,-4.4655,-4.4325,-4.4178,-4.3958,-4.3628,-4.3536,-4.3499,-4.3499,-4.3499,-4.3499,-4.3499,-4.3499,-4.3499,-4.3499,-4.2711,-4.2271,-4.2271,-4.1482,-4.1714,-4.2991,-4.433,-4.5657,-4.693,-4.8251,-4.8907,-4.8907,-4.9987,-5.0743,-5.167,-5.477,-5.6529,-5.7446,-5.9595,-6.0618,-6.0782,-6.0782,-6.0782,-6.0782,-6.1029,-6.2934,-6.558,-6.7998,-6.8889,-6.8889,-6.8889,-6.8889,-6.8766,-6.8243,-6.7535,-6.6796,-6.6242,-6.5503,-6.4888,-6.4888,-6.57,-6.6311,-6.5406,-6.7497,-6.9475,-6.8568,-6.9888,-7.1751,-7.3206,-7.3477,-7.3713,-7.4492,-7.3984,-7.3572,-7.3637,-7.3764,-7.4111,-7.5009,-7.5829,-7.6275,-7.6275,-7.7107,-7.771,-7.771,-7.8581,-7.9116,-7.9116,-7.9116,-7.9116,-7.9116,-7.9116,-7.9116,-7.9116,-7.9116,-7.9524,-8.0315,-8.0387,-8.083,-8.16,-8.1713,-8.1755,-8.1814,-8.1873,-8.1892,-8.1892,-8.1892,-8.2326,-8.3036,-8.321,-8.3776,-8.4606,-8.5683,-8.6522,-8.7091,-4.5883,-4.5883,-4.5865,-4.5828,-4.581,-4.5792,-4.5737,-4.5443,-4.5205,-4.515,-4.4526,-4.4068,-4.4013,-4.3701,-4.3499,-4.3499,-4.3499,-4.3499,-4.3499,-4.3499,-4.3499,-4.3499,-4.2711,-4.2271,-4.2271,-4.1482,-4.1714,-4.2991,-4.433,-4.5657,-4.693,-4.8251,-4.8907,-4.8907,-5.0611,-5.1231,-5.1516,-5.4522,-5.6289,-5.7446,-5.8727,-5.99,-6.0782,-6.0782,-6.0782,-6.0892,-6.2164,-6.431,-6.6879,-6.8386,-6.8889,-6.8889,-6.8889,-6.8889,-6.8858,-6.8766,-6.7873,-6.6888,-6.6796,-6.5842,-6.4888,-6.4888,-6.57,-6.6491,-6.628,-6.8104,-6.9666,-6.9475,-7.0482,-7.1751,-7.3206,-7.3477,-7.3713,-7.4492,-7.3984,-7.3572,-7.3637,-7.3764,-7.4111,-7.5009,-7.5829,-7.6275,-7.6275,-7.7107,-7.771,-7.771,-7.8581,-7.9116,-7.9116,-7.9116,-7.9116,-7.9116,-7.9116,-7.9116,-7.9116,-7.9116,-7.9524,-8.0315,-8.0387,-8.0799,-8.1528,-8.1646,-8.1713,-8.1713,-8.1854,-8.1892,-8.1892,-8.1892,-8.2051,-8.2319,-8.3035,-8.3437,-8.3841,-8.5429,-8.6077,-8.6274,-4.5883,-4.5883,-4.5883,-4.5883,-4.5883,-4.5883,-4.5883,-4.5737,-4.5553,-4.5333,-4.4985,-4.46,-4.4123,-4.3738,-4.3499,-4.3499,-4.3499,-4.3499,-4.3499,-4.3499,-4.3499,-4.3499,-4.2711,-4.2271,-4.2271,-4.2124,-4.2844,-4.4166,-4.4678,-4.5982,-4.8071,-4.8569,-4.8907,-4.8907,-5.0611,-5.1824,-5.2541,-5.5385,-5.7159,-5.8302,-5.9595,-6.0315,-6.0782,-6.0782,-6.0782,-6.1029,-6.3169,-6.5202,-6.7123,-6.8505,-6.8889,-6.8889,-6.8889,-6.8889,-6.8889,-6.8889,-6.7966,-6.6919,-6.6919,-6.5934,-6.4888,-6.4888,-6.6205,-6.7395,-6.7395,-6.909,-7.0389,-6.976,-7.0909,-7.2225,-7.3274,-7.3815,-7.4221,-7.4559,-7.3984,-7.3719,-7.4247,-7.4052,-7.4264,-7.562,-7.6072,-7.6275,-7.6275,-7.7107,-7.771,-7.771,-7.8581,-7.9116,-7.9116,-7.9116,-7.9116,-7.9116,-7.9116,-7.9116,-7.9116,-7.9116,-7.9425,-7.9964,-8.0277,-8.083,-8.1553,-8.1691,-8.1734,-8.1755,-8.1854,-8.1892,-8.1892,-8.1892,-8.1987,-8.2137,-8.2461,-8.2929,-8.3508,-8.4267,-8.4857,-8.5364]}]]